| time (UTC) | temp F | wind direction | speed MPH | gust MPH | rain 1hr in | rain 24hr in | rain mn in | humidity % | barometer mb |
| 20260509140911 | 76 | 0 | 0.0 | 2.0 | 0.00 | 0.00 | 0.00 | 99 | 1010.2 |
| 20260509140756 | 76 | 0 | 1.0 | 2.0 | 0.00 | 0.00 | 0.00 | 99 | 1010.1 |
| 20260509140656 | 76 | 0 | 1.0 | 2.0 | 0.00 | 0.00 | 0.00 | 99 | 1010.1 |
| 20260509140636 | 76 | 172 | 1.0 | 2.0 | 0.00 | 0.00 | 0.00 | 99 | 1009.9 |
| 20260509140555 | 76 | 102 | 1.0 | 2.0 | 0.00 | 0.00 | 0.00 | 99 | 1010.0 |
| 20260509140525 | 76 | 176 | 1.0 | 2.0 | 0.00 | 0.00 | 0.00 | 99 | 1009.9 |
| 20260509140326 | 76 | 56 | 1.0 | 2.0 | 0.00 | 0.00 | 0.00 | 99 | 1009.9 |
| 20260509140304 | 76 | 113 | 1.0 | 2.0 | 0.00 | 0.00 | 0.00 | 99 | 1009.9 |
| 20260509140125 | 76 | 185 | 1.0 | 2.0 | 0.00 | 0.00 | 0.00 | 99 | 1009.9 |
| 20260509140035 | 76 | 175 | 1.0 | 2.0 | 0.00 | 0.00 | 0.00 | 99 | 1009.9 |
| 20260509135925 | 76 | 130 | 1.0 | 2.0 | 0.00 | 0.00 | 0.00 | 99 | 1009.9 |
| 20260509135811 | 76 | 226 | 1.0 | 2.0 | 0.00 | 0.00 | 0.00 | 99 | 1009.9 |
| 20260509135656 | 76 | 78 | 1.0 | 2.0 | 0.00 | 0.00 | 0.00 | 99 | 1009.9 |
| 20260509135650 | 76 | 67 | 1.0 | 2.0 | 0.00 | 0.00 | 0.00 | 99 | 1009.9 |
| 20260509135556 | 76 | 295 | 1.0 | 2.0 | 0.00 | 0.00 | 0.00 | 99 | 1009.9 |
| 20260509135530 | 76 | 57 | 1.0 | 2.0 | 0.00 | 0.00 | 0.00 | 99 | 1009.9 |
| 20260509135342 | 76 | 91 | 1.0 | 2.0 | 0.00 | 0.00 | 0.00 | 99 | 1009.9 |
| 20260509135241 | 76 | 84 | 1.0 | 2.0 | 0.00 | 0.00 | 0.00 | 99 | 1009.9 |
| 20260509135142 | 76 | 73 | 1.0 | 2.0 | 0.00 | 0.00 | 0.00 | 99 | 1009.9 |
| 20260509135042 | 76 | 100 | 1.0 | 3.0 | 0.00 | 0.00 | 0.00 | 99 | 1010.0 |
| 20260509134942 | 75 | 108 | 1.0 | 3.0 | 0.00 | 0.00 | 0.00 | 99 | 1010.1 |
| 20260509134924 | 75 | 142 | 1.0 | 3.0 | 0.00 | 0.00 | 0.00 | 99 | 1010.1 |
| 20260509134842 | 75 | 73 | 1.0 | 3.0 | 0.00 | 0.00 | 0.00 | 99 | 1010.1 |
| 20260509134742 | 75 | 225 | 1.0 | 3.0 | 0.00 | 0.00 | 0.00 | 99 | 1010.2 |
| 20260509134627 | 75 | 213 | 1.0 | 3.0 | 0.00 | 0.00 | 0.00 | 99 | 1010.2 |
| 20260509134525 | 75 | 240 | 1.0 | 3.0 | 0.00 | 0.00 | 0.00 | 99 | 1010.1 |
| 20260509134424 | 75 | 265 | 1.0 | 3.0 | 0.00 | 0.00 | 0.00 | 99 | 1010.1 |
| 20260509134356 | 75 | 279 | 1.0 | 3.0 | 0.00 | 0.00 | 0.00 | 99 | 1010.1 |
| 20260509134256 | 75 | 283 | 1.0 | 3.0 | 0.00 | 0.00 | 0.00 | 99 | 1010.1 |
| 20260509134142 | 75 | 239 | 1.0 | 3.0 | 0.00 | 0.00 | 0.00 | 99 | 1010.0 |
| 20260509134041 | 75 | 244 | 1.0 | 3.0 | 0.00 | 0.00 | 0.00 | 99 | 1010.0 |
| 20260509133942 | 75 | 253 | 1.0 | 2.0 | 0.00 | 0.00 | 0.00 | 99 | 1010.0 |
| 20260509133924 | 75 | 254 | 1.0 | 2.0 | 0.00 | 0.00 | 0.00 | 99 | 1009.9 |
| 20260509133842 | 75 | 236 | 1.0 | 2.0 | 0.00 | 0.00 | 0.00 | 99 | 1009.9 |
| 20260509133727 | 75 | 223 | 1.0 | 2.0 | 0.00 | 0.00 | 0.00 | 99 | 1009.9 |
| 20260509133625 | 75 | 255 | 1.0 | 2.0 | 0.00 | 0.00 | 0.00 | 99 | 1009.9 |
| 20260509133525 | 75 | 81 | 1.0 | 2.0 | 0.00 | 0.00 | 0.00 | 99 | 1009.9 |
| 20260509133425 | 75 | 359 | 1.0 | 2.0 | 0.00 | 0.00 | 0.00 | 99 | 1009.9 |
| 20260509133312 | 75 | 245 | 1.0 | 2.0 | 0.00 | 0.00 | 0.00 | 99 | 1009.8 |
| 20260509133157 | 75 | 273 | 1.0 | 3.0 | 0.00 | 0.00 | 0.00 | 99 | 1009.8 |
| 20260509133057 | 75 | 356 | 1.0 | 3.0 | 0.00 | 0.00 | 0.00 | 99 | 1009.7 |
| 20260509132956 | 75 | 0 | 1.0 | 3.0 | 0.00 | 0.00 | 0.00 | 99 | 1009.7 |
| 20260509132924 | 75 | 328 | 1.0 | 3.0 | 0.00 | 0.00 | 0.00 | 99 | 1009.6 |
| 20260509132856 | 75 | 328 | 1.0 | 3.0 | 0.00 | 0.00 | 0.00 | 99 | 1009.6 |
| 20260509132742 | 75 | 82 | 1.0 | 3.0 | 0.00 | 0.00 | 0.00 | 99 | 1009.6 |
| 20260509132642 | 75 | 70 | 1.0 | 3.0 | 0.00 | 0.00 | 0.00 | 99 | 1009.5 |
| 20260509132543 | 75 | 102 | 1.0 | 3.0 | 0.00 | 0.00 | 0.00 | 99 | 1009.5 |
| 20260509132442 | 75 | 87 | 1.0 | 3.0 | 0.00 | 0.00 | 0.00 | 99 | 1009.7 |
| 20260509132356 | 75 | 83 | 1.0 | 3.0 | 0.00 | 0.00 | 0.00 | 99 | 1009.7 |
| 20260509132342 | 75 | 70 | 1.0 | 3.0 | 0.00 | 0.00 | 0.00 | 99 | 1009.7 |
| 20260509132242 | 75 | 80 | 1.0 | 3.0 | 0.00 | 0.00 | 0.00 | 99 | 1009.7 |
| 20260509132125 | 75 | 45 | 1.0 | 2.0 | 0.00 | 0.00 | 0.00 | 99 | 1009.8 |
| 20260509132025 | 75 | 0 | 1.0 | 2.0 | 0.00 | 0.00 | 0.00 | 99 | 1009.8 |
| 20260509131927 | 75 | 0 | 1.0 | 2.0 | 0.00 | 0.00 | 0.00 | 99 | 1009.8 |
| 20260509131856 | 75 | 0 | 1.0 | 2.0 | 0.00 | 0.00 | 0.00 | 99 | 1009.8 |
| 20260509131827 | 75 | 349 | 1.0 | 2.0 | 0.00 | 0.00 | 0.00 | 99 | 1009.9 |
| 20260509131712 | 75 | 26 | 1.0 | 2.0 | 0.00 | 0.00 | 0.00 | 99 | 1009.9 |
| 20260509131556 | 75 | 49 | 1.0 | 2.0 | 0.00 | 0.00 | 0.00 | 99 | 1010.0 |
| 20260509131457 | 75 | 276 | 1.0 | 2.0 | 0.00 | 0.00 | 0.00 | 99 | 1010.0 |
| 20260509131357 | 75 | 254 | 1.0 | 2.0 | 0.00 | 0.00 | 0.00 | 99 | 1010.0 |
| 20260509131341 | 75 | 260 | 1.0 | 2.0 | 0.00 | 0.00 | 0.00 | 99 | 1010.0 |
| 20260509131257 | 75 | 297 | 1.0 | 2.0 | 0.00 | 0.00 | 0.00 | 99 | 1010.0 |
| 20260509131053 | 75 | 216 | 0.0 | 2.0 | 0.00 | 0.00 | 0.00 | 99 | 1010.0 |
| 20260509131027 | 75 | 280 | 1.0 | 2.0 | 0.00 | 0.00 | 0.00 | 99 | 1010.0 |
| 20260509130935 | 75 | 242 | 1.0 | 2.0 | 0.00 | 0.00 | 0.00 | 99 | 1010.0 |
| 20260509130826 | 75 | 251 | 0.0 | 2.0 | 0.00 | 0.00 | 0.00 | 99 | 1010.2 |
| 20260509130642 | 75 | 244 | 0.0 | 2.0 | 0.00 | 0.00 | 0.00 | 99 | 1010.2 |
| 20260509130457 | 75 | 0 | 0.0 | 2.0 | 0.00 | 0.00 | 0.00 | 99 | 1010.2 |
| 20260509130342 | 75 | 0 | 0.0 | 2.0 | 0.00 | 0.00 | 0.00 | 99 | 1010.2 |
| 20260509130325 | 75 | 262 | 0.0 | 2.0 | 0.00 | 0.00 | 0.00 | 99 | 1010.2 |
| 20260509130227 | 75 | 263 | 0.0 | 2.0 | 0.00 | 0.00 | 0.00 | 99 | 1010.2 |
| 20260509130126 | 75 | 0 | 0.0 | 2.0 | 0.00 | 0.00 | 0.00 | 99 | 1010.2 |
| 20260509130028 | 75 | 259 | 0.0 | 2.0 | 0.00 | 0.00 | 0.00 | 99 | 1010.2 |
| 20260509125926 | 75 | 275 | 0.0 | 2.0 | 0.00 | 0.00 | 0.00 | 99 | 1010.2 |
| 20260509125826 | 75 | 286 | 0.0 | 1.0 | 0.00 | 0.00 | 0.00 | 99 | 1010.2 |
| 20260509125712 | 75 | 228 | 0.0 | 1.0 | 0.00 | 0.00 | 0.00 | 99 | 1010.1 |
| 20260509125612 | 75 | 0 | 0.0 | 1.0 | 0.00 | 0.00 | 0.00 | 99 | 1010.1 |
| 20260509125427 | 75 | 0 | 0.0 | 1.0 | 0.00 | 0.00 | 0.00 | 99 | 1010.1 |
| 20260509125327 | 75 | 163 | 0.0 | 1.0 | 0.00 | 0.00 | 0.00 | 99 | 1010.1 |
| 20260509125311 | 75 | 163 | 0.0 | 1.0 | 0.00 | 0.00 | 0.00 | 99 | 1010.0 |
| 20260509125227 | 75 | 129 | 0.0 | 1.0 | 0.00 | 0.00 | 0.00 | 99 | 1010.0 |
| 20260509125127 | 75 | 152 | 0.0 | 1.0 | 0.00 | 0.00 | 0.00 | 99 | 1010.0 |
| 20260509125027 | 75 | 164 | 0.0 | 1.0 | 0.00 | 0.00 | 0.00 | 99 | 1010.0 |
| 20260509124928 | 75 | 0 | 0.0 | 1.0 | 0.00 | 0.00 | 0.00 | 99 | 1010.0 |
| 20260509124827 | 75 | 0 | 0.0 | 1.0 | 0.00 | 0.00 | 0.00 | 99 | 1010.0 |
| 20260509124810 | 75 | 0 | 0.0 | 1.0 | 0.00 | 0.00 | 0.00 | 99 | 1010.0 |
| 20260509124727 | 75 | 0 | 0.0 | 1.0 | 0.00 | 0.00 | 0.00 | 99 | 1010.0 |
| 20260509124632 | 75 | 279 | 0.0 | 1.0 | 0.00 | 0.00 | 0.00 | 99 | 1010.0 |
| 20260509124527 | 75 | 191 | 0.0 | 1.0 | 0.00 | 0.00 | 0.00 | 99 | 1010.0 |
| 20260509124428 | 75 | 234 | 0.0 | 1.0 | 0.00 | 0.00 | 0.00 | 99 | 1010.0 |
| 20260509124328 | 75 | 161 | 0.0 | 1.0 | 0.00 | 0.00 | 0.00 | 99 | 1010.0 |
| 20260509124312 | 75 | 150 | 0.0 | 1.0 | 0.00 | 0.00 | 0.00 | 99 | 1010.0 |
| 20260509124227 | 75 | 246 | 0.0 | 1.0 | 0.00 | 0.00 | 0.00 | 99 | 1010.0 |
| 20260509124127 | 75 | 270 | 0.0 | 1.0 | 0.00 | 0.00 | 0.00 | 99 | 1010.1 |
| 20260509124037 | 75 | 0 | 0.0 | 2.0 | 0.00 | 0.00 | 0.00 | 99 | 1010.2 |
| 20260509124027 | 75 | 0 | 0.0 | 1.0 | 0.00 | 0.00 | 0.00 | 99 | 1010.1 |
| 20260509123927 | 75 | 207 | 0.0 | 1.0 | 0.00 | 0.00 | 0.00 | 99 | 1010.2 |
| 20260509123916 | 75 | 0 | 0.0 | 2.0 | 0.00 | 0.00 | 0.00 | 99 | 1010.2 |
| 20260509123727 | 75 | 0 | 0.0 | 2.0 | 0.00 | 0.00 | 0.00 | 99 | 1010.2 |
| 20260509123627 | 75 | 0 | 0.0 | 2.0 | 0.00 | 0.00 | 0.00 | 99 | 1010.2 |
| 20260509123527 | 75 | 0 | 0.0 | 2.0 | 0.00 | 0.00 | 0.00 | 99 | 1010.2 |
| 20260509123514 | 75 | 244 | 1.0 | 2.0 | 0.00 | 0.00 | 0.00 | 99 | 1010.2 |
| 20260509123427 | 75 | 84 | 1.0 | 2.0 | 0.00 | 0.00 | 0.00 | 99 | 1010.2 |
| 20260509123402 | 75 | 326 | 1.0 | 2.0 | 0.00 | 0.00 | 0.00 | 99 | 1010.2 |
| 20260509123226 | 75 | 0 | 1.0 | 2.0 | 0.00 | 0.00 | 0.00 | 99 | 1010.2 |
| 20260509123126 | 75 | 0 | 1.0 | 2.0 | 0.00 | 0.00 | 0.00 | 99 | 1010.2 |
| 20260509123026 | 75 | 261 | 1.0 | 2.0 | 0.00 | 0.00 | 0.00 | 99 | 1010.1 |
| 20260509122926 | 74 | 267 | 1.0 | 2.0 | 0.00 | 0.00 | 0.00 | 99 | 1010.1 |
| 20260509122826 | 74 | 247 | 1.0 | 2.0 | 0.00 | 0.00 | 0.00 | 99 | 1010.1 |
| 20260509122756 | 74 | 247 | 1.0 | 2.0 | 0.00 | 0.00 | 0.00 | 99 | 1010.1 |
| 20260509122727 | 74 | 228 | 1.0 | 2.0 | 0.00 | 0.00 | 0.00 | 99 | 1010.0 |
| 20260509122626 | 74 | 282 | 1.0 | 2.0 | 0.00 | 0.00 | 0.00 | 99 | 1010.0 |
| 20260509122526 | 74 | 269 | 1.0 | 2.0 | 0.00 | 0.00 | 0.00 | 99 | 1010.0 |
| 20260509122427 | 74 | 228 | 1.0 | 2.0 | 0.00 | 0.00 | 0.00 | 99 | 1010.0 |
| 20260509122326 | 74 | 260 | 1.0 | 2.0 | 0.00 | 0.00 | 0.00 | 99 | 1009.9 |
| 20260509122256 | 74 | 268 | 1.0 | 2.0 | 0.00 | 0.00 | 0.00 | 99 | 1009.9 |
| 20260509122226 | 74 | 250 | 0.0 | 2.0 | 0.00 | 0.00 | 0.00 | 99 | 1009.9 |
| 20260509122057 | 74 | 255 | 0.0 | 1.0 | 0.00 | 0.00 | 0.00 | 99 | 1009.9 |
| 20260509121959 | 74 | 230 | 0.0 | 1.0 | 0.00 | 0.00 | 0.00 | 99 | 1010.0 |
| 20260509121946 | 74 | 0 | 0.0 | 1.0 | 0.00 | 0.00 | 0.00 | 99 | 1010.0 |
| 20260509121858 | 74 | 256 | 0.0 | 1.0 | 0.00 | 0.00 | 0.00 | 99 | 1010.0 |
| 20260509121827 | 74 | 207 | 0.0 | 1.0 | 0.00 | 0.00 | 0.00 | 99 | 1010.0 |
| 20260509121658 | 74 | 0 | 0.0 | 1.0 | 0.00 | 0.00 | 0.00 | 99 | 1010.0 |
| 20260509121608 | 74 | 0 | 0.0 | 1.0 | 0.00 | 0.00 | 0.00 | 99 | 1010.0 |
| 20260509121443 | 74 | 0 | 0.0 | 1.0 | 0.00 | 0.00 | 0.00 | 99 | 1010.0 |
| 20260509121353 | 74 | 0 | 0.0 | 1.0 | 0.00 | 0.00 | 0.00 | 99 | 1010.0 |
| 20260509121347 | 74 | 0 | 0.0 | 1.0 | 0.00 | 0.00 | 0.00 | 99 | 1010.0 |
| 20260509121127 | 74 | 54 | 0.0 | 1.0 | 0.00 | 0.00 | 0.00 | 99 | 1010.0 |
| 20260509121026 | 74 | 160 | 0.0 | 1.0 | 0.00 | 0.00 | 0.00 | 99 | 1010.0 |
| 20260509120949 | 74 | 0 | 0.0 | 1.0 | 0.00 | 0.00 | 0.00 | 99 | 1010.0 |
| 20260509120926 | 74 | 263 | 0.0 | 1.0 | 0.00 | 0.00 | 0.00 | 99 | 1010.0 |
| 20260509120836 | 74 | 124 | 0.0 | 1.0 | 0.00 | 0.00 | 0.00 | 99 | 1010.0 |
| 20260509120831 | 74 | 0 | 0.0 | 1.0 | 0.00 | 0.00 | 0.00 | 99 | 1010.0 |
| 20260509120613 | 74 | 252 | 0.0 | 1.0 | 0.00 | 0.00 | 0.00 | 99 | 1010.0 |
| 20260509120458 | 74 | 157 | 0.0 | 1.0 | 0.00 | 0.00 | 0.00 | 99 | 1010.0 |
| 20260509120328 | 74 | 235 | 0.0 | 1.0 | 0.00 | 0.00 | 0.00 | 99 | 1010.0 |
| 20260509120229 | 74 | 230 | 0.0 | 1.0 | 0.00 | 0.00 | 0.00 | 99 | 1010.0 |
| 20260509120212 | 74 | 147 | 0.0 | 1.0 | 0.00 | 0.00 | 0.00 | 99 | 1009.9 |
| 20260509120128 | 74 | 164 | 0.0 | 1.0 | 0.00 | 0.00 | 0.00 | 99 | 1009.9 |
| 20260509120027 | 74 | 0 | 0.0 | 1.0 | 0.00 | 0.00 | 0.00 | 99 | 1009.9 |
| 20260509115928 | 74 | 343 | 0.0 | 1.0 | 0.00 | 0.00 | 0.00 | 99 | 1009.9 |
| 20260509115827 | 74 | 101 | 1.0 | 1.0 | 0.00 | 0.00 | 0.00 | 99 | 1009.9 |
| 20260509115713 | 74 | 101 | 1.0 | 1.0 | 0.00 | 0.00 | 0.00 | 99 | 1010.0 |
| 20260509115612 | 74 | 0 | 1.0 | 1.0 | 0.00 | 0.00 | 0.00 | 99 | 1010.0 |
| 20260509115459 | 74 | 3 | 1.0 | 2.0 | 0.00 | 0.00 | 0.00 | 99 | 1010.0 |
| 20260509115358 | 74 | 55 | 1.0 | 2.0 | 0.00 | 0.00 | 0.00 | 99 | 1010.0 |
| 20260509115258 | 74 | 40 | 1.0 | 2.0 | 0.00 | 0.00 | 0.00 | 99 | 1010.0 |
| 20260509115212 | 74 | 46 | 1.0 | 2.0 | 0.00 | 0.00 | 0.00 | 99 | 1009.9 |
| 20260509115158 | 74 | 27 | 1.0 | 2.0 | 0.00 | 0.00 | 0.00 | 99 | 1009.9 |
| 20260509115043 | 74 | 328 | 1.0 | 2.0 | 0.00 | 0.00 | 0.00 | 99 | 1009.9 |
| 20260509114928 | 74 | 8 | 1.0 | 2.0 | 0.00 | 0.00 | 0.00 | 99 | 1009.9 |
| 20260509114827 | 74 | 20 | 1.0 | 2.0 | 0.00 | 0.00 | 0.00 | 99 | 1009.8 |
| 20260509114727 | 74 | 11 | 1.0 | 2.0 | 0.00 | 0.00 | 0.00 | 99 | 1009.8 |
| 20260509114658 | 74 | 348 | 1.0 | 2.0 | 0.00 | 0.00 | 0.00 | 99 | 1009.8 |
| 20260509114627 | 74 | 349 | 1.0 | 2.0 | 0.00 | 0.00 | 0.00 | 99 | 1009.7 |
| 20260509114527 | 74 | 350 | 1.0 | 2.0 | 0.00 | 0.00 | 0.00 | 99 | 1009.7 |
| 20260509114427 | 74 | 3 | 1.0 | 2.0 | 0.00 | 0.00 | 0.00 | 99 | 1009.7 |
| 20260509114327 | 74 | 13 | 1.0 | 2.0 | 0.00 | 0.00 | 0.00 | 99 | 1009.7 |
| 20260509114228 | 74 | 18 | 1.0 | 2.0 | 0.00 | 0.00 | 0.00 | 99 | 1009.6 |
| 20260509114157 | 74 | 6 | 1.0 | 2.0 | 0.00 | 0.00 | 0.00 | 99 | 1009.6 |
| 20260509114127 | 74 | 26 | 0.0 | 2.0 | 0.00 | 0.00 | 0.00 | 99 | 1009.6 |
| 20260509114027 | 74 | 0 | 0.0 | 1.0 | 0.00 | 0.00 | 0.00 | 99 | 1009.6 |
| 20260509113914 | 74 | 0 | 0.0 | 1.0 | 0.00 | 0.00 | 0.00 | 99 | 1009.6 |
| 20260509113813 | 74 | 90 | 0.0 | 1.0 | 0.00 | 0.00 | 0.00 | 99 | 1009.6 |
| 20260509113714 | 74 | 62 | 0.0 | 1.0 | 0.00 | 0.00 | 0.00 | 99 | 1009.6 |
| 20260509113657 | 74 | 90 | 0.0 | 1.0 | 0.00 | 0.00 | 0.00 | 99 | 1009.6 |
| 20260509113613 | 74 | 46 | 0.0 | 1.0 | 0.00 | 0.00 | 0.00 | 99 | 1009.6 |
| 20260509113514 | 74 | 357 | 0.0 | 1.0 | 0.00 | 0.00 | 0.00 | 99 | 1009.6 |
| 20260509113420 | 74 | 0 | 0.0 | 1.0 | 0.00 | 0.00 | 0.00 | 99 | 1009.7 |
| 20260509113358 | 74 | 122 | 0.0 | 1.0 | 0.00 | 0.00 | 0.00 | 99 | 1009.6 |
| 20260509113308 | 74 | 0 | 0.0 | 1.0 | 0.00 | 0.00 | 0.00 | 99 | 1009.7 |
| 20260509113303 | 74 | 0 | 0.0 | 1.0 | 0.00 | 0.00 | 0.00 | 99 | 1009.7 |
| 20260509113059 | 74 | 0 | 0.0 | 1.0 | 0.00 | 0.00 | 0.00 | 99 | 1009.7 |
| 20260509112943 | 74 | 0 | 0.0 | 1.0 | 0.00 | 0.00 | 0.00 | 99 | 1009.7 |
| 20260509112845 | 74 | 177 | 0.0 | 1.0 | 0.00 | 0.00 | 0.00 | 99 | 1009.7 |
| 20260509112744 | 74 | 0 | 0.0 | 1.0 | 0.00 | 0.00 | 0.00 | 99 | 1009.6 |
| 20260509112658 | 74 | 239 | 0.0 | 1.0 | 0.00 | 0.00 | 0.00 | 99 | 1009.6 |
| 20260509112627 | 74 | 0 | 0.0 | 1.0 | 0.00 | 0.00 | 0.00 | 99 | 1009.6 |
| 20260509112514 | 74 | 122 | 0.0 | 1.0 | 0.00 | 0.00 | 0.00 | 99 | 1009.6 |
| 20260509112413 | 74 | 0 | 0.0 | 1.0 | 0.00 | 0.00 | 0.00 | 99 | 1009.5 |
| 20260509112313 | 74 | 14 | 0.0 | 1.0 | 0.00 | 0.00 | 0.00 | 99 | 1009.5 |
| 20260509112213 | 74 | 330 | 0.0 | 1.0 | 0.00 | 0.00 | 0.00 | 99 | 1009.5 |
| 20260509112142 | 74 | 330 | 0.0 | 1.0 | 0.00 | 0.00 | 0.00 | 99 | 1009.5 |
| 20260509112058 | 74 | 16 | 0.0 | 1.0 | 0.00 | 0.00 | 0.00 | 99 | 1009.5 |
| 20260509111959 | 74 | 33 | 0.0 | 1.0 | 0.00 | 0.00 | 0.00 | 99 | 1009.5 |
| 20260509111844 | 74 | 29 | 0.0 | 1.0 | 0.00 | 0.00 | 0.00 | 99 | 1009.5 |
| 20260509111728 | 74 | 0 | 0.0 | 1.0 | 0.00 | 0.00 | 0.00 | 99 | 1009.5 |
| 20260509111642 | 74 | 258 | 0.0 | 1.0 | 0.00 | 0.00 | 0.00 | 99 | 1009.5 |
| 20260509111627 | 74 | 0 | 0.0 | 1.0 | 0.00 | 0.00 | 0.00 | 99 | 1009.5 |
| 20260509111513 | 74 | 0 | 0.0 | 1.0 | 0.00 | 0.00 | 0.00 | 99 | 1009.6 |
| 20260509111359 | 74 | 295 | 0.0 | 1.0 | 0.00 | 0.00 | 0.00 | 99 | 1009.6 |
| 20260509111352 | 74 | 0 | 0.0 | 1.0 | 0.00 | 0.00 | 0.00 | 99 | 1009.7 |
| 20260509111259 | 74 | 0 | 0.0 | 1.0 | 0.00 | 0.00 | 0.00 | 99 | 1009.7 |
| 20260509111233 | 74 | 158 | 0.0 | 1.0 | 0.00 | 0.00 | 0.00 | 99 | 1009.7 |
| 20260509111044 | 74 | 249 | 0.0 | 1.0 | 0.00 | 0.00 | 0.00 | 99 | 1009.7 |
| 20260509110944 | 74 | 280 | 0.0 | 1.0 | 0.00 | 0.00 | 0.00 | 99 | 1009.7 |
| 20260509110827 | 74 | 359 | 0.0 | 1.0 | 0.00 | 0.00 | 0.00 | 99 | 1009.7 |
| 20260509110727 | 74 | 3 | 0.0 | 1.0 | 0.00 | 0.00 | 0.00 | 99 | 1009.7 |
| 20260509110628 | 74 | 349 | 0.0 | 1.0 | 0.00 | 0.00 | 0.00 | 99 | 1009.7 |
| 20260509110528 | 74 | 268 | 0.0 | 1.0 | 0.00 | 0.00 | 0.00 | 99 | 1009.8 |
| 20260509110428 | 74 | 281 | 0.0 | 1.0 | 0.00 | 0.00 | 0.00 | 99 | 1009.7 |
| 20260509110347 | 74 | 320 | 0.0 | 1.0 | 0.00 | 0.00 | 0.00 | 99 | 1009.7 |
| 20260509110327 | 74 | 329 | 0.0 | 1.0 | 0.00 | 0.00 | 0.00 | 99 | 1009.7 |
| 20260509110237 | 74 | 326 | 0.0 | 1.0 | 0.00 | 0.00 | 0.00 | 99 | 1009.7 |
| 20260509110231 | 74 | 320 | 0.0 | 1.0 | 0.00 | 0.00 | 0.00 | 99 | 1009.7 |
| 20260509110027 | 74 | 342 | 0.0 | 1.0 | 0.00 | 0.00 | 0.00 | 99 | 1009.7 |
| 20260509105927 | 74 | 0 | 0.0 | 1.0 | 0.00 | 0.00 | 0.00 | 99 | 1009.6 |
| 20260509105828 | 74 | 328 | 0.0 | 1.0 | 0.00 | 0.00 | 0.00 | 99 | 1009.5 |
| 20260509105728 | 74 | 0 | 0.0 | 1.0 | 0.00 | 0.00 | 0.00 | 99 | 1009.4 |
| 20260509105627 | 74 | 0 | 0.0 | 1.0 | 0.00 | 0.00 | 0.00 | 99 | 1009.4 |
| 20260509105527 | 74 | 226 | 0.0 | 1.0 | 0.00 | 0.00 | 0.00 | 99 | 1009.3 |
| 20260509105415 | 74 | 296 | 0.0 | 1.0 | 0.00 | 0.00 | 0.00 | 99 | 1009.3 |
| 20260509105314 | 74 | 343 | 0.0 | 1.0 | 0.00 | 0.00 | 0.00 | 99 | 1009.3 |
| 20260509105214 | 74 | 17 | 0.0 | 1.0 | 0.00 | 0.00 | 0.00 | 99 | 1009.3 |
| 20260509105113 | 74 | 18 | 0.0 | 1.0 | 0.00 | 0.00 | 0.00 | 99 | 1009.3 |
| 20260509105059 | 74 | 13 | 0.0 | 1.0 | 0.00 | 0.00 | 0.00 | 99 | 1009.3 |
| 20260509104959 | 74 | 0 | 0.0 | 1.0 | 0.00 | 0.00 | 0.00 | 99 | 1009.3 |
| 20260509104859 | 74 | 79 | 0.0 | 1.0 | 0.00 | 0.00 | 0.00 | 99 | 1009.3 |
| 20260509104759 | 74 | 0 | 0.0 | 1.0 | 0.00 | 0.00 | 0.00 | 99 | 1009.3 |
| 20260509104644 | 74 | 0 | 0.0 | 1.0 | 0.00 | 0.00 | 0.00 | 99 | 1009.3 |
| 20260509104613 | 74 | 136 | 0.0 | 1.0 | 0.00 | 0.00 | 0.00 | 99 | 1009.3 |
| 20260509104529 | 74 | 136 | 0.0 | 1.0 | 0.00 | 0.00 | 0.00 | 99 | 1009.3 |
| 20260509104429 | 74 | 279 | 0.0 | 1.0 | 0.00 | 0.00 | 0.00 | 99 | 1009.3 |
| 20260509104328 | 74 | 357 | 0.0 | 1.0 | 0.00 | 0.00 | 0.00 | 99 | 1009.3 |
| 20260509104228 | 74 | 2 | 0.0 | 1.0 | 0.00 | 0.00 | 0.00 | 99 | 1009.2 |
| 20260509104115 | 74 | 350 | 0.0 | 1.0 | 0.00 | 0.00 | 0.00 | 99 | 1009.1 |
| 20260509104013 | 74 | 0 | 0.0 | 1.0 | 0.00 | 0.00 | 0.00 | 99 | 1009.1 |
| 20260509103914 | 74 | 339 | 0.0 | 1.0 | 0.00 | 0.00 | 0.00 | 99 | 1009.1 |
| 20260509103814 | 74 | 275 | 0.0 | 1.0 | 0.00 | 0.00 | 0.00 | 99 | 1009.1 |
| 20260509103714 | 74 | 345 | 0.0 | 1.0 | 0.00 | 0.00 | 0.00 | 99 | 1009.1 |
| 20260509103615 | 74 | 357 | 0.0 | 1.0 | 0.00 | 0.00 | 0.00 | 99 | 1009.1 |
| 20260509103514 | 74 | 342 | 0.0 | 1.0 | 0.00 | 0.00 | 0.00 | 99 | 1009.1 |
| 20260509103359 | 74 | 0 | 0.0 | 1.0 | 0.00 | 0.00 | 0.00 | 99 | 1009.2 |
| 20260509103259 | 74 | 0 | 0.0 | 1.0 | 0.00 | 0.00 | 0.00 | 99 | 1009.2 |
| 20260509103144 | 74 | 91 | 0.0 | 1.0 | 0.00 | 0.00 | 0.00 | 99 | 1009.2 |
| 20260509103058 | 74 | 335 | 0.0 | 1.0 | 0.00 | 0.00 | 0.00 | 99 | 1009.2 |
| 20260509103044 | 74 | 340 | 0.0 | 1.0 | 0.00 | 0.00 | 0.00 | 99 | 1009.2 |
| 20260509102945 | 74 | 318 | 0.0 | 1.0 | 0.00 | 0.00 | 0.00 | 99 | 1009.2 |
| 20260509102844 | 74 | 314 | 0.0 | 1.0 | 0.00 | 0.00 | 0.00 | 99 | 1009.2 |
| 20260509102644 | 74 | 0 | 0.0 | 1.0 | 0.00 | 0.00 | 0.00 | 99 | 1009.2 |
| 20260509102558 | 74 | 326 | 0.0 | 1.0 | 0.00 | 0.00 | 0.00 | 99 | 1009.3 |
| 20260509102530 | 74 | 358 | 0.0 | 1.0 | 0.00 | 0.00 | 0.00 | 99 | 1009.3 |
| 20260509102429 | 74 | 0 | 0.0 | 1.0 | 0.00 | 0.00 | 0.00 | 99 | 1009.3 |
| 20260509102328 | 74 | 263 | 0.0 | 1.0 | 0.00 | 0.00 | 0.00 | 99 | 1009.3 |
| 20260509102228 | 74 | 264 | 0.0 | 1.0 | 0.00 | 0.00 | 0.00 | 99 | 1009.3 |
| 20260509102129 | 74 | 306 | 0.0 | 1.0 | 0.00 | 0.00 | 0.00 | 99 | 1009.3 |
| 20260509102058 | 74 | 306 | 0.0 | 1.0 | 0.00 | 0.00 | 0.00 | 99 | 1009.3 |
| 20260509102028 | 74 | 31 | 0.0 | 1.0 | 0.00 | 0.00 | 0.00 | 99 | 1009.3 |
| 20260509101914 | 74 | 268 | 0.0 | 1.0 | 0.00 | 0.00 | 0.00 | 99 | 1009.3 |
| 20260509101814 | 74 | 107 | 0.0 | 1.0 | 0.00 | 0.00 | 0.00 | 99 | 1009.4 |
| 20260509101715 | 74 | 319 | 0.0 | 1.0 | 0.00 | 0.00 | 0.00 | 99 | 1009.4 |
| 20260509101615 | 74 | 165 | 0.0 | 1.0 | 0.00 | 0.00 | 0.00 | 99 | 1009.4 |
| 20260509101559 | 74 | 261 | 0.0 | 1.0 | 0.00 | 0.00 | 0.00 | 99 | 1009.4 |
| 20260509101514 | 74 | 0 | 0.0 | 1.0 | 0.00 | 0.00 | 0.00 | 99 | 1009.3 |
| 20260509101414 | 74 | 246 | 0.0 | 1.0 | 0.00 | 0.00 | 0.00 | 99 | 1009.3 |
| 20260509101315 | 74 | 0 | 0.0 | 1.0 | 0.00 | 0.00 | 0.00 | 99 | 1009.2 |
| 20260509101200 | 74 | 0 | 1.0 | 1.0 | 0.00 | 0.00 | 0.00 | 99 | 1009.1 |
| 20260509101059 | 74 | 235 | 1.0 | 1.0 | 0.00 | 0.00 | 0.00 | 99 | 1009.1 |
| 20260509100959 | 74 | 85 | 1.0 | 1.0 | 0.00 | 0.00 | 0.00 | 99 | 1009.0 |
| 20260509100900 | 74 | 321 | 1.0 | 1.0 | 0.00 | 0.00 | 0.00 | 99 | 1009.0 |
| 20260509100745 | 74 | 348 | 1.0 | 1.0 | 0.00 | 0.00 | 0.00 | 99 | 1009.1 |
| 20260509100645 | 74 | 31 | 1.0 | 1.0 | 0.00 | 0.00 | 0.00 | 99 | 1009.1 |
| 20260509100545 | 74 | 337 | 0.0 | 1.0 | 0.00 | 0.00 | 0.00 | 99 | 1009.1 |
| 20260509100429 | 74 | 175 | 1.0 | 1.0 | 0.00 | 0.00 | 0.00 | 99 | 1009.2 |
| 20260509100328 | 74 | 313 | 1.0 | 1.0 | 0.00 | 0.00 | 0.00 | 99 | 1009.2 |
| 20260509100228 | 74 | 276 | 1.0 | 1.0 | 0.00 | 0.00 | 0.00 | 99 | 1009.2 |
| 20260509100128 | 74 | 290 | 1.0 | 1.0 | 0.00 | 0.00 | 0.00 | 99 | 1009.2 |
| 20260509100014 | 74 | 241 | 1.0 | 2.0 | 0.00 | 0.00 | 0.00 | 99 | 1009.2 |
| 20260509095915 | 74 | 72 | 1.0 | 2.0 | 0.00 | 0.00 | 0.00 | 99 | 1009.2 |
| 20260509095800 | 74 | 310 | 1.0 | 2.0 | 0.00 | 0.00 | 0.00 | 99 | 1009.2 |
| 20260509095701 | 74 | 324 | 1.0 | 2.0 | 0.00 | 0.00 | 0.00 | 99 | 1009.1 |
| 20260509095600 | 74 | 0 | 1.0 | 2.0 | 0.00 | 0.00 | 0.00 | 99 | 1009.0 |
| 20260509095527 | 74 | 290 | 1.0 | 2.0 | 0.00 | 0.00 | 0.00 | 99 | 1009.0 |
| 20260509095430 | 74 | 322 | 1.0 | 2.0 | 0.00 | 0.00 | 0.00 | 99 | 1009.0 |
| 20260509095330 | 74 | 353 | 1.0 | 2.0 | 0.00 | 0.00 | 0.00 | 99 | 1009.0 |
| 20260509095230 | 74 | 8 | 0.0 | 2.0 | 0.00 | 0.00 | 0.00 | 99 | 1009.0 |
| 20260509095130 | 74 | 6 | 0.0 | 2.0 | 0.00 | 0.00 | 0.00 | 99 | 1009.0 |
| 20260509095013 | 74 | 336 | 0.0 | 2.0 | 0.00 | 0.00 | 0.00 | 99 | 1009.1 |
| 20260509094929 | 74 | 356 | 0.0 | 1.0 | 0.00 | 0.00 | 0.00 | 99 | 1009.1 |
| 20260509094815 | 74 | 0 | 0.0 | 1.0 | 0.00 | 0.00 | 0.00 | 99 | 1009.1 |
| 20260509094700 | 74 | 0 | 0.0 | 1.0 | 0.00 | 0.00 | 0.00 | 99 | 1009.1 |
| 20260509094544 | 74 | 338 | 0.0 | 1.0 | 0.00 | 0.00 | 0.00 | 99 | 1009.1 |
| 20260509094458 | 74 | 312 | 0.0 | 1.0 | 0.00 | 0.00 | 0.00 | 99 | 1009.1 |
| 20260509094429 | 74 | 0 | 0.0 | 1.0 | 0.00 | 0.00 | 0.00 | 99 | 1009.1 |
| 20260509094315 | 74 | 203 | 0.0 | 1.0 | 0.00 | 0.00 | 0.00 | 99 | 1009.1 |
| 20260509094200 | 74 | 248 | 0.0 | 1.0 | 0.00 | 0.00 | 0.00 | 99 | 1009.1 |
| 20260509094030 | 74 | 127 | 0.0 | 1.0 | 0.00 | 0.00 | 0.00 | 99 | 1009.1 |
| 20260509093930 | 74 | 334 | 0.0 | 1.0 | 0.00 | 0.00 | 0.00 | 99 | 1009.1 |
| 20260509093829 | 74 | 298 | 0.0 | 1.0 | 0.00 | 0.00 | 0.00 | 99 | 1009.0 |
| 20260509093728 | 74 | 0 | 0.0 | 1.0 | 0.00 | 0.00 | 0.00 | 99 | 1009.0 |
| 20260509093629 | 74 | 277 | 0.0 | 1.0 | 0.00 | 0.00 | 0.00 | 99 | 1009.0 |
| 20260509093529 | 74 | 254 | 0.0 | 1.0 | 0.00 | 0.00 | 0.00 | 99 | 1009.0 |
| 20260509093429 | 74 | 230 | 0.0 | 1.0 | 0.00 | 0.00 | 0.00 | 99 | 1009.0 |
| 20260509093329 | 74 | 0 | 0.0 | 1.0 | 0.00 | 0.00 | 0.00 | 99 | 1009.0 |
| 20260509093228 | 74 | 0 | 0.0 | 1.0 | 0.00 | 0.00 | 0.00 | 99 | 1009.0 |
| 20260509093129 | 74 | 157 | 0.0 | 1.0 | 0.00 | 0.00 | 0.00 | 99 | 1009.0 |
| 20260509093029 | 74 | 191 | 0.0 | 1.0 | 0.00 | 0.00 | 0.00 | 99 | 1008.9 |
| 20260509092929 | 74 | 264 | 0.0 | 1.0 | 0.00 | 0.00 | 0.00 | 99 | 1008.9 |
| 20260509092828 | 74 | 254 | 0.0 | 1.0 | 0.00 | 0.00 | 0.00 | 99 | 1008.8 |
| 20260509092729 | 74 | 0 | 0.0 | 1.0 | 0.00 | 0.00 | 0.00 | 99 | 1008.8 |
| 20260509092629 | 74 | 0 | 0.0 | 1.0 | 0.00 | 0.00 | 0.00 | 99 | 1008.7 |
| 20260509092529 | 74 | 0 | 0.0 | 1.0 | 0.00 | 0.00 | 0.00 | 99 | 1008.7 |
| 20260509092429 | 74 | 0 | 0.0 | 2.0 | 0.00 | 0.00 | 0.00 | 99 | 1008.7 |
| 20260509092328 | 74 | 3 | 0.0 | 2.0 | 0.00 | 0.00 | 0.00 | 99 | 1008.7 |
| 20260509092229 | 74 | 287 | 0.0 | 2.0 | 0.00 | 0.00 | 0.00 | 99 | 1008.7 |
| 20260509092129 | 74 | 0 | 0.0 | 2.0 | 0.00 | 0.00 | 0.00 | 99 | 1008.7 |
| 20260509092029 | 73 | 254 | 0.0 | 2.0 | 0.00 | 0.00 | 0.00 | 99 | 1008.7 |
| 20260509091915 | 73 | 0 | 0.0 | 2.0 | 0.00 | 0.00 | 0.00 | 99 | 1008.6 |
| 20260509091746 | 73 | 172 | 0.0 | 2.0 | 0.00 | 0.00 | 0.00 | 99 | 1008.6 |
| 20260509091652 | 73 | 281 | 0.0 | 2.0 | 0.00 | 0.00 | 0.00 | 99 | 1008.6 |
| 20260509091630 | 73 | 117 | 1.0 | 2.0 | 0.00 | 0.00 | 0.00 | 99 | 1008.6 |
| 20260509091538 | 73 | 275 | 0.0 | 2.0 | 0.00 | 0.00 | 0.00 | 99 | 1008.6 |
| 20260509091533 | 73 | 281 | 0.0 | 2.0 | 0.00 | 0.00 | 0.00 | 99 | 1008.6 |
| 20260509091329 | 73 | 347 | 0.0 | 2.0 | 0.00 | 0.00 | 0.00 | 99 | 1008.6 |
| 20260509091229 | 73 | 0 | 1.0 | 2.0 | 0.00 | 0.00 | 0.00 | 99 | 1008.6 |
| 20260509091154 | 73 | 265 | 1.0 | 2.0 | 0.00 | 0.00 | 0.00 | 99 | 1008.6 |
| 20260509091129 | 73 | 0 | 1.0 | 2.0 | 0.00 | 0.00 | 0.00 | 99 | 1008.6 |
| 20260509091039 | 73 | 239 | 1.0 | 2.0 | 0.00 | 0.00 | 0.00 | 99 | 1008.6 |
| 20260509091034 | 73 | 265 | 1.0 | 2.0 | 0.00 | 0.00 | 0.00 | 99 | 1008.6 |
| 20260509090816 | 73 | 20 | 1.0 | 2.0 | 0.00 | 0.00 | 0.00 | 99 | 1008.6 |
| 20260509090716 | 73 | 155 | 0.0 | 1.0 | 0.00 | 0.00 | 0.00 | 99 | 1008.6 |
| 20260509090601 | 73 | 359 | 0.0 | 1.0 | 0.00 | 0.00 | 0.00 | 99 | 1008.7 |
| 20260509090421 | 73 | 0 | 0.0 | 1.0 | 0.00 | 0.00 | 0.00 | 99 | 1008.7 |
| 20260509090416 | 73 | 41 | 0.0 | 1.0 | 0.00 | 0.00 | 0.00 | 99 | 1008.7 |
| 20260509090301 | 73 | 254 | 0.0 | 1.0 | 0.00 | 0.00 | 0.00 | 99 | 1008.7 |
| 20260509090146 | 73 | 357 | 0.0 | 1.0 | 0.00 | 0.00 | 0.00 | 99 | 1008.7 |
| 20260509090039 | 73 | 281 | 0.0 | 1.0 | 0.00 | 0.00 | 0.00 | 99 | 1008.7 |
| 20260509090033 | 73 | 0 | 0.0 | 1.0 | 0.00 | 0.00 | 0.00 | 99 | 1008.7 |
| 20260509085830 | 73 | 29 | 0.0 | 1.0 | 0.00 | 0.00 | 0.00 | 99 | 1008.7 |
| 20260509085730 | 73 | 339 | 1.0 | 1.0 | 0.00 | 0.00 | 0.00 | 99 | 1008.7 |
| 20260509085616 | 73 | 327 | 1.0 | 2.0 | 0.00 | 0.00 | 0.00 | 99 | 1008.6 |
| 20260509085517 | 73 | 285 | 1.0 | 2.0 | 0.00 | 0.00 | 0.00 | 99 | 1008.6 |
| 20260509085416 | 73 | 326 | 1.0 | 2.0 | 0.00 | 0.00 | 0.00 | 99 | 1008.6 |
| 20260509085300 | 73 | 328 | 1.0 | 2.0 | 0.00 | 0.00 | 0.00 | 99 | 1008.5 |
| 20260509085201 | 73 | 341 | 1.0 | 2.0 | 0.00 | 0.00 | 0.00 | 99 | 1008.5 |
| 20260509085101 | 73 | 296 | 1.0 | 2.0 | 0.00 | 0.00 | 0.00 | 99 | 1008.5 |
| 20260509085001 | 73 | 270 | 1.0 | 2.0 | 0.00 | 0.00 | 0.00 | 99 | 1008.4 |
| 20260509084915 | 73 | 318 | 1.0 | 2.0 | 0.00 | 0.00 | 0.00 | 99 | 1008.4 |
| 20260509084901 | 73 | 286 | 1.0 | 2.0 | 0.00 | 0.00 | 0.00 | 99 | 1008.4 |
| 20260509084746 | 73 | 316 | 1.0 | 2.0 | 0.00 | 0.00 | 0.00 | 99 | 1008.4 |
| 20260509084646 | 73 | 2 | 1.0 | 2.0 | 0.00 | 0.00 | 0.00 | 99 | 1008.4 |
| 20260509084546 | 73 | 351 | 1.0 | 2.0 | 0.00 | 0.00 | 0.00 | 99 | 1008.5 |
| 20260509084446 | 73 | 275 | 0.0 | 1.0 | 0.00 | 0.00 | 0.00 | 99 | 1008.5 |
| 20260509084414 | 73 | 5 | 0.0 | 1.0 | 0.00 | 0.00 | 0.00 | 99 | 1008.5 |
| 20260509084329 | 73 | 12 | 0.0 | 1.0 | 0.00 | 0.00 | 0.00 | 99 | 1008.5 |
| 20260509084230 | 73 | 29 | 0.0 | 1.0 | 0.00 | 0.00 | 0.00 | 99 | 1008.5 |
| 20260509084130 | 73 | 356 | 0.0 | 1.0 | 0.00 | 0.00 | 0.00 | 99 | 1008.5 |
| 20260509084030 | 73 | 2 | 0.0 | 1.0 | 0.00 | 0.00 | 0.00 | 99 | 1008.6 |
| 20260509083916 | 73 | 27 | 1.0 | 1.0 | 0.00 | 0.00 | 0.00 | 99 | 1008.6 |
| 20260509083816 | 73 | 17 | 1.0 | 1.0 | 0.00 | 0.00 | 0.00 | 99 | 1008.6 |
| 20260509083701 | 73 | 0 | 1.0 | 1.0 | 0.00 | 0.00 | 0.00 | 99 | 1008.6 |
| 20260509083601 | 73 | 355 | 1.0 | 1.0 | 0.00 | 0.00 | 0.00 | 99 | 1008.6 |
| 20260509083501 | 73 | 5 | 1.0 | 2.0 | 0.00 | 0.00 | 0.00 | 99 | 1008.6 |
| 20260509083414 | 73 | 87 | 1.0 | 2.0 | 0.00 | 0.00 | 0.00 | 99 | 1008.6 |
| 20260509083401 | 73 | 87 | 1.0 | 2.0 | 0.00 | 0.00 | 0.00 | 99 | 1008.6 |
| 20260509083301 | 73 | 2 | 1.0 | 2.0 | 0.00 | 0.00 | 0.00 | 99 | 1008.5 |
| 20260509083201 | 73 | 11 | 1.0 | 2.0 | 0.00 | 0.00 | 0.00 | 99 | 1008.5 |
| 20260509083046 | 73 | 32 | 1.0 | 2.0 | 0.00 | 0.00 | 0.00 | 99 | 1008.5 |
| 20260509082935 | 73 | 17 | 1.0 | 2.0 | 0.00 | 0.00 | 0.00 | 99 | 1008.6 |
| 20260509082910 | 73 | 19 | 1.0 | 2.0 | 0.00 | 0.00 | 0.00 | 99 | 1008.6 |
| 20260509082832 | 73 | 348 | 1.0 | 2.0 | 0.00 | 0.00 | 0.00 | 99 | 1008.6 |
| 20260509082731 | 73 | 0 | 0.0 | 2.0 | 0.00 | 0.00 | 0.00 | 99 | 1008.6 |
| 20260509082632 | 73 | 34 | 0.0 | 2.0 | 0.00 | 0.00 | 0.00 | 99 | 1008.7 |
| 20260509082534 | 73 | 104 | 0.0 | 2.0 | 0.00 | 0.00 | 0.00 | 99 | 1008.7 |
| 20260509082430 | 73 | 75 | 0.0 | 2.0 | 0.00 | 0.00 | 0.00 | 99 | 1008.8 |
| 20260509082409 | 73 | 129 | 0.0 | 2.0 | 0.00 | 0.00 | 0.00 | 99 | 1008.8 |
| 20260509082330 | 73 | 254 | 0.0 | 2.0 | 0.00 | 0.00 | 0.00 | 99 | 1008.8 |
| 20260509082230 | 73 | 49 | 0.0 | 2.0 | 0.00 | 0.00 | 0.00 | 99 | 1008.8 |
| 20260509082130 | 73 | 97 | 0.0 | 2.0 | 0.00 | 0.00 | 0.00 | 99 | 1008.9 |
| 20260509082026 | 73 | 96 | 0.0 | 2.0 | 0.00 | 0.00 | 0.00 | 99 | 1008.9 |
| 20260509081925 | 73 | 0 | 0.0 | 2.0 | 0.00 | 0.00 | 0.00 | 99 | 1008.9 |
| 20260509081906 | 73 | 151 | 0.0 | 2.0 | 0.00 | 0.00 | 0.00 | 99 | 1008.9 |
| 20260509081852 | 73 | 36 | 0.0 | 2.0 | 0.00 | 0.00 | 0.00 | 99 | 1008.9 |
| 20260509081820 | 73 | 290 | 0.0 | 2.0 | 0.00 | 0.00 | 0.00 | 99 | 1008.9 |
| 20260509081730 | 73 | 335 | 0.0 | 2.0 | 0.00 | 0.00 | 0.00 | 99 | 1008.9 |
| 20260509081620 | 73 | 153 | 0.0 | 2.0 | 0.00 | 0.00 | 0.00 | 99 | 1008.9 |
| 20260509081519 | 73 | 271 | 0.0 | 2.0 | 0.00 | 0.00 | 0.00 | 99 | 1008.9 |
| 20260509081509 | 73 | 56 | 0.0 | 2.0 | 0.00 | 0.00 | 0.00 | 99 | 1008.9 |
| 20260509081316 | 73 | 0 | 0.0 | 2.0 | 0.00 | 0.00 | 0.00 | 99 | 1008.9 |
| 20260509081211 | 73 | 89 | 0.0 | 2.0 | 0.00 | 0.00 | 0.00 | 99 | 1008.9 |
| 20260509081108 | 73 | 206 | 0.0 | 2.0 | 0.00 | 0.00 | 0.00 | 99 | 1008.9 |
| 20260509081008 | 73 | 0 | 0.0 | 1.0 | 0.00 | 0.00 | 0.00 | 99 | 1009.0 |
| 20260509080904 | 73 | 147 | 0.0 | 1.0 | 0.00 | 0.00 | 0.00 | 99 | 1009.0 |
| 20260509080807 | 73 | 0 | 0.0 | 1.0 | 0.00 | 0.00 | 0.00 | 99 | 1009.0 |
| 20260509080707 | 73 | 84 | 0.0 | 2.0 | 0.00 | 0.00 | 0.00 | 99 | 1009.0 |
| 20260509080608 | 73 | 229 | 0.0 | 2.0 | 0.00 | 0.00 | 0.00 | 99 | 1009.0 |
| 20260509080508 | 73 | 0 | 0.0 | 2.0 | 0.00 | 0.00 | 0.00 | 99 | 1009.0 |
| 20260509080405 | 73 | 0 | 0.0 | 2.0 | 0.00 | 0.00 | 0.00 | 99 | 1009.0 |
| 20260509080026 | 72 | 0 | 0.0 | 2.0 | 0.00 | 0.00 | 0.00 | 99 | 1009.0 |
| 20260509075920 | 72 | 124 | 0.0 | 2.0 | 0.00 | 0.00 | 0.00 | 99 | 1009.0 |
| 20260509075820 | 72 | 0 | 0.0 | 2.0 | 0.00 | 0.00 | 0.00 | 99 | 1008.9 |
| 20260509075720 | 72 | 104 | 0.0 | 2.0 | 0.00 | 0.00 | 0.00 | 99 | 1008.9 |
| 20260509075619 | 72 | 0 | 0.0 | 1.0 | 0.00 | 0.00 | 0.00 | 99 | 1009.1 |
| 20260509075517 | 72 | 60 | 0.0 | 1.0 | 0.00 | 0.00 | 0.00 | 99 | 1009.1 |
| 20260509075417 | 72 | 206 | 0.0 | 1.0 | 0.00 | 0.00 | 0.00 | 99 | 1009.1 |
| 20260509075329 | 72 | 334 | 0.0 | 1.0 | 0.00 | 0.00 | 0.00 | 99 | 1009.1 |
| 20260509075317 | 72 | 0 | 0.0 | 1.0 | 0.00 | 0.00 | 0.00 | 99 | 1009.1 |
| 20260509075214 | 72 | 0 | 0.0 | 1.0 | 0.00 | 0.00 | 0.00 | 99 | 1009.1 |
| 20260509075114 | 73 | 0 | 0.0 | 1.0 | 0.00 | 0.00 | 0.00 | 99 | 1009.1 |
| 20260509075014 | 73 | 283 | 0.0 | 1.0 | 0.00 | 0.00 | 0.00 | 99 | 1009.2 |
| 20260509074914 | 73 | 337 | 0.0 | 1.0 | 0.00 | 0.00 | 0.00 | 99 | 1009.2 |
| 20260509074814 | 73 | 0 | 0.0 | 1.0 | 0.00 | 0.00 | 0.00 | 99 | 1009.2 |
| 20260509074714 | 73 | 307 | 0.0 | 1.0 | 0.00 | 0.00 | 0.00 | 99 | 1009.2 |
| 20260509074611 | 73 | 0 | 0.0 | 1.0 | 0.00 | 0.00 | 0.00 | 99 | 1009.2 |
| 20260509074511 | 73 | 0 | 0.0 | 1.0 | 0.00 | 0.00 | 0.00 | 99 | 1009.3 |
| 20260509074411 | 72 | 0 | 0.0 | 1.0 | 0.00 | 0.00 | 0.00 | 99 | 1009.3 |
| 20260509074329 | 72 | 0 | 0.0 | 1.0 | 0.00 | 0.00 | 0.00 | 99 | 1009.3 |
| 20260509074308 | 72 | 166 | 0.0 | 1.0 | 0.00 | 0.00 | 0.00 | 99 | 1009.3 |
| 20260509074208 | 72 | 180 | 0.0 | 1.0 | 0.00 | 0.00 | 0.00 | 99 | 1009.4 |
| 20260509074108 | 72 | 0 | 0.0 | 1.0 | 0.00 | 0.00 | 0.00 | 99 | 1009.4 |
| 20260509074002 | 72 | 260 | 0.0 | 1.0 | 0.00 | 0.00 | 0.00 | 99 | 1009.5 |
| 20260509073902 | 72 | 0 | 0.0 | 1.0 | 0.00 | 0.00 | 0.00 | 99 | 1009.5 |
| 20260509073825 | 72 | 0 | 0.0 | 1.0 | 0.00 | 0.00 | 0.00 | 99 | 1009.5 |
| 20260509073803 | 72 | 189 | 0.0 | 1.0 | 0.00 | 0.00 | 0.00 | 99 | 1009.5 |
| 20260509073702 | 72 | 0 | 0.0 | 1.0 | 0.00 | 0.00 | 0.00 | 99 | 1009.5 |
| 20260509073559 | 72 | 0 | 0.0 | 1.0 | 0.00 | 0.00 | 0.00 | 99 | 1009.5 |
| 20260509073457 | 72 | 259 | 0.0 | 1.0 | 0.00 | 0.00 | 0.00 | 99 | 1009.4 |
| 20260509073356 | 72 | 0 | 0.0 | 1.0 | 0.00 | 0.00 | 0.00 | 99 | 1009.4 |
| 20260509073325 | 72 | 37 | 0.0 | 1.0 | 0.00 | 0.00 | 0.00 | 99 | 1009.4 |
| 20260509073253 | 72 | 0 | 0.0 | 1.0 | 0.00 | 0.00 | 0.00 | 99 | 1009.4 |
| 20260509073154 | 72 | 300 | 0.0 | 1.0 | 0.00 | 0.00 | 0.00 | 99 | 1009.4 |
| 20260509073047 | 72 | 74 | 0.0 | 1.0 | 0.00 | 0.00 | 0.00 | 99 | 1009.4 |
| 20260509072944 | 72 | 0 | 0.0 | 1.0 | 0.00 | 0.00 | 0.00 | 99 | 1009.4 |
| 20260509072825 | 72 | 0 | 0.0 | 1.0 | 0.00 | 0.00 | 0.00 | 99 | 1009.5 |
| 20260509072744 | 72 | 163 | 0.0 | 1.0 | 0.00 | 0.00 | 0.00 | 99 | 1009.5 |
| 20260509072641 | 72 | 0 | 0.0 | 2.0 | 0.00 | 0.00 | 0.00 | 99 | 1009.5 |
| 20260509072542 | 72 | 317 | 0.0 | 2.0 | 0.00 | 0.00 | 0.00 | 99 | 1009.5 |
| 20260509072439 | 72 | 316 | 0.0 | 2.0 | 0.00 | 0.00 | 0.00 | 99 | 1009.6 |
| 20260509072338 | 72 | 0 | 0.0 | 2.0 | 0.00 | 0.00 | 0.00 | 99 | 1009.6 |
| 20260509072323 | 72 | 338 | 0.0 | 2.0 | 0.00 | 0.00 | 0.00 | 99 | 1009.6 |
| 20260509072236 | 72 | 186 | 0.0 | 2.0 | 0.00 | 0.00 | 0.00 | 99 | 1009.6 |
| 20260509072135 | 72 | 0 | 0.0 | 2.0 | 0.00 | 0.00 | 0.00 | 99 | 1009.6 |
| 20260509072035 | 72 | 0 | 0.0 | 2.0 | 0.00 | 0.00 | 0.00 | 99 | 1009.6 |
| 20260509071935 | 72 | 291 | 0.0 | 2.0 | 0.00 | 0.00 | 0.00 | 99 | 1009.5 |
| 20260509071833 | 72 | 340 | 0.0 | 2.0 | 0.00 | 0.00 | 0.00 | 99 | 1009.5 |
| 20260509071823 | 73 | 328 | 0.0 | 2.0 | 0.00 | 0.00 | 0.00 | 99 | 1009.5 |
| 20260509071731 | 73 | 306 | 0.0 | 2.0 | 0.00 | 0.00 | 0.00 | 99 | 1009.5 |
| 20260509071631 | 73 | 311 | 0.0 | 1.0 | 0.00 | 0.00 | 0.00 | 99 | 1009.5 |
| 20260509071531 | 73 | 349 | 0.0 | 1.0 | 0.00 | 0.00 | 0.00 | 99 | 1009.4 |
| 20260509071431 | 73 | 0 | 0.0 | 1.0 | 0.00 | 0.00 | 0.00 | 99 | 1009.4 |
| 20260509071323 | 73 | 0 | 0.0 | 1.0 | 0.00 | 0.00 | 0.00 | 99 | 1009.4 |
| 20260509071227 | 73 | 239 | 0.0 | 1.0 | 0.00 | 0.00 | 0.00 | 99 | 1009.4 |
| 20260509071126 | 73 | 145 | 0.0 | 2.0 | 0.00 | 0.00 | 0.00 | 99 | 1009.4 |
| 20260509071024 | 73 | 357 | 0.0 | 2.0 | 0.00 | 0.00 | 0.00 | 99 | 1009.4 |
| 20260509070924 | 73 | 0 | 0.0 | 2.0 | 0.00 | 0.00 | 0.00 | 99 | 1009.5 |
| 20260509070821 | 73 | 272 | 0.0 | 2.0 | 0.00 | 0.00 | 0.00 | 99 | 1009.5 |
| 20260509070721 | 73 | 0 | 0.0 | 2.0 | 0.00 | 0.00 | 0.00 | 99 | 1009.4 |
| 20260509070612 | 73 | 29 | 0.0 | 2.0 | 0.00 | 0.00 | 0.00 | 99 | 1009.4 |
| 20260509070512 | 73 | 0 | 0.0 | 2.0 | 0.00 | 0.00 | 0.00 | 99 | 1009.4 |
| 20260509070411 | 73 | 0 | 0.0 | 2.0 | 0.00 | 0.00 | 0.00 | 99 | 1009.4 |
| 20260509070311 | 73 | 0 | 0.0 | 2.0 | 0.00 | 0.00 | 0.00 | 99 | 1009.4 |
| 20260509070212 | 73 | 0 | 0.0 | 2.0 | 0.00 | 0.00 | 0.00 | 99 | 1009.4 |
| 20260509070109 | 73 | 110 | 0.0 | 2.0 | 0.00 | 0.00 | 0.00 | 99 | 1009.4 |
| 20260509070009 | 73 | 302 | 0.0 | 1.0 | 0.00 | 0.00 | 0.00 | 99 | 1009.4 |
| 20260509065913 | 73 | 272 | 0.0 | 1.0 | 0.00 | 0.00 | 0.00 | 99 | 1009.4 |
| 20260509065909 | 73 | 284 | 0.0 | 1.0 | 0.00 | 0.00 | 0.00 | 99 | 1009.4 |
| 20260509065904 | 73 | 0 | 0.0 | 1.0 | 0.00 | 0.00 | 0.00 | 99 | 1009.4 |
| 20260509065656 | 73 | 71 | 0.0 | 1.0 | 0.00 | 0.00 | 0.00 | 99 | 1009.4 |
| 20260509065554 | 73 | 0 | 0.0 | 1.0 | 0.00 | 0.00 | 0.00 | 99 | 1009.4 |
| 20260509065534 | 73 | 0 | 0.0 | 1.0 | 0.00 | 0.00 | 0.00 | 99 | 1009.3 |
| 20260509065451 | 73 | 0 | 0.0 | 1.0 | 0.00 | 0.00 | 0.00 | 99 | 1009.4 |
| 20260509065419 | 73 | 0 | 0.0 | 1.0 | 0.00 | 0.00 | 0.00 | 99 | 1009.4 |
| 20260509065251 | 73 | 0 | 0.0 | 1.0 | 0.00 | 0.00 | 0.00 | 99 | 1009.3 |
| 20260509065145 | 73 | 161 | 0.0 | 1.0 | 0.00 | 0.00 | 0.00 | 99 | 1009.3 |
| 20260509065044 | 73 | 74 | 0.0 | 1.0 | 0.00 | 0.00 | 0.00 | 99 | 1009.3 |
| 20260509065032 | 73 | 55 | 0.0 | 1.0 | 0.00 | 0.00 | 0.00 | 99 | 1009.3 |
| 20260509064942 | 73 | 0 | 0.0 | 1.0 | 0.00 | 0.00 | 0.00 | 99 | 1009.3 |
| 20260509064916 | 73 | 67 | 0.0 | 1.0 | 0.00 | 0.00 | 0.00 | 99 | 1009.3 |
| 20260509064739 | 73 | 58 | 0.0 | 1.0 | 0.00 | 0.00 | 0.00 | 99 | 1009.3 |
| 20260509064636 | 73 | 108 | 0.0 | 1.0 | 0.00 | 0.00 | 0.00 | 99 | 1009.4 |
| 20260509064533 | 73 | 119 | 0.0 | 1.0 | 0.00 | 0.00 | 0.00 | 99 | 1009.4 |
| 20260509064431 | 73 | 0 | 0.0 | 1.0 | 0.00 | 0.00 | 0.00 | 99 | 1009.4 |
| 20260509064311 | 73 | 0 | 0.0 | 2.0 | 0.00 | 0.00 | 0.00 | 99 | 1009.4 |
| 20260509064227 | 73 | 0 | 0.0 | 2.0 | 0.00 | 0.00 | 0.00 | 99 | 1009.4 |
| 20260509064127 | 73 | 45 | 0.0 | 2.0 | 0.00 | 0.00 | 0.00 | 99 | 1009.4 |
| 20260509064027 | 73 | 257 | 0.0 | 2.0 | 0.00 | 0.00 | 0.00 | 99 | 1009.4 |
| 20260509063927 | 73 | 309 | 0.0 | 2.0 | 0.00 | 0.00 | 0.00 | 99 | 1009.5 |
| 20260509063810 | 73 | 0 | 0.0 | 2.0 | 0.00 | 0.00 | 0.00 | 99 | 1009.5 |
| 20260509063727 | 73 | 0 | 0.0 | 2.0 | 0.00 | 0.00 | 0.00 | 99 | 1009.5 |
| 20260509063627 | 73 | 0 | 0.0 | 2.0 | 0.00 | 0.00 | 0.00 | 99 | 1009.5 |
| 20260509063524 | 73 | 0 | 0.0 | 2.0 | 0.00 | 0.00 | 0.00 | 99 | 1009.5 |
| 20260509063418 | 73 | 238 | 0.0 | 1.0 | 0.00 | 0.00 | 0.00 | 99 | 1009.5 |
| 20260509063311 | 73 | 0 | 0.0 | 1.0 | 0.00 | 0.00 | 0.00 | 99 | 1009.5 |
| 20260509063218 | 73 | 0 | 0.0 | 1.0 | 0.00 | 0.00 | 0.00 | 99 | 1009.6 |
| 20260509063119 | 73 | 202 | 0.0 | 2.0 | 0.00 | 0.00 | 0.00 | 99 | 1009.6 |
| 20260509063018 | 73 | 204 | 0.0 | 2.0 | 0.00 | 0.00 | 0.00 | 99 | 1009.6 |
| 20260509062916 | 73 | 0 | 0.0 | 2.0 | 0.00 | 0.00 | 0.00 | 99 | 1009.7 |
| 20260509062817 | 73 | 0 | 0.0 | 2.0 | 0.00 | 0.00 | 0.00 | 99 | 1009.7 |
| 20260509062811 | 73 | 51 | 0.0 | 2.0 | 0.00 | 0.00 | 0.00 | 99 | 1009.7 |
| 20260509062715 | 73 | 163 | 0.0 | 2.0 | 0.00 | 0.00 | 0.00 | 99 | 1009.7 |
| 20260509062612 | 73 | 0 | 0.0 | 2.0 | 0.00 | 0.00 | 0.00 | 99 | 1009.7 |
| 20260509062512 | 73 | 0 | 0.0 | 2.0 | 0.00 | 0.00 | 0.00 | 99 | 1009.7 |
| 20260509062407 | 73 | 254 | 0.0 | 2.0 | 0.00 | 0.00 | 0.00 | 99 | 1009.6 |
| 20260509062311 | 73 | 0 | 0.0 | 2.0 | 0.00 | 0.00 | 0.00 | 99 | 1009.6 |
| 20260509062254 | 73 | 0 | 0.0 | 2.0 | 0.00 | 0.00 | 0.00 | 99 | 1009.6 |
| 20260509062154 | 73 | 220 | 0.0 | 2.0 | 0.00 | 0.00 | 0.00 | 99 | 1009.6 |
| 20260509062051 | 73 | 146 | 0.0 | 1.0 | 0.00 | 0.00 | 0.00 | 99 | 1009.6 |
| 20260509062036 | 73 | 327 | 0.0 | 1.0 | 0.00 | 0.00 | 0.00 | 99 | 1009.6 |
| 20260509061946 | 73 | 295 | 0.0 | 1.0 | 0.00 | 0.00 | 0.00 | 99 | 1009.6 |
| 20260509061917 | 73 | 0 | 0.0 | 1.0 | 0.00 | 0.00 | 0.00 | 99 | 1009.6 |
| 20260509061733 | 73 | 7 | 0.0 | 1.0 | 0.00 | 0.00 | 0.00 | 99 | 1009.6 |
| 20260509061634 | 73 | 343 | 0.0 | 1.0 | 0.00 | 0.00 | 0.00 | 99 | 1009.6 |
| 20260509061534 | 73 | 154 | 0.0 | 1.0 | 0.00 | 0.00 | 0.00 | 99 | 1009.5 |
| 20260509061432 | 73 | 0 | 0.0 | 1.0 | 0.00 | 0.00 | 0.00 | 99 | 1009.5 |
| 20260509061319 | 73 | 353 | 0.0 | 1.0 | 0.00 | 0.00 | 0.00 | 99 | 1009.5 |
| 20260509061311 | 73 | 316 | 0.0 | 1.0 | 0.00 | 0.00 | 0.00 | 99 | 1009.5 |
| 20260509061218 | 73 | 331 | 0.0 | 1.0 | 0.00 | 0.00 | 0.00 | 99 | 1009.5 |
| 20260509061115 | 74 | 0 | 0.0 | 1.0 | 0.00 | 0.00 | 0.00 | 99 | 1009.4 |
| 20260509061016 | 74 | 256 | 0.0 | 1.0 | 0.00 | 0.00 | 0.00 | 99 | 1009.4 |
| 20260509060913 | 74 | 352 | 0.0 | 1.0 | 0.00 | 0.00 | 0.00 | 99 | 1009.4 |
| 20260509060812 | 74 | 25 | 0.0 | 1.0 | 0.00 | 0.00 | 0.00 | 99 | 1009.4 |
| 20260509060713 | 74 | 348 | 0.0 | 1.0 | 0.00 | 0.00 | 0.00 | 99 | 1009.4 |
| 20260509060612 | 74 | 0 | 0.0 | 1.0 | 0.00 | 0.00 | 0.00 | 99 | 1009.5 |
| 20260509060512 | 74 | 0 | 0.0 | 1.0 | 0.00 | 0.00 | 0.00 | 99 | 1009.5 |
| 20260509060410 | 74 | 298 | 0.0 | 1.0 | 0.00 | 0.00 | 0.00 | 99 | 1009.5 |
| 20260509060313 | 74 | 264 | 0.0 | 1.0 | 0.00 | 0.00 | 0.00 | 99 | 1009.5 |
| 20260509060309 | 74 | 0 | 0.0 | 1.0 | 0.00 | 0.00 | 0.00 | 99 | 1009.5 |
| 20260509060210 | 74 | 65 | 0.0 | 1.0 | 0.00 | 0.00 | 0.00 | 99 | 1009.4 |
| 20260509060100 | 74 | 217 | 0.0 | 1.0 | 0.00 | 0.00 | 0.00 | 99 | 1009.4 |
| 20260509060000 | 74 | 314 | 0.0 | 1.0 | 0.00 | 0.00 | 0.00 | 99 | 1009.4 |
| 20260509055858 | 74 | 63 | 0.0 | 1.0 | 0.00 | 0.00 | 0.00 | 99 | 1009.4 |
| 20260509055809 | 74 | 250 | 0.0 | 1.0 | 0.00 | 0.00 | 0.00 | 99 | 1009.5 |
| 20260509055757 | 74 | 148 | 0.0 | 1.0 | 0.00 | 0.00 | 0.00 | 99 | 1009.5 |
| 20260509055657 | 74 | 0 | 0.0 | 1.0 | 0.00 | 0.00 | 0.00 | 99 | 1009.5 |
| 20260509055557 | 74 | 1 | 0.0 | 1.0 | 0.00 | 0.00 | 0.00 | 99 | 1009.5 |
| 20260509055457 | 74 | 0 | 0.0 | 2.0 | 0.00 | 0.00 | 0.00 | 99 | 1009.5 |
| 20260509055356 | 74 | 39 | 0.0 | 2.0 | 0.00 | 0.00 | 0.00 | 99 | 1009.5 |
| 20260509055307 | 74 | 160 | 0.0 | 2.0 | 0.00 | 0.00 | 0.00 | 99 | 1009.5 |
| 20260509055252 | 74 | 351 | 0.0 | 2.0 | 0.00 | 0.00 | 0.00 | 99 | 1009.5 |
| 20260509055152 | 74 | 4 | 0.0 | 2.0 | 0.00 | 0.00 | 0.00 | 99 | 1009.5 |
| 20260509055052 | 74 | 134 | 0.0 | 2.0 | 0.00 | 0.00 | 0.00 | 99 | 1009.5 |
| 20260509054949 | 74 | 327 | 0.0 | 2.0 | 0.00 | 0.00 | 0.00 | 99 | 1009.5 |
| 20260509054843 | 74 | 83 | 0.0 | 2.0 | 0.00 | 0.00 | 0.00 | 99 | 1009.5 |
| 20260509054806 | 74 | 43 | 0.0 | 2.0 | 0.00 | 0.00 | 0.00 | 99 | 1009.5 |
| 20260509054743 | 74 | 9 | 0.0 | 2.0 | 0.00 | 0.00 | 0.00 | 99 | 1009.5 |
| 20260509054643 | 74 | 56 | 0.0 | 2.0 | 0.00 | 0.00 | 0.00 | 99 | 1009.5 |
| 20260509054543 | 74 | 82 | 0.0 | 2.0 | 0.00 | 0.00 | 0.00 | 99 | 1009.6 |
| 20260509054442 | 74 | 0 | 0.0 | 1.0 | 0.00 | 0.00 | 0.00 | 99 | 1009.6 |
| 20260509054342 | 74 | 159 | 0.0 | 1.0 | 0.00 | 0.00 | 0.00 | 99 | 1009.6 |
| 20260509054306 | 74 | 99 | 0.0 | 1.0 | 0.00 | 0.00 | 0.00 | 99 | 1009.6 |
| 20260509054243 | 74 | 223 | 0.0 | 1.0 | 0.00 | 0.00 | 0.00 | 99 | 1009.6 |
| 20260509054142 | 74 | 0 | 0.0 | 1.0 | 0.00 | 0.00 | 0.00 | 99 | 1009.5 |
| 20260509054042 | 74 | 0 | 0.0 | 1.0 | 0.00 | 0.00 | 0.00 | 99 | 1009.6 |
| 20260509053941 | 74 | 266 | 0.0 | 1.0 | 0.00 | 0.00 | 0.00 | 99 | 1009.6 |
| 20260509053840 | 74 | 19 | 0.0 | 1.0 | 0.00 | 0.00 | 0.00 | 99 | 1009.6 |
| 20260509053805 | 74 | 154 | 0.0 | 2.0 | 0.00 | 0.00 | 0.00 | 99 | 1009.6 |
| 20260509053737 | 74 | 123 | 0.0 | 2.0 | 0.00 | 0.00 | 0.00 | 99 | 1009.6 |
| 20260509053634 | 74 | 63 | 1.0 | 2.0 | 0.00 | 0.00 | 0.00 | 99 | 1009.6 |
| 20260509053534 | 74 | 0 | 1.0 | 2.0 | 0.00 | 0.00 | 0.00 | 99 | 1009.5 |
| 20260509053432 | 74 | 117 | 1.0 | 2.0 | 0.00 | 0.00 | 0.00 | 99 | 1009.5 |
| 20260509053333 | 74 | 349 | 1.0 | 2.0 | 0.00 | 0.00 | 0.00 | 99 | 1009.5 |
| 20260509053303 | 74 | 101 | 1.0 | 4.0 | 0.00 | 0.00 | 0.00 | 99 | 1009.5 |
| 20260509053233 | 74 | 42 | 1.0 | 4.0 | 0.00 | 0.00 | 0.00 | 99 | 1009.6 |
| 20260509053131 | 74 | 43 | 1.0 | 4.0 | 0.00 | 0.00 | 0.00 | 99 | 1009.6 |
| 20260509053032 | 74 | 55 | 1.0 | 4.0 | 0.00 | 0.00 | 0.00 | 99 | 1009.6 |
| 20260509052931 | 74 | 40 | 1.0 | 4.0 | 0.00 | 0.00 | 0.00 | 99 | 1009.6 |
| 20260509052832 | 74 | 52 | 2.0 | 4.0 | 0.00 | 0.00 | 0.00 | 99 | 1009.6 |
| 20260509052804 | 74 | 13 | 2.0 | 4.0 | 0.00 | 0.00 | 0.00 | 99 | 1009.6 |
| 20260509052731 | 74 | 88 | 2.0 | 4.0 | 0.00 | 0.00 | 0.00 | 99 | 1009.6 |
| 20260509052631 | 74 | 92 | 2.0 | 4.0 | 0.00 | 0.00 | 0.00 | 99 | 1009.6 |
| 20260509052528 | 74 | 75 | 2.0 | 4.0 | 0.00 | 0.00 | 0.00 | 99 | 1009.6 |
| 20260509052428 | 74 | 66 | 2.0 | 4.0 | 0.00 | 0.00 | 0.00 | 99 | 1009.7 |
| 20260509052328 | 74 | 81 | 2.0 | 4.0 | 0.00 | 0.00 | 0.00 | 99 | 1009.7 |
| 20260509052300 | 74 | 76 | 2.0 | 4.0 | 0.00 | 0.00 | 0.00 | 99 | 1009.7 |
| 20260509052228 | 75 | 85 | 1.0 | 3.0 | 0.00 | 0.00 | 0.00 | 99 | 1009.7 |
| 20260509052128 | 75 | 81 | 1.0 | 3.0 | 0.00 | 0.00 | 0.00 | 99 | 1009.7 |
| 20260509052028 | 75 | 78 | 1.0 | 3.0 | 0.00 | 0.00 | 0.00 | 99 | 1009.7 |
| 20260509051928 | 75 | 88 | 1.0 | 3.0 | 0.00 | 0.00 | 0.00 | 99 | 1009.8 |
| 20260509051828 | 75 | 78 | 1.0 | 3.0 | 0.00 | 0.00 | 0.00 | 99 | 1009.8 |
| 20260509051800 | 75 | 77 | 1.0 | 3.0 | 0.00 | 0.00 | 0.00 | 99 | 1009.8 |
| 20260509051725 | 75 | 92 | 1.0 | 3.0 | 0.00 | 0.00 | 0.00 | 99 | 1009.8 |
| 20260509051625 | 75 | 64 | 1.0 | 3.0 | 0.00 | 0.00 | 0.00 | 99 | 1009.8 |
| 20260509051525 | 75 | 211 | 1.0 | 3.0 | 0.00 | 0.00 | 0.00 | 99 | 1009.8 |
| 20260509051423 | 75 | 110 | 1.0 | 3.0 | 0.00 | 0.00 | 0.00 | 99 | 1009.8 |
| 20260509051323 | 75 | 62 | 1.0 | 3.0 | 0.00 | 0.00 | 0.00 | 99 | 1009.8 |
| 20260509051300 | 75 | 92 | 1.0 | 3.0 | 0.00 | 0.00 | 0.00 | 99 | 1009.8 |
| 20260509051222 | 75 | 114 | 1.0 | 3.0 | 0.00 | 0.00 | 0.00 | 99 | 1009.8 |
| 20260509051120 | 75 | 72 | 1.0 | 3.0 | 0.00 | 0.00 | 0.00 | 99 | 1009.8 |
| 20260509051022 | 75 | 70 | 1.0 | 3.0 | 0.00 | 0.00 | 0.00 | 99 | 1009.8 |
| 20260509051016 | 75 | 0 | 1.0 | 3.0 | 0.00 | 0.00 | 0.00 | 99 | 1009.8 |
| 20260509050917 | 75 | 0 | 1.0 | 3.0 | 0.00 | 0.00 | 0.00 | 99 | 1009.8 |
| 20260509050908 | 75 | 78 | 1.0 | 3.0 | 0.00 | 0.00 | 0.00 | 99 | 1009.8 |
| 20260509050714 | 75 | 77 | 1.0 | 3.0 | 0.00 | 0.00 | 0.00 | 99 | 1009.8 |
| 20260509050614 | 75 | 96 | 1.0 | 3.0 | 0.00 | 0.00 | 0.00 | 99 | 1009.8 |
| 20260509050527 | 75 | 1 | 1.0 | 3.0 | 0.00 | 0.00 | 0.00 | 99 | 1009.9 |
| 20260509050508 | 75 | 344 | 1.0 | 3.0 | 0.00 | 0.00 | 0.00 | 99 | 1009.9 |
| 20260509050408 | 75 | 64 | 1.0 | 3.0 | 0.00 | 0.00 | 0.00 | 99 | 1009.9 |
| 20260509050402 | 75 | 61 | 1.0 | 3.0 | 0.00 | 0.00 | 0.00 | 99 | 1009.9 |
| 20260509050207 | 75 | 261 | 1.0 | 3.0 | 0.00 | 0.00 | 0.00 | 99 | 1009.9 |
| 20260509050108 | 75 | 85 | 1.0 | 3.0 | 0.00 | 0.00 | 0.00 | 99 | 1009.9 |
| 20260509050008 | 75 | 90 | 1.0 | 4.0 | 0.00 | 0.00 | 0.00 | 99 | 1009.9 |
| 20260509045905 | 75 | 80 | 1.0 | 4.0 | 0.00 | 0.00 | 0.00 | 99 | 1009.9 |
| 20260509045805 | 75 | 0 | 2.0 | 4.0 | 0.00 | 0.00 | 0.00 | 99 | 1009.9 |
| 20260509045754 | 75 | 125 | 2.0 | 4.0 | 0.00 | 0.00 | 0.00 | 99 | 1009.9 |
| 20260509045705 | 75 | 93 | 2.0 | 4.0 | 0.00 | 0.00 | 0.00 | 99 | 1009.8 |
| 20260509045604 | 75 | 97 | 2.0 | 4.0 | 0.00 | 0.00 | 0.00 | 99 | 1009.8 |
| 20260509045502 | 75 | 86 | 2.0 | 4.0 | 0.00 | 0.00 | 0.00 | 99 | 1009.8 |
| 20260509045356 | 75 | 88 | 2.0 | 4.0 | 0.00 | 0.00 | 0.00 | 99 | 1009.8 |
| 20260509045256 | 75 | 81 | 2.0 | 4.0 | 0.00 | 0.00 | 0.00 | 99 | 1009.8 |
| 20260509045249 | 75 | 95 | 2.0 | 4.0 | 0.00 | 0.00 | 0.00 | 99 | 1009.8 |
| 20260509045153 | 75 | 78 | 2.0 | 4.0 | 0.00 | 0.00 | 0.00 | 99 | 1009.8 |
| 20260509045050 | 75 | 105 | 2.0 | 4.0 | 0.00 | 0.00 | 0.00 | 99 | 1009.8 |
| 20260509044947 | 75 | 89 | 2.0 | 3.0 | 0.00 | 0.00 | 0.00 | 99 | 1009.9 |
| 20260509044840 | 75 | 113 | 2.0 | 3.0 | 0.00 | 0.00 | 0.00 | 99 | 1009.9 |
| 20260509044748 | 75 | 79 | 2.0 | 3.0 | 0.00 | 0.00 | 0.00 | 99 | 1009.9 |
| 20260509044737 | 75 | 87 | 2.0 | 3.0 | 0.00 | 0.00 | 0.00 | 99 | 1009.9 |
| 20260509044634 | 75 | 83 | 2.0 | 3.0 | 0.00 | 0.00 | 0.00 | 99 | 1009.9 |
| 20260509044536 | 75 | 67 | 1.0 | 3.0 | 0.00 | 0.00 | 0.00 | 99 | 1010.1 |
| 20260509044513 | 75 | 87 | 1.0 | 3.0 | 0.00 | 0.00 | 0.00 | 99 | 1010.1 |
| 20260509044435 | 75 | 71 | 1.0 | 3.0 | 0.00 | 0.00 | 0.00 | 99 | 1010.1 |
| 20260509044351 | 75 | 74 | 1.0 | 3.0 | 0.00 | 0.00 | 0.00 | 99 | 1010.1 |
| 20260509044235 | 75 | 111 | 1.0 | 3.0 | 0.00 | 0.00 | 0.00 | 99 | 1010.1 |
| 20260509044132 | 75 | 75 | 1.0 | 3.0 | 0.00 | 0.00 | 0.00 | 99 | 1010.1 |
| 20260509044032 | 75 | 103 | 1.0 | 3.0 | 0.00 | 0.00 | 0.00 | 99 | 1010.1 |
| 20260509043932 | 75 | 103 | 1.0 | 3.0 | 0.00 | 0.00 | 0.00 | 99 | 1010.1 |
| 20260509043832 | 75 | 80 | 1.0 | 4.0 | 0.00 | 0.00 | 0.00 | 99 | 1010.1 |
| 20260509043746 | 75 | 95 | 1.0 | 4.0 | 0.00 | 0.00 | 0.00 | 99 | 1010.1 |
| 20260509043732 | 75 | 45 | 1.0 | 4.0 | 0.00 | 0.00 | 0.00 | 99 | 1010.1 |
| 20260509043619 | 75 | 0 | 2.0 | 4.0 | 0.00 | 0.00 | 0.00 | 99 | 1010.1 |
| 20260509043520 | 75 | 98 | 2.0 | 4.0 | 0.00 | 0.00 | 0.00 | 99 | 1010.1 |
| 20260509043420 | 75 | 76 | 2.0 | 4.0 | 0.00 | 0.00 | 0.00 | 99 | 1010.1 |
| 20260509043320 | 75 | 101 | 2.0 | 4.0 | 0.00 | 0.00 | 0.00 | 99 | 1010.0 |
| 20260509043246 | 75 | 75 | 2.0 | 4.0 | 0.00 | 0.00 | 0.00 | 99 | 1010.0 |
| 20260509043220 | 75 | 110 | 2.0 | 4.0 | 0.00 | 0.00 | 0.00 | 99 | 1010.0 |
| 20260509043120 | 75 | 195 | 2.0 | 4.0 | 0.00 | 0.00 | 0.00 | 99 | 1010.0 |
| 20260509043020 | 75 | 82 | 2.0 | 4.0 | 0.00 | 0.00 | 0.00 | 99 | 1010.0 |
| 20260509042920 | 75 | 74 | 2.0 | 4.0 | 0.00 | 0.00 | 0.00 | 99 | 1010.0 |
| 20260509042817 | 75 | 112 | 2.0 | 4.0 | 0.00 | 0.00 | 0.00 | 99 | 1010.0 |
| 20260509042746 | 75 | 97 | 2.0 | 4.0 | 0.00 | 0.00 | 0.00 | 99 | 1010.0 |
| 20260509042717 | 75 | 114 | 2.0 | 4.0 | 0.00 | 0.00 | 0.00 | 99 | 1010.0 |
| 20260509042614 | 75 | 88 | 2.0 | 4.0 | 0.00 | 0.00 | 0.00 | 99 | 1010.0 |
| 20260509042514 | 75 | 89 | 2.0 | 4.0 | 0.00 | 0.00 | 0.00 | 99 | 1010.0 |
| 20260509042414 | 75 | 86 | 2.0 | 4.0 | 0.00 | 0.00 | 0.00 | 99 | 1010.0 |
| 20260509042314 | 75 | 128 | 2.0 | 4.0 | 0.00 | 0.00 | 0.00 | 99 | 1010.0 |
| 20260509042246 | 75 | 114 | 2.0 | 4.0 | 0.00 | 0.00 | 0.00 | 99 | 1010.0 |
| 20260509042211 | 75 | 245 | 2.0 | 4.0 | 0.00 | 0.00 | 0.00 | 99 | 1010.0 |
| 20260509042109 | 75 | 86 | 1.0 | 4.0 | 0.00 | 0.00 | 0.00 | 99 | 1010.0 |
| 20260509042008 | 75 | 114 | 1.0 | 4.0 | 0.00 | 0.00 | 0.00 | 99 | 1010.0 |
| 20260509041908 | 75 | 97 | 1.0 | 4.0 | 0.00 | 0.00 | 0.00 | 99 | 1010.0 |
| 20260509041809 | 75 | 102 | 1.0 | 4.0 | 0.00 | 0.00 | 0.00 | 99 | 1010.0 |
| 20260509041743 | 75 | 93 | 1.0 | 4.0 | 0.00 | 0.00 | 0.00 | 99 | 1010.0 |
| 20260509041709 | 75 | 112 | 1.0 | 4.0 | 0.00 | 0.00 | 0.00 | 99 | 1010.0 |
| 20260509041608 | 75 | 94 | 1.0 | 4.0 | 0.00 | 0.00 | 0.00 | 99 | 1010.0 |
| 20260509041505 | 75 | 99 | 1.0 | 4.0 | 0.00 | 0.00 | 0.00 | 99 | 1010.0 |
| 20260509041402 | 75 | 113 | 1.0 | 4.0 | 0.00 | 0.00 | 0.00 | 99 | 1010.0 |
| 20260509041259 | 75 | 78 | 2.0 | 4.0 | 0.00 | 0.00 | 0.00 | 99 | 1010.0 |
| 20260509041243 | 75 | 0 | 2.0 | 4.0 | 0.00 | 0.00 | 0.00 | 99 | 1010.0 |
| 20260509041156 | 75 | 97 | 2.0 | 4.0 | 0.00 | 0.00 | 0.00 | 99 | 1010.0 |
| 20260509041054 | 75 | 56 | 2.0 | 4.0 | 0.00 | 0.00 | 0.00 | 99 | 1010.0 |
| 20260509041006 | 75 | 94 | 2.0 | 4.0 | 0.00 | 0.00 | 0.00 | 99 | 1009.9 |
| 20260509040951 | 75 | 165 | 2.0 | 4.0 | 0.00 | 0.00 | 0.00 | 99 | 1010.0 |
| 20260509040854 | 75 | 92 | 2.0 | 4.0 | 0.00 | 0.00 | 0.00 | 99 | 1009.9 |
| 20260509040849 | 75 | 76 | 2.0 | 4.0 | 0.00 | 0.00 | 0.00 | 99 | 1009.9 |
| 20260509040651 | 75 | 105 | 2.0 | 4.0 | 0.00 | 0.00 | 0.00 | 99 | 1009.9 |
| 20260509040551 | 75 | 100 | 1.0 | 4.0 | 0.00 | 0.00 | 0.00 | 99 | 1009.9 |
| 20260509040450 | 75 | 76 | 1.0 | 4.0 | 0.00 | 0.00 | 0.00 | 99 | 1009.9 |
| 20260509040351 | 75 | 95 | 1.0 | 4.0 | 0.00 | 0.00 | 0.00 | 99 | 1009.9 |
| 20260509040251 | 75 | 67 | 1.0 | 4.0 | 0.00 | 0.00 | 0.00 | 99 | 1010.0 |
| 20260509040240 | 75 | 79 | 1.0 | 4.0 | 0.00 | 0.00 | 0.00 | 99 | 1010.0 |
| 20260509040147 | 75 | 92 | 1.0 | 4.0 | 0.00 | 0.00 | 0.00 | 99 | 1010.0 |
| 20260509040047 | 75 | 100 | 1.0 | 4.0 | 0.00 | 0.00 | 0.00 | 99 | 1010.0 |
| 20260509035947 | 75 | 70 | 1.0 | 4.0 | 0.00 | 0.00 | 0.00 | 99 | 1010.0 |
| 20260509035848 | 75 | 61 | 1.0 | 4.0 | 0.00 | 0.00 | 0.00 | 99 | 1010.1 |
| 20260509035747 | 75 | 91 | 1.0 | 4.0 | 0.00 | 0.00 | 0.00 | 99 | 1010.0 |
| 20260509035740 | 75 | 57 | 1.0 | 4.0 | 0.00 | 0.00 | 0.00 | 99 | 1010.0 |
| 20260509035647 | 75 | 80 | 1.0 | 4.0 | 0.00 | 0.00 | 0.00 | 99 | 1010.0 |
| 20260509035542 | 75 | 75 | 1.0 | 4.0 | 0.00 | 0.00 | 0.00 | 99 | 1010.0 |
| 20260509035439 | 75 | 119 | 2.0 | 4.0 | 0.00 | 0.00 | 0.00 | 99 | 1010.0 |
| 20260509035335 | 75 | 61 | 2.0 | 4.0 | 0.00 | 0.00 | 0.00 | 99 | 1009.9 |
| 20260509035240 | 75 | 59 | 2.0 | 4.0 | 0.00 | 0.00 | 0.00 | 99 | 1009.9 |
| 20260509035233 | 75 | 66 | 2.0 | 4.0 | 0.00 | 0.00 | 0.00 | 99 | 1009.9 |
| 20260509035134 | 75 | 122 | 2.0 | 4.0 | 0.00 | 0.00 | 0.00 | 99 | 1009.8 |
| 20260509035027 | 75 | 86 | 2.0 | 4.0 | 0.00 | 0.00 | 0.00 | 98 | 1009.7 |
| 20260509034920 | 75 | 105 | 2.0 | 4.0 | 0.00 | 0.00 | 0.00 | 98 | 1009.6 |
| 20260509034821 | 75 | 73 | 2.0 | 4.0 | 0.00 | 0.00 | 0.00 | 98 | 1009.6 |
| 20260509034741 | 75 | 71 | 2.0 | 4.0 | 0.00 | 0.00 | 0.00 | 98 | 1009.6 |
| 20260509034718 | 75 | 0 | 2.0 | 4.0 | 0.00 | 0.00 | 0.00 | 98 | 1009.6 |
| 20260509034615 | 75 | 55 | 2.0 | 4.0 | 0.00 | 0.00 | 0.00 | 98 | 1009.6 |
| 20260509034515 | 75 | 115 | 2.0 | 4.0 | 0.00 | 0.00 | 0.00 | 98 | 1009.7 |
| 20260509034415 | 75 | 69 | 2.0 | 4.0 | 0.00 | 0.00 | 0.00 | 98 | 1009.7 |
| 20260509034303 | 75 | 58 | 2.0 | 4.0 | 0.00 | 0.00 | 0.00 | 98 | 1009.7 |
| 20260509034238 | 75 | 88 | 2.0 | 4.0 | 0.00 | 0.00 | 0.00 | 98 | 1009.7 |
| 20260509034203 | 75 | 67 | 2.0 | 4.0 | 0.00 | 0.00 | 0.00 | 98 | 1009.7 |
| 20260509034103 | 75 | 99 | 2.0 | 4.0 | 0.00 | 0.00 | 0.00 | 98 | 1009.7 |
| 20260509034002 | 75 | 128 | 2.0 | 4.0 | 0.00 | 0.00 | 0.00 | 98 | 1009.7 |
| 20260509033859 | 75 | 75 | 2.0 | 4.0 | 0.00 | 0.00 | 0.00 | 98 | 1009.6 |
| 20260509033800 | 75 | 65 | 2.0 | 4.0 | 0.00 | 0.00 | 0.00 | 98 | 1009.6 |
| 20260509033738 | 75 | 127 | 2.0 | 4.0 | 0.00 | 0.00 | 0.00 | 98 | 1009.6 |
| 20260509033653 | 75 | 82 | 1.0 | 4.0 | 0.00 | 0.00 | 0.00 | 98 | 1009.6 |
| 20260509033551 | 75 | 85 | 1.0 | 4.0 | 0.00 | 0.00 | 0.00 | 98 | 1009.5 |
| 20260509033504 | 75 | 75 | 1.0 | 4.0 | 0.00 | 0.00 | 0.00 | 98 | 1009.6 |
| 20260509033450 | 75 | 105 | 1.0 | 4.0 | 0.00 | 0.00 | 0.00 | 98 | 1009.5 |
| 20260509033349 | 75 | 93 | 1.0 | 4.0 | 0.00 | 0.00 | 0.00 | 98 | 1009.5 |
| 20260509033344 | 75 | 65 | 1.0 | 4.0 | 0.00 | 0.00 | 0.00 | 98 | 1009.6 |
| 20260509033148 | 75 | 102 | 1.0 | 4.0 | 0.00 | 0.00 | 0.00 | 98 | 1009.6 |
| 20260509033045 | 75 | 101 | 1.0 | 4.0 | 0.00 | 0.00 | 0.00 | 98 | 1009.6 |
| 20260509032945 | 75 | 105 | 1.0 | 4.0 | 0.00 | 0.00 | 0.00 | 98 | 1009.7 |
| 20260509032845 | 75 | 34 | 1.0 | 4.0 | 0.00 | 0.00 | 0.00 | 98 | 1009.7 |
| 20260509032745 | 75 | 41 | 1.0 | 4.0 | 0.00 | 0.00 | 0.00 | 98 | 1009.7 |
| 20260509032738 | 75 | 85 | 1.0 | 4.0 | 0.00 | 0.00 | 0.00 | 98 | 1009.7 |
| 20260509032645 | 75 | 14 | 1.0 | 4.0 | 0.00 | 0.00 | 0.00 | 98 | 1009.5 |
| 20260509032545 | 75 | 91 | 1.0 | 4.0 | 0.00 | 0.00 | 0.00 | 98 | 1009.5 |
| 20260509032445 | 75 | 0 | 1.0 | 3.0 | 0.00 | 0.00 | 0.00 | 98 | 1009.5 |
| 20260509032336 | 75 | 53 | 1.0 | 3.0 | 0.00 | 0.00 | 0.00 | 98 | 1009.4 |
| 20260509032236 | 75 | 53 | 1.0 | 3.0 | 0.00 | 0.00 | 0.00 | 98 | 1009.4 |
| 20260509032136 | 75 | 116 | 1.0 | 3.0 | 0.00 | 0.00 | 0.00 | 98 | 1009.4 |
| 20260509032036 | 75 | 124 | 1.0 | 4.0 | 0.00 | 0.00 | 0.00 | 98 | 1009.4 |
| 20260509032001 | 75 | 42 | 2.0 | 4.0 | 0.00 | 0.00 | 0.00 | 98 | 1009.5 |
| 20260509031936 | 75 | 88 | 1.0 | 4.0 | 0.00 | 0.00 | 0.00 | 98 | 1009.4 |
| 20260509031847 | 75 | 48 | 1.0 | 4.0 | 0.00 | 0.00 | 0.00 | 98 | 1009.4 |
| 20260509031841 | 75 | 42 | 2.0 | 4.0 | 0.00 | 0.00 | 0.00 | 98 | 1009.5 |
| 20260509031637 | 75 | 57 | 2.0 | 4.0 | 0.00 | 0.00 | 0.00 | 98 | 1009.5 |
| 20260509031537 | 75 | 49 | 2.0 | 4.0 | 0.00 | 0.00 | 0.00 | 98 | 1009.5 |
| 20260509031437 | 75 | 294 | 2.0 | 4.0 | 0.00 | 0.00 | 0.00 | 98 | 1009.4 |
| 20260509031336 | 75 | 354 | 2.0 | 4.0 | 0.00 | 0.00 | 0.00 | 98 | 1009.4 |
| 20260509031237 | 75 | 326 | 2.0 | 4.0 | 0.00 | 0.00 | 0.00 | 98 | 1009.4 |
| 20260509031218 | 75 | 28 | 1.0 | 4.0 | 0.00 | 0.00 | 0.00 | 98 | 1009.1 |
| 20260509031137 | 75 | 35 | 2.0 | 4.0 | 0.00 | 0.00 | 0.00 | 98 | 1009.4 |
| 20260509031105 | 75 | 22 | 2.0 | 4.0 | 0.00 | 0.00 | 0.00 | 98 | 1009.3 |
| 20260509030937 | 75 | 29 | 1.0 | 4.0 | 0.00 | 0.00 | 0.00 | 98 | 1009.3 |
| 20260509030846 | 75 | 19 | 1.0 | 4.0 | 0.00 | 0.00 | 0.00 | 98 | 1009.2 |
| 20260509030841 | 75 | 28 | 1.0 | 4.0 | 0.00 | 0.00 | 0.00 | 98 | 1009.1 |
| 20260509030634 | 75 | 22 | 1.0 | 4.0 | 0.00 | 0.00 | 0.00 | 98 | 1009.1 |
| 20260509030534 | 75 | 65 | 1.0 | 4.0 | 0.00 | 0.00 | 0.00 | 98 | 1009.1 |
| 20260509030427 | 75 | 16 | 1.0 | 4.0 | 0.00 | 0.00 | 0.00 | 98 | 1009.1 |
| 20260509030327 | 75 | 57 | 1.0 | 4.0 | 0.00 | 0.00 | 0.00 | 98 | 1009.1 |
| 20260509030235 | 75 | 113 | 1.0 | 4.0 | 0.00 | 0.00 | 0.00 | 98 | 1009.1 |
| 20260509030228 | 75 | 109 | 1.0 | 4.0 | 0.00 | 0.00 | 0.00 | 98 | 1009.1 |
| 20260509030124 | 75 | 63 | 1.0 | 3.0 | 0.00 | 0.00 | 0.00 | 98 | 1009.2 |
| 20260509030025 | 75 | 49 | 2.0 | 3.0 | 0.00 | 0.00 | 0.00 | 98 | 1009.2 |
| 20260509025922 | 75 | 143 | 2.0 | 3.0 | 0.00 | 0.00 | 0.00 | 98 | 1009.2 |
| 20260509025822 | 75 | 48 | 2.0 | 3.0 | 0.00 | 0.00 | 0.00 | 98 | 1009.1 |
| 20260509025735 | 75 | 65 | 2.0 | 3.0 | 0.00 | 0.00 | 0.00 | 98 | 1009.1 |
| 20260509025721 | 75 | 44 | 2.0 | 3.0 | 0.00 | 0.00 | 0.00 | 98 | 1009.1 |
| 20260509025619 | 75 | 91 | 2.0 | 3.0 | 0.00 | 0.00 | 0.00 | 98 | 1009.1 |
| 20260509025519 | 75 | 86 | 2.0 | 3.0 | 0.00 | 0.00 | 0.00 | 98 | 1009.1 |
| 20260509025418 | 75 | 251 | 2.0 | 3.0 | 0.00 | 0.00 | 0.00 | 98 | 1009.1 |
| 20260509025319 | 75 | 57 | 1.0 | 3.0 | 0.00 | 0.00 | 0.00 | 98 | 1009.1 |
| 20260509025235 | 75 | 27 | 1.0 | 3.0 | 0.00 | 0.00 | 0.00 | 98 | 1009.1 |
| 20260509025219 | 75 | 22 | 1.0 | 3.0 | 0.00 | 0.00 | 0.00 | 98 | 1009.2 |
| 20260509025119 | 75 | 56 | 1.0 | 3.0 | 0.00 | 0.00 | 0.00 | 98 | 1009.2 |
| 20260509025015 | 75 | 64 | 1.0 | 3.0 | 0.00 | 0.00 | 0.00 | 98 | 1009.2 |
| 20260509024909 | 75 | 65 | 1.0 | 3.0 | 0.00 | 0.00 | 0.00 | 98 | 1009.4 |
| 20260509024807 | 75 | 58 | 1.0 | 3.0 | 0.00 | 0.00 | 0.00 | 98 | 1009.4 |
| 20260509024734 | 75 | 32 | 1.0 | 3.0 | 0.00 | 0.00 | 0.00 | 98 | 1009.5 |
| 20260509024704 | 75 | 55 | 1.0 | 3.0 | 0.00 | 0.00 | 0.00 | 98 | 1009.5 |
| 20260509024601 | 75 | 104 | 1.0 | 3.0 | 0.00 | 0.00 | 0.00 | 98 | 1009.5 |
| 20260509024501 | 75 | 130 | 1.0 | 5.0 | 0.00 | 0.00 | 0.00 | 98 | 1009.5 |
| 20260509024401 | 75 | 122 | 1.0 | 5.0 | 0.00 | 0.00 | 0.00 | 98 | 1009.4 |
| 20260509024258 | 75 | 343 | 1.0 | 5.0 | 0.00 | 0.00 | 0.00 | 98 | 1009.3 |
| 20260509024232 | 75 | 0 | 1.0 | 5.0 | 0.00 | 0.00 | 0.00 | 98 | 1009.2 |
| 20260509024158 | 75 | 17 | 1.0 | 5.0 | 0.00 | 0.00 | 0.00 | 98 | 1009.2 |
| 20260509024058 | 75 | 77 | 2.0 | 5.0 | 0.00 | 0.00 | 0.00 | 98 | 1009.1 |
| 20260509023958 | 75 | 81 | 2.0 | 5.0 | 0.00 | 0.00 | 0.00 | 98 | 1009.0 |
| 20260509023855 | 75 | 71 | 2.0 | 5.0 | 0.00 | 0.00 | 0.00 | 98 | 1009.0 |
| 20260509023752 | 75 | 90 | 1.0 | 5.0 | 0.00 | 0.00 | 0.00 | 98 | 1009.0 |
| 20260509023727 | 75 | 98 | 1.0 | 5.0 | 0.00 | 0.00 | 0.00 | 98 | 1008.9 |
| 20260509023651 | 75 | 0 | 2.0 | 5.0 | 0.00 | 0.00 | 0.00 | 98 | 1008.9 |
| 20260509023549 | 75 | 85 | 2.0 | 5.0 | 0.00 | 0.00 | 0.00 | 98 | 1008.8 |
| 20260509023445 | 75 | 0 | 2.0 | 4.0 | 0.00 | 0.00 | 0.00 | 98 | 1008.8 |
| 20260509023345 | 75 | 202 | 2.0 | 4.0 | 0.00 | 0.00 | 0.00 | 98 | 1008.7 |
| 20260509023245 | 75 | 72 | 2.0 | 4.0 | 0.00 | 0.00 | 0.00 | 98 | 1008.7 |
| 20260509023220 | 75 | 37 | 2.0 | 4.0 | 0.00 | 0.00 | 0.00 | 98 | 1008.7 |
| 20260509023143 | 75 | 60 | 2.0 | 4.0 | 0.00 | 0.00 | 0.00 | 98 | 1008.7 |
| 20260509023043 | 75 | 66 | 2.0 | 4.0 | 0.00 | 0.00 | 0.00 | 98 | 1008.7 |
| 20260509022940 | 75 | 37 | 2.0 | 4.0 | 0.00 | 0.00 | 0.00 | 98 | 1008.8 |
| 20260509022840 | 75 | 42 | 2.0 | 4.0 | 0.00 | 0.00 | 0.00 | 98 | 1008.8 |
| 20260509022740 | 75 | 27 | 2.0 | 4.0 | 0.00 | 0.00 | 0.00 | 98 | 1008.9 |
| 20260509022720 | 75 | 49 | 2.0 | 4.0 | 0.00 | 0.00 | 0.00 | 98 | 1008.9 |
| 20260509022640 | 75 | 94 | 2.0 | 4.0 | 0.00 | 0.00 | 0.00 | 98 | 1008.9 |
| 20260509022540 | 75 | 71 | 2.0 | 4.0 | 0.00 | 0.00 | 0.00 | 98 | 1008.9 |
| 20260509022440 | 75 | 20 | 2.0 | 4.0 | 0.00 | 0.00 | 0.00 | 98 | 1008.8 |
| 20260509022345 | 75 | 107 | 2.0 | 4.0 | 0.00 | 0.00 | 0.00 | 98 | 1008.8 |
| 20260509022241 | 75 | 33 | 1.0 | 4.0 | 0.00 | 0.00 | 0.00 | 98 | 1008.8 |
| 20260509022221 | 75 | 106 | 1.0 | 4.0 | 0.00 | 0.00 | 0.00 | 98 | 1008.8 |
| 20260509022140 | 75 | 96 | 1.0 | 4.0 | 0.00 | 0.00 | 0.00 | 98 | 1008.8 |
| 20260509022037 | 75 | 79 | 1.0 | 4.0 | 0.00 | 0.00 | 0.00 | 98 | 1008.8 |
| 20260509021937 | 75 | 105 | 1.0 | 3.0 | 0.00 | 0.00 | 0.00 | 98 | 1008.8 |
| 20260509021837 | 75 | 68 | 1.0 | 3.0 | 0.00 | 0.00 | 0.00 | 98 | 1008.9 |
| 20260509021737 | 75 | 67 | 1.0 | 3.0 | 0.00 | 0.00 | 0.00 | 98 | 1009.1 |
| 20260509021719 | 75 | 134 | 1.0 | 3.0 | 0.00 | 0.00 | 0.00 | 98 | 1009.0 |
| 20260509021637 | 75 | 108 | 1.0 | 3.0 | 0.00 | 0.00 | 0.00 | 98 | 1009.0 |
| 20260509021537 | 75 | 69 | 1.0 | 3.0 | 0.00 | 0.00 | 0.00 | 98 | 1009.0 |
| 20260509021437 | 75 | 0 | 1.0 | 3.0 | 0.00 | 0.00 | 0.00 | 98 | 1009.0 |
| 20260509021337 | 75 | 0 | 1.0 | 3.0 | 0.00 | 0.00 | 0.00 | 98 | 1009.0 |
| 20260509021231 | 75 | 23 | 1.0 | 3.0 | 0.00 | 0.00 | 0.00 | 98 | 1009.0 |
| 20260509021215 | 75 | 96 | 1.0 | 3.0 | 0.00 | 0.00 | 0.00 | 98 | 1009.0 |
| 20260509021132 | 75 | 1 | 1.0 | 3.0 | 0.00 | 0.00 | 0.00 | 98 | 1008.9 |
| 20260509021031 | 75 | 46 | 1.0 | 4.0 | 0.00 | 0.00 | 0.00 | 98 | 1008.9 |
| 20260509020928 | 75 | 335 | 1.0 | 4.0 | 0.00 | 0.00 | 0.00 | 98 | 1008.9 |
| 20260509020825 | 75 | 351 | 1.0 | 4.0 | 0.00 | 0.00 | 0.00 | 98 | 1008.8 |
| 20260509020709 | 75 | 0 | 1.0 | 4.0 | 0.00 | 0.00 | 0.00 | 98 | 1008.8 |
| 20260509020618 | 75 | 43 | 1.0 | 4.0 | 0.00 | 0.00 | 0.00 | 98 | 1008.8 |
| 20260509020516 | 75 | 3 | 1.0 | 4.0 | 0.00 | 0.00 | 0.00 | 98 | 1008.8 |
| 20260509020416 | 75 | 53 | 1.0 | 4.0 | 0.00 | 0.00 | 0.00 | 98 | 1008.8 |
| 20260509020310 | 75 | 52 | 1.0 | 4.0 | 0.00 | 0.00 | 0.00 | 98 | 1008.8 |
| 20260509020210 | 75 | 105 | 1.0 | 4.0 | 0.00 | 0.00 | 0.00 | 98 | 1008.8 |
| 20260509020110 | 75 | 37 | 1.0 | 4.0 | 0.00 | 0.00 | 0.00 | 98 | 1008.8 |
| 20260509020010 | 75 | 249 | 1.0 | 4.0 | 0.00 | 0.00 | 0.00 | 98 | 1008.6 |
| 20260509015929 | 75 | 72 | 1.0 | 3.0 | 0.00 | 0.00 | 0.00 | 98 | 1008.6 |
| 20260509015910 | 75 | 93 | 1.0 | 3.0 | 0.00 | 0.00 | 0.00 | 98 | 1008.6 |
| 20260509015816 | 75 | 43 | 1.0 | 3.0 | 0.00 | 0.00 | 0.00 | 98 | 1008.6 |
| 20260509015658 | 75 | 72 | 1.0 | 3.0 | 0.00 | 0.00 | 0.00 | 98 | 1008.6 |
| 20260509015558 | 75 | 87 | 1.0 | 3.0 | 0.00 | 0.00 | 0.00 | 98 | 1008.6 |
| 20260509015458 | 75 | 91 | 1.0 | 3.0 | 0.00 | 0.00 | 0.00 | 98 | 1008.6 |
| 20260509015358 | 75 | 0 | 1.0 | 2.0 | 0.00 | 0.00 | 0.00 | 98 | 1008.6 |
| 20260509015258 | 75 | 73 | 1.0 | 2.0 | 0.00 | 0.00 | 0.00 | 98 | 1008.6 |
| 20260509015209 | 75 | 53 | 1.0 | 2.0 | 0.00 | 0.00 | 0.00 | 97 | 1008.7 |
| 20260509015159 | 75 | 21 | 1.0 | 2.0 | 0.00 | 0.00 | 0.00 | 97 | 1008.7 |
| 20260509015055 | 75 | 71 | 1.0 | 2.0 | 0.00 | 0.00 | 0.00 | 97 | 1008.7 |
| 20260509014955 | 75 | 79 | 1.0 | 2.0 | 0.00 | 0.00 | 0.00 | 97 | 1008.7 |
| 20260509014856 | 75 | 64 | 1.0 | 2.0 | 0.00 | 0.00 | 0.00 | 98 | 1008.8 |
| 20260509014755 | 75 | 49 | 1.0 | 2.0 | 0.00 | 0.00 | 0.00 | 98 | 1008.8 |
| 20260509014709 | 75 | 57 | 1.0 | 2.0 | 0.00 | 0.00 | 0.00 | 97 | 1008.8 |
| 20260509014655 | 75 | 55 | 1.0 | 2.0 | 0.00 | 0.00 | 0.00 | 97 | 1008.8 |
| 20260509014555 | 75 | 26 | 1.0 | 2.0 | 0.00 | 0.00 | 0.00 | 97 | 1008.8 |
| 20260509014455 | 75 | 296 | 1.0 | 2.0 | 0.00 | 0.00 | 0.00 | 97 | 1008.7 |
| 20260509014355 | 75 | 16 | 1.0 | 2.0 | 0.00 | 0.00 | 0.00 | 97 | 1008.7 |
| 20260509014252 | 75 | 71 | 1.0 | 2.0 | 0.00 | 0.00 | 0.00 | 97 | 1008.7 |
| 20260509014210 | 75 | 30 | 1.0 | 2.0 | 0.00 | 0.00 | 0.00 | 97 | 1008.8 |
| 20260509014153 | 75 | 33 | 1.0 | 2.0 | 0.00 | 0.00 | 0.00 | 97 | 1008.8 |
| 20260509014053 | 75 | 26 | 1.0 | 2.0 | 0.00 | 0.00 | 0.00 | 97 | 1008.8 |
| 20260509013953 | 75 | 14 | 1.0 | 2.0 | 0.00 | 0.00 | 0.00 | 97 | 1008.9 |
| 20260509013852 | 75 | 288 | 1.0 | 2.0 | 0.00 | 0.00 | 0.00 | 97 | 1008.9 |
| 20260509013749 | 75 | 0 | 1.0 | 2.0 | 0.00 | 0.00 | 0.00 | 97 | 1008.9 |
| 20260509013709 | 75 | 15 | 1.0 | 3.0 | 0.00 | 0.00 | 0.00 | 97 | 1008.7 |
| 20260509013650 | 75 | 0 | 1.0 | 3.0 | 0.00 | 0.00 | 0.00 | 97 | 1008.7 |
| 20260509013550 | 75 | 307 | 1.0 | 6.0 | 0.00 | 0.00 | 0.00 | 97 | 1008.7 |
| 20260509013447 | 75 | 258 | 1.0 | 6.0 | 0.00 | 0.00 | 0.00 | 97 | 1008.4 |
| 20260509013347 | 75 | 0 | 1.0 | 6.0 | 0.00 | 0.00 | 0.00 | 97 | 1008.4 |
| 20260509013247 | 75 | 45 | 1.0 | 6.0 | 0.00 | 0.00 | 0.00 | 97 | 1008.3 |
| 20260509013207 | 75 | 60 | 1.0 | 6.0 | 0.00 | 0.00 | 0.00 | 97 | 1008.3 |
| 20260509013144 | 75 | 65 | 1.0 | 6.0 | 0.00 | 0.00 | 0.00 | 97 | 1008.3 |
| 20260509013040 | 75 | 72 | 1.0 | 6.0 | 0.00 | 0.00 | 0.00 | 97 | 1008.3 |
| 20260509012937 | 75 | 10 | 1.0 | 6.0 | 0.00 | 0.00 | 0.00 | 97 | 1008.3 |
| 20260509012835 | 75 | 51 | 1.0 | 6.0 | 0.00 | 0.00 | 0.00 | 97 | 1008.3 |
| 20260509012731 | 75 | 55 | 1.0 | 6.0 | 0.00 | 0.00 | 0.00 | 97 | 1008.4 |
| 20260509012706 | 75 | 43 | 1.0 | 6.0 | 0.00 | 0.00 | 0.00 | 97 | 1008.4 |
| 20260509012629 | 75 | 19 | 1.0 | 6.0 | 0.00 | 0.00 | 0.00 | 97 | 1008.5 |
| 20260509012529 | 75 | 27 | 1.0 | 2.0 | 0.00 | 0.00 | 0.00 | 97 | 1008.6 |
| 20260509012429 | 75 | 0 | 1.0 | 2.0 | 0.00 | 0.00 | 0.00 | 97 | 1008.6 |
| 20260509012320 | 75 | 308 | 1.0 | 2.0 | 0.00 | 0.00 | 0.00 | 97 | 1008.7 |
| 20260509012206 | 75 | 0 | 1.0 | 2.0 | 0.00 | 0.00 | 0.00 | 97 | 1008.6 |
| 20260509012119 | 75 | 0 | 1.0 | 3.0 | 0.00 | 0.00 | 0.00 | 97 | 1008.5 |
| 20260509012017 | 75 | 312 | 1.0 | 3.0 | 0.00 | 0.00 | 0.00 | 97 | 1008.4 |
| 20260509011917 | 75 | 295 | 1.0 | 3.0 | 0.00 | 0.00 | 0.00 | 97 | 1008.4 |
| 20260509011817 | 75 | 347 | 1.0 | 3.0 | 0.00 | 0.00 | 0.00 | 97 | 1008.3 |
| 20260509011717 | 75 | 50 | 1.0 | 3.0 | 0.00 | 0.00 | 0.00 | 97 | 1008.3 |
| 20260509011703 | 75 | 27 | 1.0 | 3.0 | 0.00 | 0.00 | 0.00 | 97 | 1008.3 |
| 20260509011617 | 75 | 102 | 1.0 | 3.0 | 0.00 | 0.00 | 0.00 | 97 | 1008.3 |
| 20260509011517 | 75 | 51 | 1.0 | 3.0 | 0.00 | 0.00 | 0.00 | 97 | 1008.3 |
| 20260509011417 | 75 | 51 | 1.0 | 3.0 | 0.00 | 0.00 | 0.00 | 97 | 1008.5 |
| 20260509011317 | 75 | 52 | 1.0 | 3.0 | 0.00 | 0.00 | 0.00 | 97 | 1008.7 |
| 20260509011218 | 75 | 58 | 1.0 | 3.0 | 0.00 | 0.00 | 0.00 | 97 | 1008.7 |
| 20260509011201 | 75 | 19 | 1.0 | 3.0 | 0.00 | 0.00 | 0.00 | 97 | 1008.7 |
| 20260509011117 | 75 | 10 | 1.0 | 3.0 | 0.00 | 0.00 | 0.00 | 97 | 1008.7 |
| 20260509011017 | 75 | 0 | 1.0 | 2.0 | 0.00 | 0.00 | 0.00 | 97 | 1008.7 |
| 20260509010914 | 75 | 334 | 1.0 | 2.0 | 0.00 | 0.00 | 0.00 | 97 | 1008.7 |
| 20260509010814 | 75 | 345 | 1.0 | 3.0 | 0.00 | 0.00 | 0.00 | 97 | 1008.5 |
| 20260509010714 | 75 | 46 | 1.0 | 5.0 | 0.00 | 0.00 | 0.00 | 97 | 1008.5 |
| 20260509010658 | 75 | 26 | 1.0 | 5.0 | 0.00 | 0.00 | 0.00 | 97 | 1008.5 |
| 20260509010608 | 75 | 49 | 1.0 | 6.0 | 0.00 | 0.00 | 0.00 | 97 | 1008.5 |
| 20260509010508 | 75 | 99 | 2.0 | 6.0 | 0.00 | 0.00 | 0.00 | 97 | 1008.6 |
| 20260509010412 | 75 | 101 | 2.0 | 6.0 | 0.00 | 0.00 | 0.00 | 97 | 1008.7 |
| 20260509010405 | 75 | 98 | 2.0 | 6.0 | 0.00 | 0.00 | 0.00 | 97 | 1008.6 |
| 20260509010306 | 75 | 86 | 2.0 | 6.0 | 0.00 | 0.00 | 0.00 | 97 | 1008.7 |
| 20260509010300 | 75 | 79 | 2.0 | 6.0 | 0.00 | 0.00 | 0.00 | 97 | 1008.7 |
| 20260509005959 | 75 | 51 | 2.0 | 6.0 | 0.00 | 0.00 | 0.00 | 97 | 1008.5 |
| 20260509005859 | 75 | 63 | 2.0 | 6.0 | 0.00 | 0.00 | 0.00 | 97 | 1008.4 |
| 20260509005759 | 75 | 98 | 2.0 | 6.0 | 0.00 | 0.00 | 0.00 | 97 | 1008.4 |
| 20260509005701 | 75 | 127 | 2.0 | 6.0 | 0.00 | 0.00 | 0.00 | 97 | 1008.4 |
| 20260509005655 | 75 | 119 | 2.0 | 6.0 | 0.00 | 0.00 | 0.00 | 97 | 1008.4 |
| 20260509005559 | 75 | 83 | 2.0 | 6.0 | 0.00 | 0.00 | 0.00 | 97 | 1008.4 |
| 20260509005459 | 75 | 96 | 2.0 | 6.0 | 0.00 | 0.00 | 0.00 | 97 | 1008.4 |
| 20260509005359 | 75 | 89 | 2.0 | 4.0 | 0.00 | 0.00 | 0.00 | 97 | 1008.4 |
| 20260509005257 | 75 | 79 | 1.0 | 2.0 | 0.00 | 0.00 | 0.00 | 97 | 1008.5 |
| 20260509005158 | 75 | 73 | 1.0 | 2.0 | 0.00 | 0.00 | 0.00 | 97 | 1008.5 |
| 20260509005153 | 75 | 84 | 1.0 | 2.0 | 0.00 | 0.00 | 0.00 | 97 | 1008.5 |
| 20260509005057 | 75 | 65 | 1.0 | 2.0 | 0.00 | 0.00 | 0.00 | 97 | 1008.6 |
| 20260509004957 | 75 | 53 | 1.0 | 2.0 | 0.00 | 0.00 | 0.00 | 97 | 1008.6 |
| 20260509004857 | 75 | 73 | 1.0 | 2.0 | 0.00 | 0.00 | 0.00 | 96 | 1008.6 |
| 20260509004757 | 75 | 66 | 1.0 | 2.0 | 0.00 | 0.00 | 0.00 | 96 | 1008.8 |
| 20260509004654 | 75 | 56 | 1.0 | 2.0 | 0.00 | 0.00 | 0.00 | 96 | 1008.8 |
| 20260509004553 | 75 | 42 | 1.0 | 2.0 | 0.00 | 0.00 | 0.00 | 96 | 1008.8 |
| 20260509004453 | 75 | 21 | 1.0 | 3.0 | 0.00 | 0.00 | 0.00 | 96 | 1008.9 |
| 20260509004350 | 75 | 0 | 1.0 | 3.0 | 0.00 | 0.00 | 0.00 | 96 | 1008.9 |
| 20260509004250 | 75 | 343 | 1.0 | 3.0 | 0.00 | 0.00 | 0.00 | 96 | 1008.9 |
| 20260509004150 | 75 | 337 | 1.0 | 4.0 | 0.00 | 0.00 | 0.00 | 96 | 1008.9 |
| 20260509004051 | 75 | 33 | 2.0 | 5.0 | 0.00 | 0.00 | 0.00 | 96 | 1008.9 |
| 20260509003948 | 75 | 39 | 2.0 | 5.0 | 0.00 | 0.00 | 0.00 | 96 | 1008.9 |
| 20260509003847 | 75 | 29 | 2.0 | 5.0 | 0.00 | 0.00 | 0.00 | 96 | 1008.9 |
| 20260509003748 | 75 | 50 | 2.0 | 5.0 | 0.00 | 0.00 | 0.00 | 96 | 1008.9 |
| 20260509003648 | 75 | 52 | 2.0 | 5.0 | 0.00 | 0.00 | 0.00 | 96 | 1008.9 |
| 20260509003548 | 75 | 12 | 2.0 | 5.0 | 0.00 | 0.00 | 0.00 | 96 | 1008.9 |
| 20260509003448 | 75 | 39 | 1.0 | 5.0 | 0.00 | 0.00 | 0.00 | 96 | 1008.9 |
| 20260509003341 | 75 | 33 | 1.0 | 5.0 | 0.00 | 0.00 | 0.00 | 96 | 1008.9 |
| 20260509003241 | 75 | 58 | 1.0 | 5.0 | 0.00 | 0.00 | 0.00 | 97 | 1008.8 |
| 20260509003147 | 75 | 11 | 1.0 | 5.0 | 0.00 | 0.00 | 0.00 | 97 | 1008.8 |
| 20260509003142 | 75 | 14 | 1.0 | 5.0 | 0.00 | 0.00 | 0.00 | 97 | 1008.8 |
| 20260509003042 | 75 | 33 | 1.0 | 3.0 | 0.00 | 0.00 | 0.00 | 97 | 1008.8 |
| 20260509002938 | 75 | 31 | 1.0 | 3.0 | 0.00 | 0.00 | 0.00 | 97 | 1008.8 |
| 20260509002839 | 75 | 0 | 1.0 | 2.0 | 0.00 | 0.00 | 0.00 | 97 | 1008.8 |
| 20260509002739 | 75 | 59 | 1.0 | 2.0 | 0.00 | 0.00 | 0.00 | 97 | 1008.8 |
| 20260509002639 | 75 | 0 | 1.0 | 2.0 | 0.00 | 0.00 | 0.00 | 97 | 1008.8 |
| 20260509002537 | 75 | 8 | 1.0 | 2.0 | 0.00 | 0.00 | 0.00 | 97 | 1008.9 |
| 20260509002430 | 75 | 18 | 1.0 | 3.0 | 0.00 | 0.00 | 0.00 | 97 | 1008.9 |
| 20260509002329 | 75 | 0 | 1.0 | 4.0 | 0.00 | 0.00 | 0.00 | 96 | 1008.9 |
| 20260509002224 | 75 | 325 | 1.0 | 4.0 | 0.00 | 0.00 | 0.00 | 96 | 1008.9 |
| 20260509002141 | 75 | 278 | 1.0 | 4.0 | 0.00 | 0.00 | 0.00 | 96 | 1008.9 |
| 20260509002124 | 75 | 324 | 1.0 | 4.0 | 0.00 | 0.00 | 0.00 | 96 | 1008.8 |
| 20260509002021 | 75 | 303 | 1.0 | 4.0 | 0.00 | 0.00 | 0.00 | 96 | 1008.8 |
| 20260509001921 | 75 | 135 | 1.0 | 4.0 | 0.00 | 0.00 | 0.00 | 96 | 1008.8 |
| 20260509001821 | 75 | 325 | 1.0 | 4.0 | 0.00 | 0.00 | 0.00 | 96 | 1008.1 |
| 20260509001718 | 75 | 329 | 1.0 | 4.0 | 0.00 | 0.00 | 0.00 | 96 | 1008.1 |
| 20260509001640 | 75 | 306 | 1.0 | 4.0 | 0.00 | 0.00 | 0.00 | 96 | 1008.1 |
| 20260509001615 | 75 | 284 | 2.0 | 4.0 | 0.00 | 0.00 | 0.00 | 96 | 1008.1 |
| 20260509001512 | 75 | 30 | 2.0 | 4.0 | 0.00 | 0.00 | 0.00 | 96 | 1008.1 |
| 20260509001406 | 75 | 348 | 1.0 | 3.0 | 0.00 | 0.00 | 0.00 | 96 | 1008.1 |
| 20260509001303 | 75 | 280 | 2.0 | 3.0 | 0.00 | 0.00 | 0.00 | 96 | 1007.9 |
| 20260509001201 | 75 | 65 | 2.0 | 3.0 | 0.00 | 0.00 | 0.00 | 96 | 1007.9 |
| 20260509001140 | 75 | 96 | 2.0 | 3.0 | 0.00 | 0.00 | 0.00 | 96 | 1007.9 |
| 20260509001100 | 75 | 82 | 1.0 | 3.0 | 0.00 | 0.00 | 0.00 | 96 | 1007.9 |
| 20260509000927 | 75 | 81 | 1.0 | 3.0 | 0.00 | 0.00 | 0.00 | 96 | 1007.9 |
| 20260509000826 | 75 | 55 | 2.0 | 3.0 | 0.00 | 0.00 | 0.00 | 96 | 1007.9 |
| 20260509000721 | 0 | 95 | 2.0 | 3.0 | 0.00 | 0.00 | 0.00 | ||
| 20260509000621 | 75 | 37 | 2.0 | 4.0 | 0.00 | 0.00 | 0.00 | 95 | 1008.2 |
| 20260509000506 | 75 | 105 | 2.0 | 4.0 | 0.00 | 0.00 | 0.00 | 95 | 1008.2 |
| 20260509000348 | 75 | 90 | 2.0 | 4.0 | 0.00 | 0.00 | 0.00 | 95 | 1008.2 |
| 20260509000204 | 75 | 74 | 2.0 | 4.0 | 0.00 | 0.00 | 0.00 | 95 | 1008.2 |
| 20260509000058 | 75 | 91 | 2.0 | 4.0 | 0.00 | 0.00 | 0.00 | 95 | 1008.2 |
| 20260508235939 | 75 | 93 | 1.0 | 4.0 | 0.00 | 0.00 | 0.00 | 95 | 1008.2 |
| 20260508235839 | 75 | 86 | 1.0 | 4.0 | 0.00 | 0.00 | 0.00 | 95 | 1008.2 |
| 20260508235803 | 75 | 103 | 1.0 | 3.0 | 0.00 | 0.00 | 0.00 | 95 | 1008.5 |
| 20260508235721 | 75 | 79 | 1.0 | 4.0 | 0.00 | 0.00 | 0.00 | 95 | 1008.2 |
| 20260508235641 | 75 | 53 | 1.0 | 4.0 | 0.00 | 0.00 | 0.00 | 95 | 1008.3 |
| 20260508235512 | 75 | 80 | 1.0 | 3.0 | 0.00 | 0.00 | 0.00 | 95 | 1008.5 |
| 20260508235412 | 75 | 73 | 1.0 | 3.0 | 0.00 | 0.00 | 0.00 | 95 | 1008.6 |
| 20260508235312 | 75 | 198 | 1.0 | 3.0 | 0.00 | 0.00 | 0.00 | 95 | 1008.7 |
| 20260508235212 | 75 | 307 | 1.0 | 3.0 | 0.00 | 0.00 | 0.00 | 95 | 1008.7 |
| 20260508235113 | 75 | 114 | 1.0 | 3.0 | 0.00 | 0.00 | 0.00 | 95 | 1008.7 |
| 20260508235012 | 75 | 0 | 1.0 | 3.0 | 0.00 | 0.00 | 0.00 | 95 | 1008.6 |
| 20260508234907 | 75 | 21 | 2.0 | 3.0 | 0.00 | 0.00 | 0.00 | 95 | 1008.5 |
| 20260508234806 | 75 | 39 | 2.0 | 3.0 | 0.00 | 0.00 | 0.00 | 95 | 1008.5 |
| 20260508234706 | 75 | 344 | 2.0 | 3.0 | 0.00 | 0.00 | 0.00 | 95 | 1008.5 |
| 20260508234603 | 75 | 55 | 2.0 | 3.0 | 0.00 | 0.00 | 0.00 | 95 | 1008.5 |
| 20260508234536 | 75 | 25 | 2.0 | 3.0 | 0.00 | 0.00 | 0.00 | 95 | 1008.5 |
| 20260508234504 | 75 | 19 | 2.0 | 3.0 | 0.00 | 0.00 | 0.00 | 95 | 1008.5 |
| 20260508234403 | 75 | 48 | 2.0 | 3.0 | 0.00 | 0.00 | 0.00 | 95 | 1008.6 |
| 20260508234300 | 75 | 55 | 2.0 | 3.0 | 0.00 | 0.00 | 0.00 | 95 | 1008.6 |
| 20260508234253 | 75 | 51 | 2.0 | 3.0 | 0.00 | 0.00 | 0.00 | 95 | 1008.7 |
| 20260508234200 | 75 | 57 | 2.0 | 3.0 | 0.00 | 0.00 | 0.00 | 95 | 1008.6 |
| 20260508234138 | 75 | 41 | 2.0 | 3.0 | 0.00 | 0.00 | 0.00 | 95 | 1008.7 |
| 20260508234001 | 75 | 45 | 2.0 | 3.0 | 0.00 | 0.00 | 0.00 | 95 | 1008.7 |
| 20260508233858 | 75 | 70 | 1.0 | 3.0 | 0.00 | 0.00 | 0.00 | 94 | 1009.1 |
| 20260508233751 | 75 | 61 | 1.0 | 3.0 | 0.00 | 0.00 | 0.00 | 94 | 1009.1 |
| 20260508233648 | 75 | 55 | 1.0 | 3.0 | 0.00 | 0.00 | 0.00 | 94 | 1009.1 |
| 20260508233548 | 75 | 35 | 1.0 | 2.0 | 0.00 | 0.00 | 0.00 | 94 | 1009.1 |
| 20260508233532 | 75 | 45 | 1.0 | 2.0 | 0.00 | 0.00 | 0.00 | 94 | 1009.1 |
| 20260508233438 | 75 | 38 | 1.0 | 2.0 | 0.00 | 0.00 | 0.00 | 94 | 1009.1 |
| 20260508233337 | 75 | 357 | 1.0 | 2.0 | 0.00 | 0.00 | 0.00 | 94 | 1009.2 |
| 20260508233238 | 75 | 342 | 1.0 | 2.0 | 0.00 | 0.00 | 0.00 | 94 | 1009.2 |
| 20260508233139 | 75 | 9 | 1.0 | 2.0 | 0.00 | 0.00 | 0.00 | 95 | 1009.2 |
| 20260508233033 | 75 | 353 | 1.0 | 3.0 | 0.00 | 0.00 | 0.00 | 95 | 1009.1 |
| 20260508232931 | 75 | 14 | 1.0 | 3.0 | 0.00 | 0.00 | 0.00 | 95 | 1009.1 |
| 20260508232828 | 75 | 4 | 1.0 | 3.0 | 0.00 | 0.00 | 0.00 | 94 | 1009.0 |
| 20260508232728 | 75 | 311 | 1.0 | 4.0 | 0.00 | 0.00 | 0.00 | 94 | 1008.9 |
| 20260508232627 | 75 | 27 | 1.0 | 4.0 | 0.00 | 0.00 | 0.00 | 94 | 1008.9 |
| 20260508232528 | 75 | 116 | 2.0 | 4.0 | 0.00 | 0.00 | 0.00 | 94 | 1008.9 |
| 20260508232424 | 75 | 60 | 2.0 | 4.0 | 0.00 | 0.00 | 0.00 | 94 | 1008.8 |
| 20260508232324 | 75 | 118 | 2.0 | 4.0 | 0.00 | 0.00 | 0.00 | 94 | 1008.8 |
| 20260508232221 | 75 | 48 | 2.0 | 4.0 | 0.00 | 0.00 | 0.00 | 94 | 1008.8 |
| 20260508232121 | 75 | 49 | 2.0 | 4.0 | 0.00 | 0.00 | 0.00 | 94 | 1008.7 |
| 20260508232023 | 75 | 96 | 2.0 | 4.0 | 0.00 | 0.00 | 0.00 | 94 | 1008.7 |
| 20260508232019 | 75 | 76 | 2.0 | 4.0 | 0.00 | 0.00 | 0.00 | 94 | 1008.7 |
| 20260508231916 | 75 | 61 | 2.0 | 4.0 | 0.00 | 0.00 | 0.00 | 94 | 1008.6 |
| 20260508231813 | 75 | 86 | 2.0 | 4.0 | 0.00 | 0.00 | 0.00 | 94 | 1008.6 |
| 20260508231713 | 75 | 92 | 2.0 | 4.0 | 0.00 | 0.00 | 0.00 | 94 | 1008.6 |
| 20260508231613 | 75 | 129 | 2.0 | 4.0 | 0.00 | 0.00 | 0.00 | 94 | 1008.6 |
| 20260508231524 | 75 | 80 | 2.0 | 5.0 | 0.00 | 0.00 | 0.00 | 94 | 1008.7 |
| 20260508231512 | 75 | 71 | 2.0 | 5.0 | 0.00 | 0.00 | 0.00 | 94 | 1008.7 |
| 20260508231406 | 75 | 123 | 2.0 | 5.0 | 0.00 | 0.00 | 0.00 | 94 | 1008.7 |
| 20260508231303 | 75 | 341 | 2.0 | 5.0 | 0.00 | 0.00 | 0.00 | 94 | 1008.7 |
| 20260508231205 | 75 | 51 | 2.0 | 5.0 | 0.00 | 0.00 | 0.00 | 94 | 1008.7 |
| 20260508231058 | 75 | 46 | 2.0 | 6.0 | 0.00 | 0.00 | 0.00 | 94 | 1008.7 |
| 20260508231021 | 75 | 102 | 2.0 | 6.0 | 0.00 | 0.00 | 0.00 | 94 | 1008.6 |
| 20260508230953 | 75 | 76 | 2.0 | 6.0 | 0.00 | 0.00 | 0.00 | 94 | 1008.6 |
| 20260508230850 | 75 | 72 | 2.0 | 6.0 | 0.00 | 0.00 | 0.00 | 94 | 1008.6 |
| 20260508230750 | 75 | 83 | 2.0 | 6.0 | 0.00 | 0.00 | 0.00 | 94 | 1008.6 |
| 20260508230651 | 75 | 66 | 2.0 | 6.0 | 0.00 | 0.00 | 0.00 | 94 | 1008.6 |
| 20260508230547 | 75 | 88 | 2.0 | 6.0 | 0.00 | 0.00 | 0.00 | 95 | 1008.6 |
| 20260508230514 | 75 | 91 | 2.0 | 6.0 | 0.00 | 0.00 | 0.00 | 95 | 1008.6 |
| 20260508230449 | 75 | 98 | 2.0 | 6.0 | 0.00 | 0.00 | 0.00 | 95 | 1008.6 |
| 20260508230349 | 75 | 71 | 2.0 | 6.0 | 0.00 | 0.00 | 0.00 | 95 | 1008.6 |
| 20260508230246 | 75 | 50 | 2.0 | 6.0 | 0.00 | 0.00 | 0.00 | 95 | 1008.6 |
| 20260508230145 | 74 | 111 | 2.0 | 6.0 | 0.00 | 0.00 | 0.00 | 95 | 1008.7 |
| 20260508230047 | 74 | 77 | 2.0 | 6.0 | 0.00 | 0.00 | 0.00 | 95 | 1008.7 |
| 20260508230012 | 74 | 84 | 2.0 | 6.0 | 0.00 | 0.00 | 0.00 | 95 | 1008.7 |
| 20260508225916 | 74 | 123 | 2.0 | 6.0 | 0.00 | 0.00 | 0.00 | 95 | 1008.8 |
| 20260508225817 | 74 | 85 | 2.0 | 6.0 | 0.00 | 0.00 | 0.00 | 95 | 1008.8 |
| 20260508225707 | 74 | 80 | 2.0 | 4.0 | 0.00 | 0.00 | 0.00 | 95 | 1008.8 |
| 20260508225601 | 74 | 86 | 2.0 | 3.0 | 0.00 | 0.00 | 0.00 | 95 | 1008.8 |
| 20260508225501 | 74 | 303 | 2.0 | 3.0 | 0.00 | 0.00 | 0.00 | 95 | 1008.8 |
| 20260508225349 | 74 | 100 | 2.0 | 3.0 | 0.00 | 0.00 | 0.00 | 95 | 1008.9 |
| 20260508225246 | 74 | 40 | 1.0 | 3.0 | 0.00 | 0.00 | 0.00 | 95 | 1008.9 |
| 20260508225146 | 74 | 86 | 1.0 | 3.0 | 0.00 | 0.00 | 0.00 | 95 | 1008.9 |
| 20260508225046 | 74 | 65 | 1.0 | 2.0 | 0.00 | 0.00 | 0.00 | 95 | 1008.9 |
| 20260508225000 | 74 | 76 | 1.0 | 2.0 | 0.00 | 0.00 | 0.00 | 95 | 1008.9 |
| 20260508224946 | 74 | 176 | 1.0 | 2.0 | 0.00 | 0.00 | 0.00 | 95 | 1008.9 |
| 20260508224843 | 74 | 79 | 1.0 | 3.0 | 0.00 | 0.00 | 0.00 | 95 | 1008.9 |
| 20260508224743 | 74 | 122 | 1.0 | 4.0 | 0.00 | 0.00 | 0.00 | 95 | 1008.8 |
| 20260508224644 | 74 | 55 | 1.0 | 4.0 | 0.00 | 0.00 | 0.00 | 95 | 1008.8 |
| 20260508224543 | 74 | 61 | 1.0 | 4.0 | 0.00 | 0.00 | 0.00 | 95 | 1008.9 |
| 20260508224500 | 74 | 55 | 1.0 | 4.0 | 0.00 | 0.00 | 0.00 | 95 | 1008.9 |
| 20260508224443 | 74 | 49 | 1.0 | 4.0 | 0.00 | 0.00 | 0.00 | 95 | 1008.9 |
| 20260508224340 | 74 | 84 | 2.0 | 4.0 | 0.00 | 0.00 | 0.00 | 95 | 1008.9 |
| 20260508224238 | 74 | 12 | 2.0 | 4.0 | 0.00 | 0.00 | 0.00 | 95 | 1008.9 |
| 20260508224138 | 74 | 100 | 2.0 | 4.0 | 0.00 | 0.00 | 0.00 | 95 | 1008.9 |
| 20260508224039 | 74 | 87 | 2.0 | 4.0 | 0.00 | 0.00 | 0.00 | 95 | 1008.9 |
| 20260508223951 | 74 | 61 | 2.0 | 5.0 | 0.00 | 0.00 | 0.00 | 95 | 1008.9 |
| 20260508223939 | 74 | 84 | 2.0 | 5.0 | 0.00 | 0.00 | 0.00 | 95 | 1008.9 |
| 20260508223839 | 74 | 102 | 2.0 | 5.0 | 0.00 | 0.00 | 0.00 | 95 | 1008.8 |
| 20260508223738 | 74 | 9 | 2.0 | 5.0 | 0.00 | 0.00 | 0.00 | 95 | 1008.7 |
| 20260508223638 | 74 | 90 | 2.0 | 5.0 | 0.00 | 0.00 | 0.00 | 95 | 1008.7 |
| 20260508223538 | 74 | 69 | 2.0 | 5.0 | 0.00 | 0.00 | 0.00 | 95 | 1008.7 |
| 20260508223451 | 74 | 97 | 2.0 | 5.0 | 0.00 | 0.00 | 0.00 | 95 | 1008.7 |
| 20260508223434 | 74 | 50 | 2.0 | 5.0 | 0.00 | 0.00 | 0.00 | 95 | 1008.7 |
| 20260508223334 | 74 | 121 | 2.0 | 5.0 | 0.00 | 0.00 | 0.00 | 95 | 1008.7 |
| 20260508223234 | 74 | 103 | 2.0 | 5.0 | 0.00 | 0.00 | 0.00 | 96 | 1008.7 |
| 20260508223134 | 74 | 86 | 2.0 | 5.0 | 0.00 | 0.00 | 0.00 | 96 | 1008.7 |
| 20260508223034 | 74 | 93 | 2.0 | 5.0 | 0.00 | 0.00 | 0.00 | 96 | 1008.7 |
| 20260508222951 | 74 | 351 | 2.0 | 4.0 | 0.00 | 0.00 | 0.00 | 96 | 1008.7 |
| 20260508222934 | 74 | 63 | 2.0 | 4.0 | 0.00 | 0.00 | 0.00 | 96 | 1008.7 |
| 20260508222834 | 74 | 47 | 2.0 | 4.0 | 0.00 | 0.00 | 0.00 | 96 | 1008.7 |
| 20260508222734 | 74 | 48 | 2.0 | 4.0 | 0.00 | 0.00 | 0.00 | 96 | 1008.7 |
| 20260508222713 | 74 | 7 | 2.0 | 5.0 | 0.00 | 0.00 | 0.00 | 96 | 1008.7 |
| 20260508222631 | 74 | 30 | 2.0 | 5.0 | 0.00 | 0.00 | 0.00 | 96 | 1008.7 |
| 20260508222557 | 74 | 26 | 2.0 | 5.0 | 0.00 | 0.00 | 0.00 | 96 | 1008.7 |
| 20260508222432 | 74 | 124 | 2.0 | 5.0 | 0.00 | 0.00 | 0.00 | 96 | 1008.7 |
| 20260508222332 | 74 | 67 | 2.0 | 5.0 | 0.00 | 0.00 | 0.00 | 96 | 1008.7 |
| 20260508222232 | 74 | 58 | 2.0 | 5.0 | 0.00 | 0.00 | 0.00 | 96 | 1008.7 |
| 20260508222129 | 74 | 63 | 2.0 | 5.0 | 0.00 | 0.00 | 0.00 | 96 | 1008.7 |
| 20260508222029 | 74 | 40 | 2.0 | 5.0 | 0.00 | 0.00 | 0.00 | 96 | 1008.7 |
| 20260508221951 | 74 | 63 | 2.0 | 5.0 | 0.00 | 0.00 | 0.00 | 96 | 1008.7 |
| 20260508221925 | 74 | 33 | 2.0 | 5.0 | 0.00 | 0.00 | 0.00 | 96 | 1008.7 |
| 20260508221826 | 74 | 63 | 2.0 | 5.0 | 0.00 | 0.00 | 0.00 | 96 | 1008.7 |
| 20260508221726 | 74 | 12 | 2.0 | 5.0 | 0.00 | 0.00 | 0.00 | 96 | 1008.7 |
| 20260508221720 | 74 | 65 | 2.0 | 4.0 | 0.00 | 0.00 | 0.00 | 97 | 1008.8 |
| 20260508221626 | 74 | 19 | 2.0 | 5.0 | 0.00 | 0.00 | 0.00 | 97 | 1008.7 |
| 20260508221557 | 74 | 44 | 2.0 | 4.0 | 0.00 | 0.00 | 0.00 | 97 | 1008.8 |
| 20260508221422 | 74 | 23 | 2.0 | 4.0 | 0.00 | 0.00 | 0.00 | 97 | 1008.8 |
| 20260508221319 | 73 | 61 | 2.0 | 3.0 | 0.00 | 0.00 | 0.00 | 97 | 1008.8 |
| 20260508221219 | 73 | 44 | 2.0 | 3.0 | 0.00 | 0.00 | 0.00 | 97 | 1008.8 |
| 20260508221210 | 73 | 45 | 2.0 | 4.0 | 0.00 | 0.00 | 0.00 | 97 | 1008.8 |
| 20260508221116 | 73 | 29 | 2.0 | 3.0 | 0.00 | 0.00 | 0.00 | 97 | 1008.8 |
| 20260508221054 | 73 | 38 | 2.0 | 4.0 | 0.00 | 0.00 | 0.00 | 97 | 1008.8 |
| 20260508220910 | 73 | 37 | 2.0 | 4.0 | 0.00 | 0.00 | 0.00 | 97 | 1008.9 |
| 20260508220808 | 73 | 42 | 2.0 | 4.0 | 0.00 | 0.00 | 0.00 | 97 | 1008.9 |
| 20260508220707 | 73 | 353 | 2.0 | 4.0 | 0.00 | 0.00 | 0.00 | 97 | 1009.0 |
| 20260508220605 | 73 | 48 | 2.0 | 4.0 | 0.00 | 0.00 | 0.00 | 97 | 1009.0 |
| 20260508220505 | 73 | 20 | 1.0 | 4.0 | 0.00 | 0.00 | 0.00 | 97 | 1009.1 |
| 20260508220445 | 73 | 51 | 1.0 | 4.0 | 0.00 | 0.00 | 0.00 | 97 | 1009.1 |
| 20260508220405 | 73 | 77 | 1.0 | 4.0 | 0.00 | 0.00 | 0.00 | 97 | 1009.1 |
| 20260508220259 | 73 | 33 | 1.0 | 4.0 | 0.00 | 0.00 | 0.00 | 97 | 1009.1 |
| 20260508220155 | 73 | 1 | 1.0 | 4.0 | 0.00 | 0.00 | 0.00 | 97 | 1009.1 |
| 20260508220057 | 73 | 22 | 1.0 | 4.0 | 0.00 | 0.00 | 0.00 | 98 | 1009.0 |
| 20260508215955 | 73 | 309 | 1.0 | 3.0 | 0.00 | 0.00 | 0.00 | 98 | 1009.0 |
| 20260508215942 | 73 | 66 | 1.0 | 3.0 | 0.00 | 0.00 | 0.00 | 98 | 1009.0 |
| 20260508215853 | 73 | 58 | 1.0 | 3.0 | 0.00 | 0.00 | 0.00 | 98 | 1009.0 |
| 20260508215750 | 73 | 63 | 1.0 | 3.0 | 0.00 | 0.00 | 0.00 | 98 | 1009.0 |
| 20260508215647 | 73 | 46 | 1.0 | 3.0 | 0.00 | 0.00 | 0.00 | 98 | 1009.0 |
| 20260508215547 | 73 | 56 | 1.0 | 3.0 | 0.00 | 0.00 | 0.00 | 98 | 1009.0 |
| 20260508215441 | 73 | 35 | 1.0 | 3.0 | 0.00 | 0.00 | 0.00 | 98 | 1009.0 |
| 20260508215338 | 73 | 87 | 1.0 | 3.0 | 0.00 | 0.00 | 0.00 | 98 | 1009.0 |
| 20260508215238 | 73 | 54 | 1.0 | 3.0 | 0.00 | 0.00 | 0.00 | 98 | 1008.9 |
| 20260508215135 | 73 | 0 | 1.0 | 3.0 | 0.00 | 0.00 | 0.00 | 98 | 1008.9 |
| 20260508215032 | 73 | 11 | 1.0 | 3.0 | 0.00 | 0.00 | 0.00 | 98 | 1008.9 |
| 20260508214940 | 73 | 308 | 1.0 | 3.0 | 0.00 | 0.00 | 0.00 | 98 | 1008.9 |
| 20260508214932 | 73 | 291 | 1.0 | 3.0 | 0.00 | 0.00 | 0.00 | 98 | 1008.9 |
| 20260508214832 | 73 | 34 | 1.0 | 3.0 | 0.00 | 0.00 | 0.00 | 98 | 1008.8 |
| 20260508214729 | 73 | 40 | 1.0 | 3.0 | 0.00 | 0.00 | 0.00 | 98 | 1008.8 |
| 20260508214629 | 72 | 72 | 1.0 | 3.0 | 0.00 | 0.00 | 0.00 | 98 | 1008.8 |
| 20260508214526 | 72 | 53 | 1.0 | 3.0 | 0.00 | 0.00 | 0.00 | 98 | 1008.8 |
| 20260508214437 | 72 | 59 | 1.0 | 3.0 | 0.00 | 0.00 | 0.00 | 98 | 1008.9 |
| 20260508214414 | 72 | 10 | 1.0 | 3.0 | 0.00 | 0.00 | 0.00 | 98 | 1008.9 |
| 20260508214314 | 72 | 59 | 1.0 | 3.0 | 0.00 | 0.00 | 0.00 | 98 | 1009.0 |
| 20260508214214 | 72 | 26 | 1.0 | 3.0 | 0.00 | 0.00 | 0.00 | 98 | 1009.0 |
| 20260508214114 | 72 | 32 | 1.0 | 3.0 | 0.00 | 0.00 | 0.00 | 98 | 1009.0 |
| 20260508214014 | 72 | 38 | 1.0 | 3.0 | 0.00 | 0.00 | 0.00 | 98 | 1009.1 |
| 20260508213936 | 72 | 354 | 1.0 | 3.0 | 0.00 | 0.00 | 0.00 | 98 | 1009.1 |
| 20260508213914 | 72 | 38 | 1.0 | 3.0 | 0.00 | 0.00 | 0.00 | 98 | 1009.1 |
| 20260508213811 | 72 | 59 | 1.0 | 3.0 | 0.00 | 0.00 | 0.00 | 98 | 1009.1 |
| 20260508213705 | 72 | 51 | 1.0 | 3.0 | 0.00 | 0.00 | 0.00 | 98 | 1009.2 |
| 20260508213605 | 72 | 41 | 1.0 | 3.0 | 0.00 | 0.00 | 0.00 | 98 | 1009.2 |
| 20260508213502 | 72 | 21 | 1.0 | 3.0 | 0.00 | 0.00 | 0.00 | 98 | 1009.2 |
| 20260508213437 | 72 | 34 | 1.0 | 3.0 | 0.00 | 0.00 | 0.00 | 98 | 1009.2 |
| 20260508213402 | 72 | 54 | 1.0 | 3.0 | 0.00 | 0.00 | 0.00 | 98 | 1009.2 |
| 20260508213302 | 72 | 17 | 1.0 | 3.0 | 0.00 | 0.00 | 0.00 | 98 | 1009.2 |
| 20260508213202 | 72 | 0 | 1.0 | 3.0 | 0.00 | 0.00 | 0.00 | 98 | 1009.2 |
| 20260508213059 | 72 | 50 | 1.0 | 3.0 | 0.00 | 0.00 | 0.00 | 98 | 1009.2 |
| 20260508212959 | 72 | 11 | 1.0 | 3.0 | 0.00 | 0.00 | 0.00 | 98 | 1009.2 |
| 20260508212937 | 72 | 46 | 1.0 | 3.0 | 0.00 | 0.00 | 0.00 | 98 | 1009.2 |
| 20260508212900 | 72 | 95 | 1.0 | 3.0 | 0.00 | 0.00 | 0.00 | 98 | 1009.2 |
| 20260508212759 | 72 | 35 | 1.0 | 3.0 | 0.00 | 0.00 | 0.00 | 98 | 1009.2 |
| 20260508212658 | 72 | 69 | 1.0 | 3.0 | 0.00 | 0.00 | 0.00 | 98 | 1009.2 |
| 20260508212600 | 72 | 77 | 1.0 | 3.0 | 0.00 | 0.00 | 0.00 | 98 | 1009.2 |
| 20260508212456 | 72 | 0 | 1.0 | 4.0 | 0.00 | 0.00 | 0.00 | 98 | 1009.2 |
| 20260508212437 | 72 | 97 | 1.0 | 4.0 | 0.00 | 0.00 | 0.00 | 98 | 1009.3 |
| 20260508212353 | 72 | 0 | 1.0 | 4.0 | 0.00 | 0.00 | 0.00 | 98 | 1009.3 |
| 20260508212253 | 72 | 62 | 2.0 | 4.0 | 0.00 | 0.00 | 0.00 | 98 | 1009.3 |
| 20260508212155 | 72 | 96 | 1.0 | 4.0 | 0.00 | 0.00 | 0.00 | 98 | 1009.3 |
| 20260508212150 | 72 | 227 | 1.0 | 4.0 | 0.00 | 0.00 | 0.00 | 97 | 1009.4 |
| 20260508212053 | 72 | 79 | 1.0 | 4.0 | 0.00 | 0.00 | 0.00 | 97 | 1009.4 |
| 20260508212030 | 72 | 13 | 1.0 | 4.0 | 0.00 | 0.00 | 0.00 | 97 | 1009.4 |
| 20260508211851 | 72 | 113 | 1.0 | 4.0 | 0.00 | 0.00 | 0.00 | 97 | 1009.4 |
| 20260508211751 | 72 | 135 | 1.0 | 4.0 | 0.00 | 0.00 | 0.00 | 97 | 1009.4 |
| 20260508211652 | 72 | 100 | 1.0 | 3.0 | 0.00 | 0.00 | 0.00 | 97 | 1009.3 |
| 20260508211647 | 72 | 45 | 1.0 | 4.0 | 0.00 | 0.00 | 0.00 | 97 | 1009.4 |
| 20260508211547 | 72 | 78 | 1.0 | 4.0 | 0.00 | 0.00 | 0.00 | 97 | 1009.4 |
| 20260508211531 | 72 | 101 | 1.0 | 3.0 | 0.00 | 0.00 | 0.00 | 97 | 1009.3 |
| 20260508211348 | 72 | 103 | 1.0 | 3.0 | 0.00 | 0.00 | 0.00 | 97 | 1009.3 |
| 20260508211245 | 72 | 107 | 1.0 | 2.0 | 0.00 | 0.00 | 0.00 | 97 | 1009.4 |
| 20260508211145 | 72 | 0 | 1.0 | 2.0 | 0.00 | 0.00 | 0.00 | 97 | 1009.4 |
| 20260508211044 | 72 | 68 | 1.0 | 2.0 | 0.00 | 0.00 | 0.00 | 97 | 1009.4 |
| 20260508210945 | 72 | 0 | 1.0 | 2.0 | 0.00 | 0.00 | 0.00 | 97 | 1009.4 |
| 20260508210925 | 72 | 89 | 1.0 | 2.0 | 0.00 | 0.00 | 0.00 | 97 | 1009.4 |
| 20260508210844 | 72 | 331 | 1.0 | 2.0 | 0.00 | 0.00 | 0.00 | 97 | 1009.4 |
| 20260508210745 | 72 | 95 | 1.0 | 2.0 | 0.00 | 0.00 | 0.00 | 97 | 1009.4 |
| 20260508210653 | 72 | 31 | 1.0 | 3.0 | 0.00 | 0.00 | 0.00 | 97 | 1009.4 |
| 20260508210642 | 72 | 94 | 1.0 | 3.0 | 0.00 | 0.00 | 0.00 | 97 | 1009.3 |
| 20260508210541 | 72 | 86 | 1.0 | 3.0 | 0.00 | 0.00 | 0.00 | 97 | 1009.4 |
| 20260508210531 | 72 | 94 | 1.0 | 3.0 | 0.00 | 0.00 | 0.00 | 97 | 1009.4 |
| 20260508210340 | 72 | 106 | 1.0 | 3.0 | 0.00 | 0.00 | 0.00 | 97 | 1009.4 |
| 20260508210240 | 72 | 38 | 1.0 | 3.0 | 0.00 | 0.00 | 0.00 | 97 | 1009.4 |
| 20260508210140 | 72 | 48 | 1.0 | 3.0 | 0.00 | 0.00 | 0.00 | 97 | 1009.4 |
| 20260508210046 | 72 | 58 | 1.0 | 3.0 | 0.00 | 0.00 | 0.00 | 97 | 1009.4 |
| 20260508205941 | 72 | 38 | 1.0 | 3.0 | 0.00 | 0.00 | 0.00 | 97 | 1009.4 |
| 20260508205925 | 72 | 320 | 1.0 | 3.0 | 0.00 | 0.00 | 0.00 | 97 | 1009.4 |
| 20260508205841 | 72 | 43 | 1.0 | 3.0 | 0.00 | 0.00 | 0.00 | 96 | 1009.4 |
| 20260508205740 | 72 | 96 | 1.0 | 3.0 | 0.00 | 0.00 | 0.00 | 96 | 1009.4 |
| 20260508205638 | 72 | 88 | 1.0 | 3.0 | 0.00 | 0.00 | 0.00 | 97 | 1009.4 |
| 20260508205535 | 72 | 0 | 1.0 | 3.0 | 0.00 | 0.00 | 0.00 | 96 | 1009.4 |
| 20260508205435 | 72 | 0 | 1.0 | 4.0 | 0.00 | 0.00 | 0.00 | 96 | 1009.4 |
| 20260508205422 | 72 | 190 | 1.0 | 4.0 | 0.00 | 0.00 | 0.00 | 96 | 1009.4 |
| 20260508205332 | 72 | 0 | 1.0 | 4.0 | 0.00 | 0.00 | 0.00 | 96 | 1009.4 |
| 20260508205233 | 72 | 102 | 1.0 | 4.0 | 0.00 | 0.00 | 0.00 | 96 | 1009.4 |
| 20260508205132 | 72 | 102 | 1.0 | 4.0 | 0.00 | 0.00 | 0.00 | 96 | 1009.4 |
| 20260508205033 | 72 | 59 | 1.0 | 4.0 | 0.00 | 0.00 | 0.00 | 96 | 1009.5 |
| 20260508204930 | 72 | 41 | 1.0 | 4.0 | 0.00 | 0.00 | 0.00 | 96 | 1009.5 |
| 20260508204914 | 72 | 53 | 1.0 | 4.0 | 0.00 | 0.00 | 0.00 | 96 | 1009.5 |
| 20260508204830 | 72 | 58 | 1.0 | 4.0 | 0.00 | 0.00 | 0.00 | 96 | 1009.5 |
| 20260508204727 | 72 | 30 | 1.0 | 4.0 | 0.00 | 0.00 | 0.00 | 96 | 1009.5 |
| 20260508204627 | 72 | 58 | 1.0 | 4.0 | 0.00 | 0.00 | 0.00 | 95 | 1009.5 |
| 20260508204526 | 72 | 0 | 1.0 | 4.0 | 0.00 | 0.00 | 0.00 | 95 | 1009.5 |
| 20260508204424 | 72 | 71 | 1.0 | 4.0 | 0.00 | 0.00 | 0.00 | 95 | 1009.5 |
| 20260508204411 | 72 | 79 | 1.0 | 4.0 | 0.00 | 0.00 | 0.00 | 95 | 1009.5 |
| 20260508204318 | 72 | 106 | 1.0 | 2.0 | 0.00 | 0.00 | 0.00 | 95 | 1009.5 |
| 20260508204218 | 72 | 0 | 1.0 | 2.0 | 0.00 | 0.00 | 0.00 | 95 | 1009.5 |
| 20260508204115 | 72 | 34 | 1.0 | 3.0 | 0.00 | 0.00 | 0.00 | 95 | 1009.5 |
| 20260508204014 | 73 | 0 | 1.0 | 3.0 | 0.00 | 0.00 | 0.00 | 95 | 1009.6 |
| 20260508203910 | 73 | 74 | 1.0 | 3.0 | 0.00 | 0.00 | 0.00 | 95 | 1009.6 |
| 20260508203815 | 73 | 96 | 1.0 | 3.0 | 0.00 | 0.00 | 0.00 | 94 | 1009.6 |
| 20260508203712 | 73 | 107 | 1.0 | 3.0 | 0.00 | 0.00 | 0.00 | 94 | 1009.6 |
| 20260508203609 | 73 | 49 | 1.0 | 3.0 | 0.00 | 0.00 | 0.00 | 94 | 1009.6 |
| 20260508203509 | 73 | 65 | 1.0 | 3.0 | 0.00 | 0.00 | 0.00 | 94 | 1009.6 |
| 20260508203410 | 73 | 2 | 1.0 | 3.0 | 0.00 | 0.00 | 0.00 | 94 | 1009.6 |
| 20260508203302 | 73 | 352 | 1.0 | 3.0 | 0.00 | 0.00 | 0.00 | 93 | 1009.6 |
| 20260508203202 | 73 | 0 | 1.0 | 4.0 | 0.00 | 0.00 | 0.00 | 93 | 1009.6 |
| 20260508203100 | 73 | 57 | 2.0 | 4.0 | 0.00 | 0.00 | 0.00 | 93 | 1009.6 |
| 20260508202957 | 73 | 97 | 2.0 | 4.0 | 0.00 | 0.00 | 0.00 | 93 | 1009.6 |
| 20260508202908 | 73 | 38 | 2.0 | 4.0 | 0.00 | 0.00 | 0.00 | 93 | 1009.6 |
| 20260508202857 | 73 | 35 | 2.0 | 4.0 | 0.00 | 0.00 | 0.00 | 93 | 1009.6 |
| 20260508202758 | 73 | 21 | 1.0 | 4.0 | 0.00 | 0.00 | 0.00 | 93 | 1009.7 |
| 20260508202657 | 73 | 336 | 1.0 | 4.0 | 0.00 | 0.00 | 0.00 | 92 | 1009.7 |
| 20260508202557 | 73 | 56 | 1.0 | 4.0 | 0.00 | 0.00 | 0.00 | 92 | 1009.7 |
| 20260508202457 | 73 | 78 | 1.0 | 4.0 | 0.00 | 0.00 | 0.00 | 92 | 1009.7 |
| 20260508202407 | 73 | 141 | 1.0 | 4.0 | 0.00 | 0.00 | 0.00 | 92 | 1009.7 |
| 20260508202354 | 73 | 95 | 2.0 | 4.0 | 0.00 | 0.00 | 0.00 | 92 | 1009.7 |
| 20260508202254 | 73 | 213 | 2.0 | 4.0 | 0.00 | 0.00 | 0.00 | 92 | 1009.7 |
| 20260508202155 | 73 | 34 | 1.0 | 4.0 | 0.00 | 0.00 | 0.00 | 92 | 1009.7 |
| 20260508202054 | 73 | 69 | 1.0 | 4.0 | 0.00 | 0.00 | 0.00 | 92 | 1009.7 |
| 20260508201955 | 73 | 98 | 1.0 | 3.0 | 0.00 | 0.00 | 0.00 | 92 | 1009.7 |
| 20260508201907 | 73 | 113 | 1.0 | 3.0 | 0.00 | 0.00 | 0.00 | 92 | 1009.7 |
| 20260508201855 | 73 | 162 | 2.0 | 4.0 | 0.00 | 0.00 | 0.00 | 92 | 1009.7 |
| 20260508201751 | 73 | 242 | 2.0 | 5.0 | 0.00 | 0.00 | 0.00 | 92 | 1009.7 |
| 20260508201656 | 73 | 47 | 2.0 | 5.0 | 0.00 | 0.00 | 0.00 | 92 | 1009.7 |
| 20260508201552 | 73 | 37 | 2.0 | 5.0 | 0.00 | 0.00 | 0.00 | 92 | 1009.8 |
| 20260508201452 | 73 | 12 | 2.0 | 5.0 | 0.00 | 0.00 | 0.00 | 92 | 1009.8 |
| 20260508201408 | 73 | 43 | 2.0 | 5.0 | 0.00 | 0.00 | 0.00 | 92 | 1009.8 |
| 20260508201351 | 73 | 338 | 2.0 | 5.0 | 0.00 | 0.00 | 0.00 | 92 | 1009.8 |
| 20260508201251 | 73 | 0 | 2.0 | 5.0 | 0.00 | 0.00 | 0.00 | 92 | 1009.8 |
| 20260508201152 | 73 | 48 | 2.0 | 5.0 | 0.00 | 0.00 | 0.00 | 92 | 1009.9 |
| 20260508201051 | 73 | 52 | 2.0 | 5.0 | 0.00 | 0.00 | 0.00 | 92 | 1009.9 |
| 20260508200951 | 73 | 50 | 2.0 | 5.0 | 0.00 | 0.00 | 0.00 | 91 | 1010.0 |
| 20260508200908 | 73 | 36 | 2.0 | 5.0 | 0.00 | 0.00 | 0.00 | 91 | 1010.0 |
| 20260508200845 | 73 | 354 | 2.0 | 5.0 | 0.00 | 0.00 | 0.00 | 91 | 1010.0 |
| 20260508200745 | 73 | 30 | 2.0 | 5.0 | 0.00 | 0.00 | 0.00 | 91 | 1010.0 |
| 20260508200645 | 73 | 8 | 2.0 | 5.0 | 0.00 | 0.00 | 0.00 | 91 | 1010.0 |
| 20260508200545 | 73 | 9 | 2.0 | 5.0 | 0.00 | 0.00 | 0.00 | 91 | 1010.0 |
| 20260508200442 | 73 | 356 | 1.0 | 4.0 | 0.00 | 0.00 | 0.00 | 91 | 1010.0 |
| 20260508200409 | 73 | 49 | 1.0 | 4.0 | 0.00 | 0.00 | 0.00 | 91 | 1010.0 |
| 20260508200340 | 73 | 2 | 1.0 | 4.0 | 0.00 | 0.00 | 0.00 | 91 | 1010.0 |
| 20260508200240 | 73 | 342 | 1.0 | 4.0 | 0.00 | 0.00 | 0.00 | 91 | 1010.0 |
| 20260508200140 | 73 | 36 | 1.0 | 4.0 | 0.00 | 0.00 | 0.00 | 91 | 1010.0 |
| 20260508200039 | 73 | 3 | 1.0 | 4.0 | 0.00 | 0.00 | 0.00 | 91 | 1010.0 |
| 20260508195940 | 73 | 43 | 1.0 | 4.0 | 0.00 | 0.00 | 0.00 | 91 | 1010.1 |
| 20260508195909 | 73 | 24 | 1.0 | 4.0 | 0.00 | 0.00 | 0.00 | 91 | 1010.1 |
| 20260508195840 | 73 | 44 | 1.0 | 4.0 | 0.00 | 0.00 | 0.00 | 91 | 1010.1 |
| 20260508195739 | 73 | 47 | 1.0 | 4.0 | 0.00 | 0.00 | 0.00 | 91 | 1010.1 |
| 20260508195634 | 73 | 14 | 2.0 | 4.0 | 0.00 | 0.00 | 0.00 | 91 | 1010.1 |
| 20260508195534 | 73 | 147 | 2.0 | 4.0 | 0.00 | 0.00 | 0.00 | 91 | 1010.1 |
| 20260508195434 | 73 | 131 | 2.0 | 4.0 | 0.00 | 0.00 | 0.00 | 91 | 1010.1 |
| 20260508195408 | 73 | 103 | 2.0 | 4.0 | 0.00 | 0.00 | 0.00 | 91 | 1010.1 |
| 20260508195334 | 73 | 14 | 2.0 | 4.0 | 0.00 | 0.00 | 0.00 | 91 | 1010.2 |
| 20260508195230 | 73 | 40 | 2.0 | 4.0 | 0.00 | 0.00 | 0.00 | 91 | 1010.2 |
| 20260508195127 | 73 | 341 | 2.0 | 4.0 | 0.00 | 0.00 | 0.00 | 91 | 1010.2 |
| 20260508195027 | 73 | 32 | 2.0 | 7.0 | 0.00 | 0.00 | 0.00 | 91 | 1010.2 |
| 20260508194922 | 73 | 19 | 3.0 | 8.0 | 0.00 | 0.00 | 0.00 | 91 | 1010.2 |
| 20260508194902 | 73 | 1 | 3.0 | 8.0 | 0.00 | 0.00 | 0.00 | 91 | 1010.2 |
| 20260508194822 | 73 | 40 | 3.0 | 8.0 | 0.00 | 0.00 | 0.00 | 91 | 1010.2 |
| 20260508194716 | 73 | 53 | 3.0 | 8.0 | 0.00 | 0.00 | 0.00 | 91 | 1010.2 |
| 20260508194612 | 73 | 23 | 3.0 | 8.0 | 0.00 | 0.00 | 0.00 | 91 | 1010.2 |
| 20260508194507 | 73 | 17 | 3.0 | 8.0 | 0.00 | 0.00 | 0.00 | 91 | 1010.2 |
| 20260508194407 | 73 | 279 | 3.0 | 8.0 | 0.00 | 0.00 | 0.00 | 91 | 1010.2 |
| 20260508194359 | 73 | 24 | 3.0 | 8.0 | 0.00 | 0.00 | 0.00 | 91 | 1010.2 |
| 20260508194304 | 73 | 9 | 3.0 | 8.0 | 0.00 | 0.00 | 0.00 | 91 | 1010.2 |
| 20260508194204 | 73 | 7 | 4.0 | 8.0 | 0.00 | 0.00 | 0.00 | 91 | 1010.1 |
| 20260508194102 | 73 | 15 | 4.0 | 8.0 | 0.00 | 0.00 | 0.00 | 91 | 1010.1 |
| 20260508193958 | 73 | 27 | 4.0 | 8.0 | 0.00 | 0.00 | 0.00 | 91 | 1010.1 |
| 20260508193858 | 73 | 26 | 3.0 | 8.0 | 0.00 | 0.00 | 0.00 | 91 | 1010.1 |
| 20260508193756 | 73 | 35 | 3.0 | 8.0 | 0.00 | 0.00 | 0.00 | 91 | 1010.1 |
| 20260508193656 | 73 | 37 | 3.0 | 8.0 | 0.00 | 0.00 | 0.00 | 91 | 1010.1 |
| 20260508193612 | 73 | 328 | 3.0 | 8.0 | 0.00 | 0.00 | 0.00 | 91 | 1010.1 |
| 20260508193555 | 73 | 213 | 3.0 | 8.0 | 0.00 | 0.00 | 0.00 | 91 | 1010.1 |
| 20260508193459 | 73 | 33 | 3.0 | 8.0 | 0.00 | 0.00 | 0.00 | 91 | 1010.1 |
| 20260508193349 | 73 | 21 | 3.0 | 8.0 | 0.00 | 0.00 | 0.00 | 91 | 1010.1 |
| 20260508193249 | 73 | 22 | 3.0 | 8.0 | 0.00 | 0.00 | 0.00 | 91 | 1010.2 |
| 20260508193149 | 73 | 61 | 3.0 | 7.0 | 0.00 | 0.00 | 0.00 | 91 | 1010.2 |
| 20260508193046 | 73 | 319 | 3.0 | 7.0 | 0.00 | 0.00 | 0.00 | 91 | 1010.2 |
| 20260508192943 | 73 | 44 | 4.0 | 8.0 | 0.00 | 0.00 | 0.00 | 91 | 1010.2 |
| 20260508192854 | 73 | 53 | 4.0 | 8.0 | 0.00 | 0.00 | 0.00 | 91 | 1010.2 |
| 20260508192843 | 73 | 73 | 4.0 | 8.0 | 0.00 | 0.00 | 0.00 | 91 | 1010.2 |
| 20260508192743 | 73 | 18 | 4.0 | 8.0 | 0.00 | 0.00 | 0.00 | 91 | 1010.2 |
| 20260508192644 | 73 | 44 | 4.0 | 8.0 | 0.00 | 0.00 | 0.00 | 91 | 1010.1 |
| 20260508192620 | 72 | 104 | 4.0 | 8.0 | 0.00 | 0.00 | 0.00 | 92 | 1010.1 |
| 20260508192543 | 73 | 25 | 4.0 | 8.0 | 0.00 | 0.00 | 0.00 | 91 | 1010.1 |
| 20260508192459 | 72 | 33 | 4.0 | 8.0 | 0.00 | 0.00 | 0.00 | 92 | 1010.1 |
| 20260508192343 | 72 | 55 | 4.0 | 8.0 | 0.00 | 0.00 | 0.00 | 92 | 1010.1 |
| 20260508192243 | 72 | 23 | 4.0 | 8.0 | 0.00 | 0.00 | 0.00 | 92 | 1010.1 |
| 20260508192143 | 72 | 355 | 4.0 | 9.0 | 0.00 | 0.00 | 0.00 | 92 | 1010.1 |
| 20260508192043 | 72 | 4 | 4.0 | 9.0 | 0.00 | 0.00 | 0.00 | 92 | 1010.1 |
| 20260508191941 | 72 | 12 | 4.0 | 9.0 | 0.00 | 0.00 | 0.00 | 93 | 1010.1 |
| 20260508191854 | 72 | 347 | 4.0 | 9.0 | 0.00 | 0.00 | 0.00 | 93 | 1010.1 |
| 20260508191842 | 72 | 29 | 4.0 | 9.0 | 0.00 | 0.00 | 0.00 | 93 | 1010.1 |
| 20260508191741 | 71 | 17 | 4.0 | 9.0 | 0.00 | 0.00 | 0.00 | 93 | 1010.1 |
| 20260508191641 | 71 | 335 | 4.0 | 9.0 | 0.00 | 0.00 | 0.00 | 93 | 1010.1 |
| 20260508191540 | 71 | 24 | 4.0 | 9.0 | 0.00 | 0.00 | 0.00 | 94 | 1010.0 |
| 20260508191437 | 71 | 12 | 4.0 | 9.0 | 0.00 | 0.00 | 0.00 | 94 | 1010.1 |
| 20260508191353 | 71 | 21 | 4.0 | 9.0 | 0.00 | 0.00 | 0.00 | 94 | 1010.1 |
| 20260508191334 | 71 | 15 | 4.0 | 9.0 | 0.00 | 0.00 | 0.00 | 94 | 1010.1 |
| 20260508191234 | 71 | 354 | 4.0 | 9.0 | 0.00 | 0.00 | 0.00 | 94 | 1010.1 |
| 20260508191131 | 71 | 5 | 4.0 | 7.0 | 0.00 | 0.00 | 0.00 | 94 | 1010.1 |
| 20260508191031 | 71 | 33 | 4.0 | 7.0 | 0.00 | 0.00 | 0.00 | 94 | 1010.2 |
| 20260508190926 | 70 | 47 | 4.0 | 7.0 | 0.00 | 0.00 | 0.00 | 95 | 1010.1 |
| 20260508190854 | 70 | 34 | 4.0 | 7.0 | 0.00 | 0.00 | 0.00 | 95 | 1010.1 |
| 20260508190825 | 70 | 27 | 4.0 | 7.0 | 0.00 | 0.00 | 0.00 | 95 | 1010.1 |
| 20260508190719 | 70 | 44 | 4.0 | 9.0 | 0.00 | 0.00 | 0.00 | 95 | 1010.1 |
| 20260508190619 | 70 | 14 | 4.0 | 9.0 | 0.00 | 0.00 | 0.00 | 95 | 1010.1 |
| 20260508190519 | 70 | 52 | 4.0 | 9.0 | 0.00 | 0.00 | 0.00 | 95 | 1010.1 |
| 20260508190419 | 70 | 352 | 4.0 | 9.0 | 0.00 | 0.00 | 0.00 | 96 | 1010.1 |
| 20260508190342 | 70 | 1 | 4.0 | 9.0 | 0.00 | 0.00 | 0.00 | 96 | 1010.1 |
| 20260508190302 | 70 | 54 | 4.0 | 9.0 | 0.00 | 0.00 | 0.00 | 96 | 1010.1 |
| 20260508190202 | 70 | 36 | 4.0 | 9.0 | 0.00 | 0.00 | 0.00 | 96 | 1010.2 |
| 20260508190101 | 70 | 51 | 4.0 | 9.0 | 0.00 | 0.00 | 0.00 | 96 | 1010.2 |
| 20260508185950 | 70 | 49 | 4.0 | 9.0 | 0.00 | 0.00 | 0.00 | 96 | 1010.2 |
| 20260508185849 | 70 | 24 | 4.0 | 9.0 | 0.00 | 0.00 | 0.00 | 96 | 1010.2 |
| 20260508185841 | 70 | 28 | 4.0 | 9.0 | 0.00 | 0.00 | 0.00 | 96 | 1010.2 |
| 20260508185744 | 70 | 38 | 4.0 | 9.0 | 0.00 | 0.00 | 0.00 | 96 | 1010.2 |
| 20260508185643 | 70 | 30 | 3.0 | 5.0 | 0.00 | 0.00 | 0.00 | 96 | 1010.3 |
| 20260508185604 | 69 | 40 | 4.0 | 9.0 | 0.00 | 0.00 | 0.00 | 97 | 1010.3 |
| 20260508185543 | 70 | 125 | 3.0 | 5.0 | 0.00 | 0.00 | 0.00 | 96 | 1010.3 |
| 20260508185452 | 70 | 35 | 3.0 | 5.0 | 0.00 | 0.00 | 0.00 | 96 | 1010.3 |
| 20260508185447 | 69 | 40 | 4.0 | 9.0 | 0.00 | 0.00 | 0.00 | 97 | 1010.3 |
| 20260508185242 | 69 | 32 | 4.0 | 9.0 | 0.00 | 0.00 | 0.00 | 97 | 1010.3 |
| 20260508185138 | 69 | 40 | 4.0 | 9.0 | 0.00 | 0.00 | 0.00 | 97 | 1010.3 |
| 20260508185038 | 69 | 51 | 4.0 | 9.0 | 0.00 | 0.00 | 0.00 | 97 | 1010.3 |
| 20260508184931 | 69 | 22 | 4.0 | 9.0 | 0.00 | 0.00 | 0.00 | 97 | 1010.3 |
| 20260508184825 | 69 | 39 | 4.0 | 9.0 | 0.00 | 0.00 | 0.00 | 97 | 1010.3 |
| 20260508184720 | 69 | 18 | 4.0 | 9.0 | 0.00 | 0.00 | 0.00 | 97 | 1010.3 |
| 20260508184620 | 69 | 23 | 4.0 | 9.0 | 0.00 | 0.00 | 0.00 | 97 | 1010.3 |
| 20260508184519 | 69 | 61 | 4.0 | 9.0 | 0.00 | 0.00 | 0.00 | 97 | 1010.3 |
| 20260508184419 | 69 | 21 | 4.0 | 8.0 | 0.00 | 0.00 | 0.00 | 97 | 1010.3 |
| 20260508184318 | 69 | 57 | 4.0 | 8.0 | 0.00 | 0.00 | 0.00 | 97 | 1010.4 |
| 20260508184302 | 69 | 41 | 4.0 | 8.0 | 0.00 | 0.00 | 0.00 | 97 | 1010.4 |
| 20260508184202 | 69 | 52 | 4.0 | 8.0 | 0.00 | 0.00 | 0.00 | 97 | 1010.4 |
| 20260508184101 | 69 | 29 | 4.0 | 8.0 | 0.00 | 0.00 | 0.00 | 97 | 1010.5 |
| 20260508184001 | 69 | 14 | 4.0 | 8.0 | 0.00 | 0.00 | 0.00 | 97 | 1010.5 |
| 20260508183856 | 69 | 10 | 3.0 | 8.0 | 0.00 | 0.00 | 0.00 | 97 | 1010.5 |
| 20260508183813 | 69 | 354 | 3.0 | 8.0 | 0.00 | 0.00 | 0.00 | 97 | 1010.5 |
| 20260508183756 | 69 | 356 | 3.0 | 8.0 | 0.00 | 0.00 | 0.00 | 97 | 1010.5 |
| 20260508183650 | 69 | 38 | 3.0 | 8.0 | 0.00 | 0.00 | 0.00 | 97 | 1010.5 |
| 20260508183544 | 69 | 28 | 3.0 | 8.0 | 0.00 | 0.00 | 0.00 | 97 | 1010.6 |
| 20260508183443 | 69 | 7 | 3.0 | 8.0 | 0.00 | 0.00 | 0.00 | 97 | 1010.6 |
| 20260508183343 | 69 | 26 | 3.0 | 8.0 | 0.00 | 0.00 | 0.00 | 97 | 1010.6 |
| 20260508183313 | 69 | 8 | 3.0 | 8.0 | 0.00 | 0.00 | 0.00 | 97 | 1010.6 |
| 20260508183242 | 69 | 38 | 3.0 | 8.0 | 0.00 | 0.00 | 0.00 | 97 | 1010.6 |
| 20260508183142 | 69 | 34 | 3.0 | 8.0 | 0.00 | 0.00 | 0.00 | 97 | 1010.6 |
| 20260508183032 | 69 | 309 | 2.0 | 8.0 | 0.00 | 0.00 | 0.00 | 97 | 1010.7 |
| 20260508182931 | 69 | 35 | 3.0 | 8.0 | 0.00 | 0.00 | 0.00 | 97 | 1010.7 |
| 20260508182826 | 69 | 47 | 3.0 | 8.0 | 0.00 | 0.00 | 0.00 | 97 | 1010.7 |
| 20260508182813 | 69 | 23 | 3.0 | 8.0 | 0.00 | 0.00 | 0.00 | 97 | 1010.7 |
| 20260508182719 | 69 | 353 | 3.0 | 7.0 | 0.00 | 0.00 | 0.00 | 97 | 1010.7 |
| 20260508182619 | 69 | 42 | 3.0 | 7.0 | 0.00 | 0.00 | 0.00 | 96 | 1010.7 |
| 20260508182535 | 69 | 48 | 3.0 | 7.0 | 0.00 | 0.00 | 0.00 | 96 | 1010.7 |
| 20260508182519 | 69 | 20 | 3.0 | 7.0 | 0.00 | 0.00 | 0.00 | 96 | 1010.7 |
| 20260508182418 | 69 | 337 | 3.0 | 7.0 | 0.00 | 0.00 | 0.00 | 96 | 1010.7 |
| 20260508182307 | 69 | 38 | 3.0 | 7.0 | 0.00 | 0.00 | 0.00 | 96 | 1010.7 |
| 20260508182208 | 69 | 21 | 3.0 | 7.0 | 0.00 | 0.00 | 0.00 | 96 | 1010.7 |
| 20260508182102 | 69 | 268 | 3.0 | 7.0 | 0.00 | 0.00 | 0.00 | 96 | 1010.7 |
| 20260508181956 | 69 | 10 | 3.0 | 7.0 | 0.00 | 0.00 | 0.00 | 96 | 1010.7 |
| 20260508181850 | 69 | 14 | 3.0 | 7.0 | 0.00 | 0.00 | 0.00 | 96 | 1010.7 |
| 20260508181812 | 69 | 357 | 3.0 | 7.0 | 0.00 | 0.00 | 0.00 | 96 | 1010.8 |
| 20260508181743 | 69 | 32 | 3.0 | 7.0 | 0.00 | 0.00 | 0.00 | 96 | 1010.8 |
| 20260508181644 | 69 | 15 | 2.0 | 7.0 | 0.00 | 0.00 | 0.00 | 96 | 1010.8 |
| 20260508181543 | 69 | 6 | 2.0 | 7.0 | 0.00 | 0.00 | 0.00 | 96 | 1010.8 |
| 20260508181442 | 69 | 33 | 2.0 | 7.0 | 0.00 | 0.00 | 0.00 | 96 | 1010.9 |
| 20260508181331 | 69 | 8 | 2.0 | 7.0 | 0.00 | 0.00 | 0.00 | 96 | 1010.9 |
| 20260508181307 | 69 | 49 | 2.0 | 7.0 | 0.00 | 0.00 | 0.00 | 96 | 1010.9 |
| 20260508181226 | 69 | 36 | 2.0 | 7.0 | 0.00 | 0.00 | 0.00 | 96 | 1010.9 |
| 20260508181121 | 69 | 55 | 2.0 | 7.0 | 0.00 | 0.00 | 0.00 | 96 | 1011.0 |
| 20260508181020 | 69 | 309 | 2.0 | 7.0 | 0.00 | 0.00 | 0.00 | 96 | 1010.9 |
| 20260508181013 | 69 | 7 | 2.0 | 6.0 | 0.00 | 0.00 | 0.00 | 96 | 1011.0 |
| 20260508180914 | 69 | 7 | 2.0 | 7.0 | 0.00 | 0.00 | 0.00 | 96 | 1010.9 |
| 20260508180901 | 69 | 21 | 2.0 | 6.0 | 0.00 | 0.00 | 0.00 | 96 | 1011.0 |
| 20260508180702 | 69 | 327 | 2.0 | 6.0 | 0.00 | 0.00 | 0.00 | 96 | 1011.0 |
| 20260508180602 | 69 | 359 | 2.0 | 6.0 | 0.00 | 0.00 | 0.00 | 96 | 1011.0 |
| 20260508180501 | 69 | 48 | 2.0 | 6.0 | 0.00 | 0.00 | 0.00 | 96 | 1011.0 |
| 20260508180402 | 69 | 36 | 2.0 | 6.0 | 0.00 | 0.00 | 0.00 | 96 | 1010.9 |
| 20260508180250 | 69 | 23 | 2.0 | 6.0 | 0.00 | 0.00 | 0.00 | 96 | 1010.9 |
| 20260508180241 | 69 | 58 | 2.0 | 6.0 | 0.00 | 0.00 | 0.00 | 96 | 1010.8 |
| 20260508180150 | 69 | 14 | 3.0 | 6.0 | 0.00 | 0.00 | 0.00 | 96 | 1010.8 |
| 20260508180043 | 69 | 8 | 2.0 | 4.0 | 0.00 | 0.00 | 0.00 | 96 | 1010.8 |
| 20260508175942 | 69 | 15 | 2.0 | 4.0 | 0.00 | 0.00 | 0.00 | 96 | 1010.8 |
| 20260508175842 | 69 | 356 | 2.0 | 4.0 | 0.00 | 0.00 | 0.00 | 96 | 1010.8 |
| 20260508175743 | 69 | 25 | 2.0 | 4.0 | 0.00 | 0.00 | 0.00 | 96 | 1010.8 |
| 20260508175642 | 69 | 353 | 2.0 | 4.0 | 0.00 | 0.00 | 0.00 | 96 | 1010.8 |
| 20260508175543 | 69 | 44 | 2.0 | 4.0 | 0.00 | 0.00 | 0.00 | 96 | 1010.8 |
| 20260508175457 | 69 | 44 | 3.0 | 7.0 | 0.00 | 0.00 | 0.00 | 96 | 1011.0 |
| 20260508175442 | 69 | 331 | 2.0 | 5.0 | 0.00 | 0.00 | 0.00 | 96 | 1010.9 |
| 20260508175339 | 69 | 38 | 2.0 | 5.0 | 0.00 | 0.00 | 0.00 | 96 | 1010.9 |
| 20260508175334 | 69 | 44 | 3.0 | 7.0 | 0.00 | 0.00 | 0.00 | 96 | 1011.0 |
| 20260508175129 | 69 | 351 | 3.0 | 7.0 | 0.00 | 0.00 | 0.00 | 96 | 1011.0 |
| 20260508175020 | 69 | 259 | 3.0 | 7.0 | 0.00 | 0.00 | 0.00 | 96 | 1011.0 |
| 20260508174920 | 69 | 14 | 3.0 | 7.0 | 0.00 | 0.00 | 0.00 | 96 | 1011.0 |
| 20260508174814 | 69 | 354 | 3.0 | 7.0 | 0.00 | 0.00 | 0.00 | 96 | 1011.0 |
| 20260508174714 | 69 | 13 | 3.0 | 7.0 | 0.00 | 0.00 | 0.00 | 96 | 1011.0 |
| 20260508174701 | 69 | 333 | 3.0 | 7.0 | 0.00 | 0.00 | 0.00 | 96 | 1011.0 |
| 20260508174615 | 69 | 26 | 3.0 | 7.0 | 0.00 | 0.00 | 0.00 | 96 | 1011.0 |
| 20260508174514 | 69 | 28 | 3.0 | 7.0 | 0.00 | 0.00 | 0.00 | 96 | 1011.0 |
| 20260508174408 | 69 | 41 | 3.0 | 7.0 | 0.00 | 0.00 | 0.00 | 96 | 1011.0 |
| 20260508174308 | 69 | 24 | 3.0 | 7.0 | 0.00 | 0.00 | 0.00 | 96 | 1011.1 |
| 20260508174203 | 69 | 8 | 3.0 | 7.0 | 0.00 | 0.00 | 0.00 | 96 | 1011.1 |
| 20260508174051 | 69 | 41 | 3.0 | 7.0 | 0.00 | 0.00 | 0.00 | 97 | 1011.1 |
| 20260508173951 | 69 | 2 | 3.0 | 7.0 | 0.00 | 0.00 | 0.00 | 97 | 1011.1 |
| 20260508173850 | 69 | 5 | 3.0 | 7.0 | 0.00 | 0.00 | 0.00 | 97 | 1011.1 |
| 20260508173750 | 69 | 24 | 3.0 | 7.0 | 0.00 | 0.00 | 0.00 | 97 | 1011.1 |
| 20260508173650 | 69 | 32 | 3.0 | 7.0 | 0.00 | 0.00 | 0.00 | 97 | 1011.1 |
| 20260508173550 | 69 | 345 | 3.0 | 7.0 | 0.00 | 0.00 | 0.00 | 97 | 1011.1 |
| 20260508173445 | 69 | 39 | 3.0 | 7.0 | 0.00 | 0.00 | 0.00 | 97 | 1011.1 |
| 20260508173342 | 69 | 13 | 3.0 | 7.0 | 0.00 | 0.00 | 0.00 | 97 | 1011.1 |
| 20260508173244 | 69 | 24 | 3.0 | 7.0 | 0.00 | 0.00 | 0.00 | 97 | 1011.1 |
| 20260508173149 | 69 | 35 | 3.0 | 7.0 | 0.00 | 0.00 | 0.00 | 97 | 1011.1 |
| 20260508173138 | 69 | 33 | 3.0 | 7.0 | 0.00 | 0.00 | 0.00 | 97 | 1011.1 |
| 20260508173038 | 69 | 353 | 3.0 | 7.0 | 0.00 | 0.00 | 0.00 | 97 | 1011.2 |
| 20260508172932 | 69 | 32 | 4.0 | 7.0 | 0.00 | 0.00 | 0.00 | 97 | 1011.2 |
| 20260508172912 | 69 | 32 | 3.0 | 7.0 | 0.00 | 0.00 | 0.00 | 97 | 1011.3 |
| 20260508172832 | 69 | 57 | 4.0 | 7.0 | 0.00 | 0.00 | 0.00 | 97 | 1011.2 |
| 20260508172755 | 69 | 335 | 4.0 | 7.0 | 0.00 | 0.00 | 0.00 | 97 | 1011.3 |
| 20260508172632 | 69 | 31 | 3.0 | 7.0 | 0.00 | 0.00 | 0.00 | 97 | 1011.3 |
| 20260508172527 | 69 | 18 | 3.0 | 7.0 | 0.00 | 0.00 | 0.00 | 97 | 1011.3 |
| 20260508172427 | 69 | 23 | 4.0 | 7.0 | 0.00 | 0.00 | 0.00 | 97 | 1011.3 |
| 20260508172327 | 69 | 33 | 3.0 | 7.0 | 0.00 | 0.00 | 0.00 | 97 | 1011.3 |
| 20260508172226 | 69 | 28 | 3.0 | 7.0 | 0.00 | 0.00 | 0.00 | 98 | 1011.3 |
| 20260508172142 | 69 | 30 | 3.0 | 6.0 | 0.00 | 0.00 | 0.00 | 98 | 1011.3 |
| 20260508172127 | 69 | 39 | 3.0 | 6.0 | 0.00 | 0.00 | 0.00 | 98 | 1011.3 |
| 20260508172026 | 69 | 45 | 3.0 | 6.0 | 0.00 | 0.00 | 0.00 | 98 | 1011.3 |
| 20260508171926 | 69 | 19 | 3.0 | 6.0 | 0.00 | 0.00 | 0.00 | 98 | 1011.3 |
| 20260508171827 | 69 | 45 | 3.0 | 6.0 | 0.00 | 0.00 | 0.00 | 98 | 1011.3 |
| 20260508171727 | 69 | 41 | 3.0 | 6.0 | 0.00 | 0.00 | 0.00 | 98 | 1011.3 |
| 20260508171642 | 69 | 359 | 3.0 | 6.0 | 0.00 | 0.00 | 0.00 | 98 | 1011.2 |
| 20260508171620 | 69 | 37 | 3.0 | 6.0 | 0.00 | 0.00 | 0.00 | 98 | 1011.2 |
| 20260508171520 | 69 | 52 | 3.0 | 6.0 | 0.00 | 0.00 | 0.00 | 98 | 1011.2 |
| 20260508171420 | 69 | 28 | 3.0 | 6.0 | 0.00 | 0.00 | 0.00 | 98 | 1011.2 |
| 20260508171309 | 69 | 349 | 3.0 | 6.0 | 0.00 | 0.00 | 0.00 | 98 | 1011.2 |
| 20260508171202 | 69 | 60 | 4.0 | 6.0 | 0.00 | 0.00 | 0.00 | 98 | 1011.2 |
| 20260508171142 | 69 | 43 | 4.0 | 6.0 | 0.00 | 0.00 | 0.00 | 98 | 1011.2 |
| 20260508171102 | 69 | 54 | 3.0 | 6.0 | 0.00 | 0.00 | 0.00 | 98 | 1011.2 |
| 20260508170957 | 69 | 2 | 4.0 | 6.0 | 0.00 | 0.00 | 0.00 | 98 | 1011.1 |
| 20260508170857 | 69 | 329 | 3.0 | 6.0 | 0.00 | 0.00 | 0.00 | 98 | 1011.1 |
| 20260508170757 | 69 | 13 | 3.0 | 6.0 | 0.00 | 0.00 | 0.00 | 98 | 1011.1 |
| 20260508170657 | 69 | 71 | 2.0 | 6.0 | 0.00 | 0.00 | 0.00 | 99 | 1011.1 |
| 20260508170642 | 69 | 47 | 2.0 | 6.0 | 0.00 | 0.00 | 0.00 | 99 | 1011.1 |
| 20260508170557 | 69 | 18 | 2.0 | 6.0 | 0.00 | 0.00 | 0.00 | 99 | 1011.1 |
| 20260508170451 | 69 | 37 | 2.0 | 6.0 | 0.00 | 0.00 | 0.00 | 99 | 1011.1 |
| 20260508170345 | 68 | 43 | 2.0 | 5.0 | 0.00 | 0.00 | 0.00 | 99 | 1011.0 |
| 20260508170230 | 68 | 59 | 2.0 | 6.0 | 0.00 | 0.00 | 0.00 | 99 | 1011.1 |
| 20260508170130 | 68 | 48 | 3.0 | 6.0 | 0.00 | 0.00 | 0.00 | 99 | 1011.1 |
| 20260508170030 | 68 | 38 | 3.0 | 7.0 | 0.00 | 0.00 | 0.00 | 99 | 1011.2 |
| 20260508165921 | 68 | 47 | 3.0 | 7.0 | 0.00 | 0.00 | 0.00 | 99 | 1011.2 |
| 20260508165855 | 68 | 42 | 3.0 | 7.0 | 0.00 | 0.00 | 0.00 | 99 | 1011.3 |
| 20260508165821 | 68 | 69 | 3.0 | 7.0 | 0.00 | 0.00 | 0.00 | 99 | 1011.2 |
| 20260508165743 | 68 | 57 | 3.0 | 7.0 | 0.00 | 0.00 | 0.00 | 99 | 1011.3 |
| 20260508165609 | 68 | 45 | 3.0 | 7.0 | 0.00 | 0.00 | 0.00 | 99 | 1011.3 |
| 20260508165503 | 68 | 32 | 4.0 | 7.0 | 0.00 | 0.00 | 0.00 | 99 | 1011.3 |
| 20260508165403 | 68 | 29 | 3.0 | 7.0 | 0.00 | 0.00 | 0.00 | 99 | 1011.3 |
| 20260508165306 | 68 | 67 | 3.0 | 7.0 | 0.00 | 0.00 | 0.00 | 99 | 1011.3 |
| 20260508165156 | 68 | 45 | 3.0 | 7.0 | 0.00 | 0.00 | 0.00 | 99 | 1011.6 |
| 20260508165132 | 68 | 54 | 3.0 | 7.0 | 0.00 | 0.00 | 0.00 | 99 | 1011.6 |
| 20260508165057 | 68 | 26 | 3.0 | 6.0 | 0.00 | 0.00 | 0.00 | 99 | 1011.6 |
| 20260508164944 | 68 | 58 | 3.0 | 5.0 | 0.00 | 0.00 | 0.00 | 99 | 1011.6 |
| 20260508164844 | 68 | 350 | 2.0 | 5.0 | 0.00 | 0.00 | 0.00 | 99 | 1011.7 |
| 20260508164744 | 68 | 33 | 2.0 | 5.0 | 0.00 | 0.00 | 0.00 | 99 | 1011.8 |
| 20260508164643 | 68 | 41 | 2.0 | 5.0 | 0.00 | 0.00 | 0.00 | 99 | 1011.8 |
| 20260508164629 | 68 | 41 | 2.0 | 6.0 | 0.00 | 0.00 | 0.00 | 99 | 1011.8 |
| 20260508164544 | 68 | 58 | 3.0 | 6.0 | 0.00 | 0.00 | 0.00 | 99 | 1011.9 |
| 20260508164444 | 68 | 15 | 3.0 | 6.0 | 0.00 | 0.00 | 0.00 | 99 | 1011.9 |
| 20260508164343 | 68 | 28 | 3.0 | 6.0 | 0.00 | 0.00 | 0.00 | 99 | 1012.0 |
| 20260508164230 | 68 | 54 | 3.0 | 7.0 | 0.00 | 0.00 | 0.00 | 99 | 1012.0 |
| 20260508164126 | 68 | 51 | 3.0 | 7.0 | 0.00 | 0.00 | 0.00 | 99 | 1012.0 |
| 20260508164120 | 68 | 29 | 3.0 | 7.0 | 0.00 | 0.00 | 0.00 | 99 | 1012.0 |
| 20260508164020 | 68 | 42 | 3.0 | 7.0 | 0.00 | 0.00 | 0.00 | 99 | 1012.1 |
| 20260508163920 | 68 | 0 | 3.0 | 7.0 | 0.00 | 0.00 | 0.00 | 99 | 1012.1 |
| 20260508163815 | 68 | 52 | 3.0 | 7.0 | 0.00 | 0.00 | 0.00 | 99 | 1012.1 |
| 20260508163715 | 68 | 21 | 4.0 | 7.0 | 0.00 | 0.00 | 0.00 | 99 | 1012.1 |
| 20260508163615 | 68 | 21 | 4.0 | 7.0 | 0.00 | 0.00 | 0.00 | 99 | 1012.1 |
| 20260508163515 | 68 | 30 | 3.0 | 7.0 | 0.00 | 0.00 | 0.00 | 99 | 1012.1 |
| 20260508163415 | 68 | 332 | 3.0 | 7.0 | 0.00 | 0.00 | 0.00 | 99 | 1012.1 |
| 20260508163315 | 68 | 54 | 3.0 | 7.0 | 0.00 | 0.00 | 0.00 | 99 | 1012.1 |
| 20260508163215 | 68 | 313 | 3.0 | 7.0 | 0.00 | 0.00 | 0.00 | 99 | 1012.1 |
| 20260508163115 | 68 | 32 | 3.0 | 7.0 | 0.00 | 0.00 | 0.00 | 99 | 1012.1 |
| 20260508163015 | 68 | 15 | 3.0 | 7.0 | 0.00 | 0.00 | 0.00 | 99 | 1012.1 |
| 20260508162915 | 68 | 19 | 3.0 | 5.0 | 0.00 | 0.00 | 0.00 | 99 | 1012.1 |
| 20260508162815 | 68 | 9 | 3.0 | 5.0 | 0.00 | 0.00 | 0.00 | 99 | 1012.0 |
| 20260508162715 | 68 | 54 | 3.0 | 5.0 | 0.00 | 0.00 | 0.00 | 99 | 1012.0 |
| 20260508162615 | 68 | 26 | 3.0 | 5.0 | 0.00 | 0.00 | 0.00 | 99 | 1012.0 |
| 20260508162515 | 68 | 29 | 3.0 | 5.0 | 0.00 | 0.00 | 0.00 | 99 | 1012.0 |
| 20260508162415 | 68 | 22 | 3.0 | 6.0 | 0.00 | 0.00 | 0.00 | 99 | 1012.0 |
| 20260508162315 | 68 | 343 | 3.0 | 6.0 | 0.00 | 0.00 | 0.00 | 99 | 1012.0 |
| 20260508162209 | 68 | 38 | 3.0 | 6.0 | 0.00 | 0.00 | 0.00 | 99 | 1012.0 |
| 20260508162109 | 68 | 17 | 3.0 | 6.0 | 0.00 | 0.00 | 0.00 | 99 | 1012.0 |
| 20260508162044 | 68 | 1 | 4.0 | 6.0 | 0.00 | 0.00 | 0.00 | 99 | 1012.0 |
| 20260508162009 | 68 | 35 | 4.0 | 6.0 | 0.00 | 0.00 | 0.00 | 99 | 1012.1 |
| 20260508161904 | 68 | 33 | 4.0 | 6.0 | 0.00 | 0.00 | 0.00 | 99 | 1012.1 |
| 20260508161803 | 68 | 27 | 4.0 | 6.0 | 0.00 | 0.00 | 0.00 | 99 | 1012.1 |
| 20260508161703 | 68 | 18 | 3.0 | 6.0 | 0.00 | 0.00 | 0.00 | 99 | 1012.1 |
| 20260508161603 | 68 | 5 | 3.0 | 6.0 | 0.00 | 0.00 | 0.00 | 99 | 1012.2 |
| 20260508161543 | 68 | 9 | 3.0 | 6.0 | 0.00 | 0.00 | 0.00 | 99 | 1012.2 |
| 20260508161503 | 68 | 34 | 3.0 | 6.0 | 0.00 | 0.00 | 0.00 | 99 | 1012.2 |
| 20260508161404 | 68 | 48 | 3.0 | 5.0 | 0.00 | 0.00 | 0.00 | 99 | 1012.3 |
| 20260508161259 | 68 | 15 | 2.0 | 5.0 | 0.00 | 0.00 | 0.00 | 99 | 1012.3 |
| 20260508161201 | 68 | 36 | 2.0 | 4.0 | 0.00 | 0.00 | 0.00 | 99 | 1012.4 |
| 20260508161101 | 68 | 44 | 2.0 | 4.0 | 0.00 | 0.00 | 0.00 | 99 | 1012.4 |
| 20260508161044 | 68 | 47 | 2.0 | 4.0 | 0.00 | 0.00 | 0.00 | 99 | 1012.4 |
| 20260508161001 | 68 | 32 | 2.0 | 5.0 | 0.00 | 0.00 | 0.00 | 99 | 1012.4 |
| 20260508160845 | 68 | 33 | 2.0 | 5.0 | 0.00 | 0.00 | 0.00 | 99 | 1012.4 |
| 20260508160745 | 68 | 61 | 2.0 | 5.0 | 0.00 | 0.00 | 0.00 | 99 | 1012.4 |
| 20260508160645 | 68 | 1 | 2.0 | 5.0 | 0.00 | 0.00 | 0.00 | 99 | 1012.4 |
| 20260508160545 | 68 | 55 | 2.0 | 5.0 | 0.00 | 0.00 | 0.00 | 99 | 1012.4 |
| 20260508160445 | 68 | 56 | 2.0 | 5.0 | 0.00 | 0.00 | 0.00 | 99 | 1012.5 |
| 20260508160345 | 68 | 334 | 2.0 | 5.0 | 0.00 | 0.00 | 0.00 | 99 | 1012.4 |
| 20260508160246 | 68 | 23 | 3.0 | 5.0 | 0.00 | 0.00 | 0.00 | 99 | 1012.5 |
| 20260508160145 | 68 | 69 | 3.0 | 5.0 | 0.00 | 0.00 | 0.00 | 99 | 1012.5 |
| 20260508160045 | 68 | 48 | 3.0 | 5.0 | 0.00 | 0.00 | 0.00 | 99 | 1012.5 |
| 20260508155946 | 68 | 10 | 2.0 | 5.0 | 0.00 | 0.00 | 0.00 | 99 | 1012.5 |
| 20260508155844 | 67 | 24 | 2.0 | 4.0 | 0.00 | 0.00 | 0.00 | 99 | 1012.6 |
| 20260508155744 | 67 | 42 | 2.0 | 4.0 | 0.00 | 0.00 | 0.00 | 99 | 1012.6 |
| 20260508155645 | 67 | 32 | 2.0 | 4.0 | 0.00 | 0.00 | 0.00 | 99 | 1012.6 |
| 20260508155548 | 67 | 20 | 2.0 | 4.0 | 0.00 | 0.00 | 0.00 | 99 | 1012.6 |
| 20260508155544 | 67 | 27 | 2.0 | 4.0 | 0.00 | 0.00 | 0.00 | 99 | 1012.7 |
| 20260508155432 | 67 | 335 | 2.0 | 4.0 | 0.00 | 0.00 | 0.00 | 99 | 1012.7 |
| 20260508155331 | 67 | 52 | 2.0 | 4.0 | 0.00 | 0.00 | 0.00 | 99 | 1012.7 |
| 20260508155216 | 67 | 31 | 2.0 | 4.0 | 0.00 | 0.00 | 0.00 | 99 | 1012.7 |
| 20260508155046 | 67 | 332 | 2.0 | 4.0 | 0.00 | 0.00 | 0.00 | 99 | 1012.7 |
| 20260508154916 | 67 | 344 | 2.0 | 4.0 | 0.00 | 0.00 | 0.00 | 99 | 1012.7 |
| 20260508154815 | 67 | 353 | 2.0 | 3.0 | 0.00 | 0.00 | 0.00 | 99 | 1012.7 |
| 20260508154805 | 67 | 8 | 2.0 | 3.0 | 0.00 | 0.00 | 0.00 | 99 | 1012.7 |
| 20260508154716 | 67 | 24 | 2.0 | 3.0 | 0.00 | 0.00 | 0.00 | 99 | 1012.7 |
| 20260508154649 | 67 | 8 | 2.0 | 3.0 | 0.00 | 0.00 | 0.00 | 99 | 1012.7 |
| 20260508154415 | 67 | 11 | 2.0 | 3.0 | 0.00 | 0.00 | 0.00 | 99 | 1012.7 |
| 20260508154245 | 67 | 354 | 1.0 | 3.0 | 0.00 | 0.00 | 0.00 | 99 | 1012.7 |
| 20260508154144 | 67 | 19 | 1.0 | 3.0 | 0.00 | 0.00 | 0.00 | 99 | 1012.6 |
| 20260508154044 | 67 | 31 | 2.0 | 3.0 | 0.00 | 0.00 | 0.00 | 99 | 1012.6 |
| 20260508153944 | 67 | 9 | 2.0 | 4.0 | 0.00 | 0.00 | 0.00 | 99 | 1012.6 |
| 20260508153753 | 67 | 291 | 2.0 | 4.0 | 0.00 | 0.00 | 0.00 | 99 | 1012.4 |
| 20260508153746 | 67 | 359 | 2.0 | 4.0 | 0.00 | 0.00 | 0.00 | 99 | 1012.6 |
| 20260508153645 | 67 | 27 | 2.0 | 4.0 | 0.00 | 0.00 | 0.00 | 99 | 1012.4 |
| 20260508153635 | 67 | 291 | 2.0 | 4.0 | 0.00 | 0.00 | 0.00 | 99 | 1012.4 |
| 20260508153427 | 67 | 75 | 2.0 | 4.0 | 0.00 | 0.00 | 0.00 | 99 | 1012.4 |
| 20260508153321 | 67 | 353 | 2.0 | 4.0 | 0.00 | 0.00 | 0.00 | 99 | 1012.4 |
| 20260508153230 | 67 | 26 | 2.0 | 4.0 | 0.00 | 0.00 | 0.00 | 99 | 1012.5 |
| 20260508153210 | 67 | 3 | 2.0 | 4.0 | 0.00 | 0.00 | 0.00 | 99 | 1012.4 |
| 20260508153119 | 67 | 50 | 2.0 | 4.0 | 0.00 | 0.00 | 0.00 | 99 | 1012.5 |
| 20260508152958 | 67 | 41 | 2.0 | 4.0 | 0.00 | 0.00 | 0.00 | 99 | 1012.5 |
| 20260508152830 | 67 | 315 | 2.0 | 4.0 | 0.00 | 0.00 | 0.00 | 99 | 1012.5 |
| 20260508152717 | 67 | 16 | 2.0 | 4.0 | 0.00 | 0.00 | 0.00 | 99 | 1012.5 |
| 20260508152617 | 67 | 18 | 2.0 | 4.0 | 0.00 | 0.00 | 0.00 | 99 | 1012.5 |
| 20260508152514 | 67 | 44 | 2.0 | 4.0 | 0.00 | 0.00 | 0.00 | 99 | 1012.5 |
| 20260508152500 | 67 | 44 | 2.0 | 4.0 | 0.00 | 0.00 | 0.00 | 99 | 1012.5 |
| 20260508152345 | 67 | 42 | 2.0 | 4.0 | 0.00 | 0.00 | 0.00 | 99 | 1012.5 |
| 20260508152231 | 67 | 359 | 2.0 | 4.0 | 0.00 | 0.00 | 0.00 | 99 | 1012.5 |
| 20260508152115 | 67 | 31 | 2.0 | 5.0 | 0.00 | 0.00 | 0.00 | 99 | 1012.5 |
| 20260508152015 | 67 | 32 | 2.0 | 5.0 | 0.00 | 0.00 | 0.00 | 99 | 1012.5 |
| 20260508152000 | 67 | 302 | 2.0 | 5.0 | 0.00 | 0.00 | 0.00 | 99 | 1012.5 |
| 20260508151915 | 67 | 40 | 2.0 | 5.0 | 0.00 | 0.00 | 0.00 | 99 | 1012.5 |
| 20260508151715 | 67 | 83 | 2.0 | 5.0 | 0.00 | 0.00 | 0.00 | 99 | 1012.5 |
| 20260508151609 | 67 | 325 | 2.0 | 5.0 | 0.00 | 0.00 | 0.00 | 99 | 1012.4 |
| 20260508151509 | 67 | 354 | 2.0 | 5.0 | 0.00 | 0.00 | 0.00 | 99 | 1012.4 |
| 20260508151451 | 67 | 347 | 2.0 | 5.0 | 0.00 | 0.00 | 0.00 | 99 | 1012.4 |
| 20260508151404 | 67 | 26 | 2.0 | 5.0 | 0.00 | 0.00 | 0.00 | 99 | 1012.2 |
| 20260508151258 | 67 | 40 | 2.0 | 5.0 | 0.00 | 0.00 | 0.00 | 99 | 1012.2 |
| 20260508151152 | 67 | 355 | 2.0 | 5.0 | 0.00 | 0.00 | 0.00 | 99 | 1012.2 |
| 20260508151045 | 67 | 48 | 2.0 | 3.0 | 0.00 | 0.00 | 0.00 | 99 | 1012.1 |
| 20260508150945 | 67 | 48 | 2.0 | 3.0 | 0.00 | 0.00 | 0.00 | 99 | 1012.1 |
| 20260508150931 | 67 | 51 | 2.0 | 3.0 | 0.00 | 0.00 | 0.00 | 99 | 1012.1 |
| 20260508150816 | 68 | 348 | 1.0 | 2.0 | 0.00 | 0.00 | 0.00 | 99 | 1012.2 |
| 20260508150716 | 68 | 17 | 2.0 | 4.0 | 0.00 | 0.00 | 0.00 | 99 | 1012.2 |
| 20260508150602 | 68 | 297 | 2.0 | 4.0 | 0.00 | 0.00 | 0.00 | 99 | 1012.2 |
| 20260508150501 | 68 | 22 | 2.0 | 4.0 | 0.00 | 0.00 | 0.00 | 99 | 1012.2 |
| 20260508150445 | 68 | 38 | 2.0 | 4.0 | 0.00 | 0.00 | 0.00 | 99 | 1012.2 |
| 20260508150401 | 68 | 291 | 2.0 | 4.0 | 0.00 | 0.00 | 0.00 | 99 | 1012.2 |
| 20260508150301 | 68 | 327 | 2.0 | 4.0 | 0.00 | 0.00 | 0.00 | 99 | 1012.1 |
| 20260508150201 | 68 | 302 | 2.0 | 4.0 | 0.00 | 0.00 | 0.00 | 99 | 1012.1 |
| 20260508150046 | 68 | 304 | 2.0 | 4.0 | 0.00 | 0.00 | 0.00 | 99 | 1012.0 |
| 20260508145948 | 68 | 322 | 2.0 | 4.0 | 0.00 | 0.00 | 0.00 | 99 | 1012.0 |
| 20260508145943 | 68 | 85 | 2.0 | 4.0 | 0.00 | 0.00 | 0.00 | 99 | 1012.0 |
| 20260508145846 | 68 | 346 | 2.0 | 4.0 | 0.00 | 0.00 | 0.00 | 99 | 1012.0 |
| 20260508145744 | 68 | 21 | 2.0 | 4.0 | 0.00 | 0.00 | 0.00 | 99 | 1012.0 |
| 20260508145702 | 68 | 342 | 2.0 | 4.0 | 0.00 | 0.00 | 0.00 | 99 | 1011.9 |
| 20260508145644 | 68 | 7 | 2.0 | 4.0 | 0.00 | 0.00 | 0.00 | 99 | 1012.0 |
| 20260508145549 | 68 | 34 | 2.0 | 4.0 | 0.00 | 0.00 | 0.00 | 99 | 1012.0 |
| 20260508145431 | 68 | 342 | 2.0 | 4.0 | 0.00 | 0.00 | 0.00 | 99 | 1011.9 |
| 20260508145331 | 68 | 22 | 2.0 | 4.0 | 0.00 | 0.00 | 0.00 | 99 | 1011.9 |
| 20260508145231 | 68 | 14 | 2.0 | 5.0 | 0.00 | 0.00 | 0.00 | 99 | 1011.9 |
| 20260508145200 | 68 | 29 | 2.0 | 5.0 | 0.00 | 0.00 | 0.00 | 99 | 1011.9 |
| 20260508145131 | 68 | 35 | 2.0 | 5.0 | 0.00 | 0.00 | 0.00 | 99 | 1011.9 |
| 20260508145048 | 68 | 4 | 2.0 | 5.0 | 0.00 | 0.00 | 0.00 | 99 | 1011.9 |
| 20260508144931 | 68 | 29 | 2.0 | 5.0 | 0.00 | 0.00 | 0.00 | 99 | 1011.9 |
| 20260508144831 | 68 | 337 | 2.0 | 5.0 | 0.00 | 0.00 | 0.00 | 99 | 1011.8 |
| 20260508144716 | 68 | 22 | 2.0 | 5.0 | 0.00 | 0.00 | 0.00 | 99 | 1011.8 |
| 20260508144559 | 68 | 35 | 2.0 | 5.0 | 0.00 | 0.00 | 0.00 | 99 | 1011.7 |
| 20260508144451 | 68 | 329 | 2.0 | 5.0 | 0.00 | 0.00 | 0.00 | 99 | 1011.7 |
| 20260508144433 | 68 | 316 | 3.0 | 5.0 | 0.00 | 0.00 | 0.00 | 99 | 1011.7 |
| 20260508144346 | 68 | 42 | 3.0 | 5.0 | 0.00 | 0.00 | 0.00 | 99 | 1011.7 |
| 20260508144231 | 68 | 47 | 3.0 | 5.0 | 0.00 | 0.00 | 0.00 | 99 | 1011.8 |
| 20260508144116 | 68 | 6 | 3.0 | 4.0 | 0.00 | 0.00 | 0.00 | 99 | 1011.8 |
| 20260508143931 | 68 | 19 | 3.0 | 4.0 | 0.00 | 0.00 | 0.00 | 99 | 1011.8 |
| 20260508143831 | 68 | 15 | 3.0 | 4.0 | 0.00 | 0.00 | 0.00 | 99 | 1011.8 |
| 20260508143731 | 68 | 29 | 3.0 | 5.0 | 0.00 | 0.00 | 0.00 | 99 | 1011.7 |
| 20260508143631 | 68 | 35 | 3.0 | 5.0 | 0.00 | 0.00 | 0.00 | 99 | 1011.7 |
| 20260508143531 | 68 | 33 | 3.0 | 5.0 | 0.00 | 0.00 | 0.00 | 99 | 1011.6 |
| 20260508143431 | 68 | 38 | 3.0 | 5.0 | 0.00 | 0.00 | 0.00 | 99 | 1011.6 |
| 20260508143301 | 68 | 42 | 3.0 | 5.0 | 0.00 | 0.00 | 0.00 | 99 | 1011.9 |
| 20260508143201 | 68 | 71 | 2.0 | 5.0 | 0.00 | 0.00 | 0.00 | 99 | 1011.9 |
| 20260508143101 | 68 | 11 | 2.0 | 5.0 | 0.00 | 0.00 | 0.00 | 99 | 1011.9 |
| 20260508143001 | 68 | 28 | 2.0 | 5.0 | 0.00 | 0.00 | 0.00 | 99 | 1012.0 |
| 20260508142915 | 68 | 32 | 2.0 | 5.0 | 0.00 | 0.00 | 0.00 | 99 | 1012.1 |
| 20260508142846 | 68 | 19 | 2.0 | 5.0 | 0.00 | 0.00 | 0.00 | 99 | 1012.1 |
| 20260508142747 | 68 | 41 | 2.0 | 4.0 | 0.00 | 0.00 | 0.00 | 99 | 1012.1 |
| 20260508142637 | 68 | 20 | 2.0 | 3.0 | 0.00 | 0.00 | 0.00 | 99 | 1012.2 |
| 20260508142616 | 68 | 11 | 2.0 | 3.0 | 0.00 | 0.00 | 0.00 | 99 | 1012.1 |
| 20260508142527 | 68 | 35 | 2.0 | 3.0 | 0.00 | 0.00 | 0.00 | 99 | 1012.1 |
| 20260508142521 | 68 | 20 | 2.0 | 3.0 | 0.00 | 0.00 | 0.00 | 99 | 1012.2 |
| 20260508142317 | 68 | 21 | 2.0 | 3.0 | 0.00 | 0.00 | 0.00 | 99 | 1012.2 |
| 20260508142217 | 68 | 36 | 2.0 | 3.0 | 0.00 | 0.00 | 0.00 | 99 | 1012.2 |
| 20260508142117 | 68 | 29 | 1.0 | 3.0 | 0.00 | 0.00 | 0.00 | 99 | 1012.3 |
| 20260508142017 | 68 | 354 | 1.0 | 2.0 | 0.00 | 0.00 | 0.00 | 99 | 1012.3 |
| 20260508141918 | 68 | 357 | 1.0 | 2.0 | 0.00 | 0.00 | 0.00 | 99 | 1012.4 |
| 20260508141745 | 68 | 24 | 1.0 | 2.0 | 0.00 | 0.00 | 0.00 | 99 | 1012.4 |
| 20260508141632 | 68 | 352 | 1.0 | 2.0 | 0.00 | 0.00 | 0.00 | 99 | 1012.5 |
| 20260508141530 | 68 | 13 | 1.0 | 2.0 | 0.00 | 0.00 | 0.00 | 99 | 1012.5 |
| 20260508141431 | 68 | 319 | 1.0 | 2.0 | 0.00 | 0.00 | 0.00 | 99 | 1012.5 |
| 20260508141317 | 68 | 329 | 1.0 | 2.0 | 0.00 | 0.00 | 0.00 | 99 | 1012.6 |
| 20260508141202 | 68 | 307 | 1.0 | 2.0 | 0.00 | 0.00 | 0.00 | 99 | 1012.6 |
| 20260508141102 | 68 | 0 | 1.0 | 2.0 | 0.00 | 0.00 | 0.00 | 99 | 1012.6 |
| 20260508141020 | 68 | 34 | 1.0 | 2.0 | 0.00 | 0.00 | 0.00 | 99 | 1012.5 |
| 20260508141001 | 68 | 318 | 1.0 | 2.0 | 0.00 | 0.00 | 0.00 | 99 | 1012.6 |